<?xml version="1.0" encoding="UTF-8"?>
<gpx version="1.1" creator="2bulu-scraper" xmlns="http://www.topografix.com/GPX/1/1">
  <metadata><name>永乐翻坪山陡累上油槽下</name><desc>source: 2bulu.com trackId=81203087; exported 2026-09-01T14:50:12.032Z</desc>
    <bounds minlat="28.0996903" minlon="105.9327234" maxlat="28.1451739" maxlon="105.9498294"/>
    <link href="https://www.2bulu.com/track/t-hElxtIlnQkbp%252FR2KBg5Tzw%253D%253D.htm"><text>2bulu 源页面</text></link>
  </metadata>
  <wpt lat="28.0996946" lon="105.9489328"><ele>342</ele><name>永乐街道
        </name></wpt>
  <wpt lat="28.0997421" lon="105.9490078"><ele>348</ele><name>
        </name></wpt>
  <wpt lat="28.099708" lon="105.949095"><ele>349</ele><name>
        </name></wpt>
  <wpt lat="28.1044353" lon="105.9495552"><ele>341</ele><name>
        </name></wpt>
  <wpt lat="28.1044353" lon="105.9495552"><ele>341</ele><name>左转
        </name></wpt>
  <wpt lat="28.1060121" lon="105.9484243"><ele>351</ele><name>右转
        </name></wpt>
  <wpt lat="28.1108781" lon="105.9443637"><ele>403</ele><name>左转
        </name></wpt>
  <wpt lat="28.1109036" lon="105.9441475"><ele>403</ele><name>右转走小路
        </name></wpt>
  <wpt lat="28.1229708" lon="105.946892"><ele>535</ele><name>左转

        </name></wpt>
  <wpt lat="28.1245148" lon="105.944476"><ele>595</ele><name>直行
        </name></wpt>
  <wpt lat="28.1246058" lon="105.9445314"><ele>592</ele><name>
        </name></wpt>
  <wpt lat="28.127564" lon="105.9457637"><ele>693</ele><name>
        </name></wpt>
  <wpt lat="28.1284566" lon="105.9458263"><ele>692</ele><name>左转
        </name></wpt>
  <wpt lat="28.140077" lon="105.9389604"><ele>1099</ele><name>向下
        </name></wpt>
  <wpt lat="28.1402097" lon="105.9387206"><ele>1087</ele><name>右转
        </name></wpt>
  <wpt lat="28.1408596" lon="105.9387155"><ele>1076</ele><name>倒流水库
        </name></wpt>
  <wpt lat="28.1409454" lon="105.9386712"><ele>1082</ele><name>
        </name></wpt>
  <wpt lat="28.1418525" lon="105.9398888"><ele>1087</ele><name>左转
        </name></wpt>
  <wpt lat="28.1426525" lon="105.9402274"><ele>1073</ele><name>
        </name></wpt>
  <wpt lat="28.1429475" lon="105.9397793"><ele>1118</ele><name>
        </name></wpt>
  <wpt lat="28.1429264" lon="105.9395903"><ele>1117</ele><name>右转向下
        </name></wpt>
  <wpt lat="28.1450722" lon="105.9407177"><ele>1095</ele><name>中途吃饭
        </name></wpt>
  <wpt lat="28.1451739" lon="105.9406982"><ele>1098</ele><name>
        </name></wpt>
  <wpt lat="28.1441968" lon="105.9404839"><ele>1103</ele><name>
        </name></wpt>
  <wpt lat="28.1386093" lon="105.935291"><ele>1142</ele><name>
        </name></wpt>
  <wpt lat="28.1386093" lon="105.935291"><ele>1142</ele><name>往油槽
        </name></wpt>
  <wpt lat="28.1382649" lon="105.9352243"><ele>1134</ele><name>
        </name></wpt>
  <wpt lat="28.1380968" lon="105.9352962"><ele>1141</ele><name>
        </name></wpt>
  <wpt lat="28.1363152" lon="105.9344982"><ele>1139</ele><name>
        </name></wpt>
  <wpt lat="28.1363152" lon="105.9344982"><ele>1139</ele><name>川渝交界寨门
        </name></wpt>
  <wpt lat="28.1363152" lon="105.9344982"><ele>1139</ele><name>向下
        </name></wpt>
  <wpt lat="28.1363121" lon="105.9343998"><ele>1140</ele><name>向下
        </name></wpt>
  <wpt lat="28.1360973" lon="105.9338688"><ele>1130</ele><name>
        </name></wpt>
  <wpt lat="28.1360256" lon="105.9339532"><ele>1106</ele><name>
        </name></wpt>
  <wpt lat="28.1334411" lon="105.9332292"><ele>962</ele><name>
        </name></wpt>
  <wpt lat="28.1334411" lon="105.9332292"><ele>962</ele><name>
        </name></wpt>
  <wpt lat="28.1306988" lon="105.9337246"><ele>886</ele><name>
        </name></wpt>
  <wpt lat="28.1306394" lon="105.9337865"><ele>872</ele><name>
        </name></wpt>
  <wpt lat="28.1275441" lon="105.9329578"><ele>710</ele><name>白云庵
        </name></wpt>
  <wpt lat="28.1275441" lon="105.9329578"><ele>710</ele><name>
        </name></wpt>
  <wpt lat="28.1261173" lon="105.9349359"><ele>695</ele><name>白云庵
        </name></wpt>
  <wpt lat="28.1110662" lon="105.9411661"><ele>387</ele><name>
        </name></wpt>
  <wpt lat="28.0997357" lon="105.9491888"><ele>350</ele><name>终点
        </name></wpt>
  <trk><name>永乐翻坪山陡累上油槽下</name>
      <trkseg>
        <trkpt lat="28.0996946" lon="105.9489328"><ele>341.78</ele><time>2026-03-27T16:36:51.000Z</time></trkpt>
        <trkpt lat="28.0997421" lon="105.9490078"><ele>341.78</ele><time>2026-03-27T16:37:13.000Z</time></trkpt>
        <trkpt lat="28.099708" lon="105.949095"><ele>344.37</ele><time>2026-03-27T16:37:29.000Z</time></trkpt>
        <trkpt lat="28.0996903" lon="105.9492072"><ele>346.43</ele><time>2026-03-27T16:37:41.000Z</time></trkpt>
        <trkpt lat="28.0997334" lon="105.9491857"><ele>347.41</ele><time>2026-03-27T16:37:49.000Z</time></trkpt>
        <trkpt lat="28.0997663" lon="105.9490845"><ele>348.01</ele><time>2026-03-27T16:37:55.000Z</time></trkpt>
        <trkpt lat="28.0998029" lon="105.9489542"><ele>348.16</ele><time>2026-03-27T16:38:01.000Z</time></trkpt>
        <trkpt lat="28.0998483" lon="105.9488433"><ele>347.94</ele><time>2026-03-27T16:38:09.000Z</time></trkpt>
        <trkpt lat="28.0999257" lon="105.9487672"><ele>346.93</ele><time>2026-03-27T16:38:19.000Z</time></trkpt>
        <trkpt lat="28.0999868" lon="105.9486739"><ele>345.54</ele><time>2026-03-27T16:38:29.000Z</time></trkpt>
        <trkpt lat="28.1000415" lon="105.948572"><ele>345.62</ele><time>2026-03-27T16:38:39.000Z</time></trkpt>
        <trkpt lat="28.1000943" lon="105.9484576"><ele>344.52</ele><time>2026-03-27T16:38:49.000Z</time></trkpt>
        <trkpt lat="28.1001438" lon="105.9483627"><ele>343.92</ele><time>2026-03-27T16:38:54.000Z</time></trkpt>
        <trkpt lat="28.1001949" lon="105.9482724"><ele>345.86</ele><time>2026-03-27T16:39:02.000Z</time></trkpt>
        <trkpt lat="28.1002484" lon="105.9481884"><ele>346.79</ele><time>2026-03-27T16:39:08.000Z</time></trkpt>
        <trkpt lat="28.1003053" lon="105.9481059"><ele>347.44</ele><time>2026-03-27T16:39:20.000Z</time></trkpt>
        <trkpt lat="28.1003742" lon="105.9480329"><ele>347.23</ele><time>2026-03-27T16:39:30.000Z</time></trkpt>
        <trkpt lat="28.1004665" lon="105.947974"><ele>346.6</ele><time>2026-03-27T16:39:42.000Z</time></trkpt>
        <trkpt lat="28.1005726" lon="105.9479224"><ele>344.57</ele><time>2026-03-27T16:39:52.000Z</time></trkpt>
        <trkpt lat="28.1006719" lon="105.9478765"><ele>343.21</ele><time>2026-03-27T16:40:00.000Z</time></trkpt>
        <trkpt lat="28.1007554" lon="105.9478139"><ele>342.22</ele><time>2026-03-27T16:40:08.000Z</time></trkpt>
        <trkpt lat="28.1008179" lon="105.9477194"><ele>341.04</ele><time>2026-03-27T16:40:14.000Z</time></trkpt>
        <trkpt lat="28.1008796" lon="105.9476379"><ele>341.42</ele><time>2026-03-27T16:40:20.000Z</time></trkpt>
        <trkpt lat="28.1009468" lon="105.9475517"><ele>341.43</ele><time>2026-03-27T16:40:30.000Z</time></trkpt>
        <trkpt lat="28.1010252" lon="105.9474829"><ele>340.88</ele><time>2026-03-27T16:40:40.000Z</time></trkpt>
        <trkpt lat="28.101094" lon="105.9473837"><ele>339</ele><time>2026-03-27T16:40:50.000Z</time></trkpt>
        <trkpt lat="28.1011006" lon="105.9473482"><ele>339.14</ele><time>2026-03-27T16:40:52.000Z</time></trkpt>
        <trkpt lat="28.101153" lon="105.947301"><ele>339.33</ele><time>2026-03-27T16:41:18.000Z</time></trkpt>
        <trkpt lat="28.1012351" lon="105.9472511"><ele>340.78</ele><time>2026-03-27T16:41:28.000Z</time></trkpt>
        <trkpt lat="28.1013212" lon="105.947204"><ele>342.83</ele><time>2026-03-27T16:41:38.000Z</time></trkpt>
        <trkpt lat="28.1014163" lon="105.9471913"><ele>343.34</ele><time>2026-03-27T16:41:50.000Z</time></trkpt>
        <trkpt lat="28.1015112" lon="105.9471963"><ele>342.16</ele><time>2026-03-27T16:41:56.000Z</time></trkpt>
        <trkpt lat="28.1015943" lon="105.9471872"><ele>342.74</ele><time>2026-03-27T16:42:10.000Z</time></trkpt>
        <trkpt lat="28.1016798" lon="105.9471544"><ele>342.44</ele><time>2026-03-27T16:42:30.000Z</time></trkpt>
        <trkpt lat="28.1017734" lon="105.9471303"><ele>342.07</ele><time>2026-03-27T16:43:02.000Z</time></trkpt>
        <trkpt lat="28.1018645" lon="105.9470993"><ele>342.11</ele><time>2026-03-27T16:43:12.000Z</time></trkpt>
        <trkpt lat="28.1019594" lon="105.9470733"><ele>342.17</ele><time>2026-03-27T16:43:22.000Z</time></trkpt>
        <trkpt lat="28.102051" lon="105.9470482"><ele>342</ele><time>2026-03-27T16:43:34.000Z</time></trkpt>
        <trkpt lat="28.1021477" lon="105.9470173"><ele>341.65</ele><time>2026-03-27T16:43:44.000Z</time></trkpt>
        <trkpt lat="28.1022462" lon="105.9469924"><ele>341.71</ele><time>2026-03-27T16:43:54.000Z</time></trkpt>
        <trkpt lat="28.1023419" lon="105.9469781"><ele>342.21</ele><time>2026-03-27T16:44:02.000Z</time></trkpt>
        <trkpt lat="28.1024385" lon="105.9470103"><ele>344.59</ele><time>2026-03-27T16:44:12.000Z</time></trkpt>
        <trkpt lat="28.1025173" lon="105.9470856"><ele>345.54</ele><time>2026-03-27T16:44:22.000Z</time></trkpt>
        <trkpt lat="28.1025763" lon="105.947175"><ele>346.89</ele><time>2026-03-27T16:44:30.000Z</time></trkpt>
        <trkpt lat="28.1026405" lon="105.9472634"><ele>348.63</ele><time>2026-03-27T16:44:40.000Z</time></trkpt>
        <trkpt lat="28.102711" lon="105.9473457"><ele>348.87</ele><time>2026-03-27T16:44:50.000Z</time></trkpt>
        <trkpt lat="28.1027872" lon="105.9474129"><ele>349.6</ele><time>2026-03-27T16:44:58.000Z</time></trkpt>
        <trkpt lat="28.102882" lon="105.9474574"><ele>349.6</ele><time>2026-03-27T16:45:08.000Z</time></trkpt>
        <trkpt lat="28.1029598" lon="105.9475273"><ele>349.68</ele><time>2026-03-27T16:45:18.000Z</time></trkpt>
        <trkpt lat="28.1030142" lon="105.9476297"><ele>350.02</ele><time>2026-03-27T16:45:28.000Z</time></trkpt>
        <trkpt lat="28.1030407" lon="105.9477379"><ele>349.14</ele><time>2026-03-27T16:45:38.000Z</time></trkpt>
        <trkpt lat="28.1030825" lon="105.9478389"><ele>349.54</ele><time>2026-03-27T16:45:48.000Z</time></trkpt>
        <trkpt lat="28.1031391" lon="105.947931"><ele>350.01</ele><time>2026-03-27T16:45:58.000Z</time></trkpt>
        <trkpt lat="28.1032276" lon="105.9479927"><ele>350.73</ele><time>2026-03-27T16:46:08.000Z</time></trkpt>
        <trkpt lat="28.1033239" lon="105.9480617"><ele>352.25</ele><time>2026-03-27T16:46:18.000Z</time></trkpt>
        <trkpt lat="28.1033972" lon="105.9481434"><ele>352.53</ele><time>2026-03-27T16:46:28.000Z</time></trkpt>
        <trkpt lat="28.1034322" lon="105.9482396"><ele>353.57</ele><time>2026-03-27T16:46:36.000Z</time></trkpt>
        <trkpt lat="28.1034723" lon="105.9483457"><ele>353.24</ele><time>2026-03-27T16:46:44.000Z</time></trkpt>
        <trkpt lat="28.1035082" lon="105.9484554"><ele>353.78</ele><time>2026-03-27T16:46:52.000Z</time></trkpt>
        <trkpt lat="28.1035315" lon="105.9485712"><ele>353.46</ele><time>2026-03-27T16:47:00.000Z</time></trkpt>
        <trkpt lat="28.1035518" lon="105.9486834"><ele>353.16</ele><time>2026-03-27T16:47:08.000Z</time></trkpt>
        <trkpt lat="28.1035701" lon="105.948789"><ele>352.01</ele><time>2026-03-27T16:47:16.000Z</time></trkpt>
        <trkpt lat="28.1035631" lon="105.9488949"><ele>350.96</ele><time>2026-03-27T16:47:24.000Z</time></trkpt>
        <trkpt lat="28.103585" lon="105.9489917"><ele>352.73</ele><time>2026-03-27T16:47:32.000Z</time></trkpt>
        <trkpt lat="28.1036476" lon="105.9490651"><ele>351.46</ele><time>2026-03-27T16:47:42.000Z</time></trkpt>
        <trkpt lat="28.1037425" lon="105.9491024"><ele>349.41</ele><time>2026-03-27T16:47:52.000Z</time></trkpt>
        <trkpt lat="28.1038296" lon="105.9491703"><ele>346.75</ele><time>2026-03-27T16:48:02.000Z</time></trkpt>
        <trkpt lat="28.1039169" lon="105.9492467"><ele>344.75</ele><time>2026-03-27T16:48:12.000Z</time></trkpt>
        <trkpt lat="28.1040139" lon="105.9493009"><ele>343.33</ele><time>2026-03-27T16:48:22.000Z</time></trkpt>
        <trkpt lat="28.1041096" lon="105.9493527"><ele>341.98</ele><time>2026-03-27T16:48:32.000Z</time></trkpt>
        <trkpt lat="28.1042142" lon="105.949397"><ele>341.08</ele><time>2026-03-27T16:48:42.000Z</time></trkpt>
        <trkpt lat="28.104318" lon="105.9494343"><ele>340.52</ele><time>2026-03-27T16:48:52.000Z</time></trkpt>
        <trkpt lat="28.1043882" lon="105.9494745"><ele>340.16</ele><time>2026-03-27T16:49:02.000Z</time></trkpt>
        <trkpt lat="28.1044353" lon="105.9495552"><ele>340.85</ele><time>2026-03-27T16:50:10.000Z</time></trkpt>
        <trkpt lat="28.104529" lon="105.949618"><ele>340.83</ele><time>2026-03-27T16:50:44.000Z</time></trkpt>
        <trkpt lat="28.1046306" lon="105.9496626"><ele>340.31</ele><time>2026-03-27T16:50:52.000Z</time></trkpt>
        <trkpt lat="28.1047237" lon="105.9496826"><ele>339.65</ele><time>2026-03-27T16:51:00.000Z</time></trkpt>
        <trkpt lat="28.1048222" lon="105.9497287"><ele>338.76</ele><time>2026-03-27T16:51:10.000Z</time></trkpt>
        <trkpt lat="28.1049215" lon="105.9497607"><ele>338.74</ele><time>2026-03-27T16:51:18.000Z</time></trkpt>
        <trkpt lat="28.1050116" lon="105.9498015"><ele>338.22</ele><time>2026-03-27T16:51:26.000Z</time></trkpt>
        <trkpt lat="28.1051149" lon="105.9498294"><ele>338.71</ele><time>2026-03-27T16:51:36.000Z</time></trkpt>
        <trkpt lat="28.1052222" lon="105.9498241"><ele>339.11</ele><time>2026-03-27T16:51:46.000Z</time></trkpt>
        <trkpt lat="28.1053165" lon="105.9497967"><ele>339.18</ele><time>2026-03-27T16:51:54.000Z</time></trkpt>
        <trkpt lat="28.1054001" lon="105.9497405"><ele>339.46</ele><time>2026-03-27T16:52:02.000Z</time></trkpt>
        <trkpt lat="28.1054714" lon="105.9496681"><ele>340.08</ele><time>2026-03-27T16:52:10.000Z</time></trkpt>
        <trkpt lat="28.1055341" lon="105.9495875"><ele>341.89</ele><time>2026-03-27T16:52:18.000Z</time></trkpt>
        <trkpt lat="28.105576" lon="105.9494889"><ele>343.46</ele><time>2026-03-27T16:52:26.000Z</time></trkpt>
        <trkpt lat="28.1055955" lon="105.949378"><ele>344.92</ele><time>2026-03-27T16:52:34.000Z</time></trkpt>
        <trkpt lat="28.1056148" lon="105.9492669"><ele>346.62</ele><time>2026-03-27T16:52:42.000Z</time></trkpt>
        <trkpt lat="28.1056509" lon="105.9491693"><ele>348.13</ele><time>2026-03-27T16:52:50.000Z</time></trkpt>
        <trkpt lat="28.105687" lon="105.9490725"><ele>348.47</ele><time>2026-03-27T16:52:58.000Z</time></trkpt>
        <trkpt lat="28.105718" lon="105.9489698"><ele>348.29</ele><time>2026-03-27T16:53:06.000Z</time></trkpt>
        <trkpt lat="28.1057494" lon="105.9488696"><ele>348.31</ele><time>2026-03-27T16:53:14.000Z</time></trkpt>
        <trkpt lat="28.1057806" lon="105.9487703"><ele>348.49</ele><time>2026-03-27T16:53:22.000Z</time></trkpt>
        <trkpt lat="28.1058248" lon="105.9486721"><ele>348.6</ele><time>2026-03-27T16:53:30.000Z</time></trkpt>
        <trkpt lat="28.1058816" lon="105.9485728"><ele>349.15</ele><time>2026-03-27T16:53:40.000Z</time></trkpt>
        <trkpt lat="28.1059594" lon="105.9484749"><ele>349.69</ele><time>2026-03-27T16:53:50.000Z</time></trkpt>
        <trkpt lat="28.1060121" lon="105.9484243"><ele>349.95</ele><time>2026-03-27T16:54:00.000Z</time></trkpt>
        <trkpt lat="28.1060907" lon="105.9484433"><ele>350.53</ele><time>2026-03-27T16:54:20.000Z</time></trkpt>
        <trkpt lat="28.1061901" lon="105.9484602"><ele>352.05</ele><time>2026-03-27T16:54:28.000Z</time></trkpt>
        <trkpt lat="28.1062884" lon="105.9484869"><ele>353.58</ele><time>2026-03-27T16:54:38.000Z</time></trkpt>
        <trkpt lat="28.106346" lon="105.9485035"><ele>354.61</ele><time>2026-03-27T16:54:44.000Z</time></trkpt>
        <trkpt lat="28.1064329" lon="105.9485062"><ele>355.43</ele><time>2026-03-27T16:54:54.000Z</time></trkpt>
        <trkpt lat="28.1065256" lon="105.9485048"><ele>356.22</ele><time>2026-03-27T16:55:04.000Z</time></trkpt>
        <trkpt lat="28.1066349" lon="105.9484931"><ele>356.63</ele><time>2026-03-27T16:55:14.000Z</time></trkpt>
        <trkpt lat="28.1067322" lon="105.948446"><ele>357.4</ele><time>2026-03-27T16:55:22.000Z</time></trkpt>
        <trkpt lat="28.1068245" lon="105.9484017"><ele>357.59</ele><time>2026-03-27T16:55:30.000Z</time></trkpt>
        <trkpt lat="28.1069073" lon="105.9483479"><ele>357.66</ele><time>2026-03-27T16:55:38.000Z</time></trkpt>
        <trkpt lat="28.1069876" lon="105.9482947"><ele>357.91</ele><time>2026-03-27T16:55:46.000Z</time></trkpt>
        <trkpt lat="28.1070716" lon="105.9482553"><ele>358.29</ele><time>2026-03-27T16:55:54.000Z</time></trkpt>
        <trkpt lat="28.1071577" lon="105.948209"><ele>358.36</ele><time>2026-03-27T16:56:02.000Z</time></trkpt>
        <trkpt lat="28.107245" lon="105.9481702"><ele>358.16</ele><time>2026-03-27T16:56:10.000Z</time></trkpt>
        <trkpt lat="28.1073275" lon="105.9481201"><ele>357.94</ele><time>2026-03-27T16:56:18.000Z</time></trkpt>
        <trkpt lat="28.1074114" lon="105.9480715"><ele>358.36</ele><time>2026-03-27T16:56:26.000Z</time></trkpt>
        <trkpt lat="28.1075065" lon="105.9480611"><ele>358.75</ele><time>2026-03-27T16:56:34.000Z</time></trkpt>
        <trkpt lat="28.1076017" lon="105.948073"><ele>358.35</ele><time>2026-03-27T16:56:42.000Z</time></trkpt>
        <trkpt lat="28.1076954" lon="105.9480781"><ele>358.63</ele><time>2026-03-27T16:56:50.000Z</time></trkpt>
        <trkpt lat="28.1078015" lon="105.9480905"><ele>359.28</ele><time>2026-03-27T16:57:00.000Z</time></trkpt>
        <trkpt lat="28.1079" lon="105.9480757"><ele>361.16</ele><time>2026-03-27T16:57:10.000Z</time></trkpt>
        <trkpt lat="28.107976" lon="105.9480185"><ele>363.24</ele><time>2026-03-27T16:57:20.000Z</time></trkpt>
        <trkpt lat="28.1080434" lon="105.9479332"><ele>364.7</ele><time>2026-03-27T16:57:30.000Z</time></trkpt>
        <trkpt lat="28.1081061" lon="105.9478409"><ele>365.62</ele><time>2026-03-27T16:57:40.000Z</time></trkpt>
        <trkpt lat="28.1081617" lon="105.9477438"><ele>366.2</ele><time>2026-03-27T16:57:50.000Z</time></trkpt>
        <trkpt lat="28.1082151" lon="105.9476354"><ele>367.19</ele><time>2026-03-27T16:58:00.000Z</time></trkpt>
        <trkpt lat="28.1082669" lon="105.9475393"><ele>368.45</ele><time>2026-03-27T16:58:08.000Z</time></trkpt>
        <trkpt lat="28.108315" lon="105.9474339"><ele>369.6</ele><time>2026-03-27T16:58:18.000Z</time></trkpt>
        <trkpt lat="28.1083642" lon="105.9473419"><ele>370.88</ele><time>2026-03-27T16:58:26.000Z</time></trkpt>
        <trkpt lat="28.1084009" lon="105.9472455"><ele>371.59</ele><time>2026-03-27T16:58:34.000Z</time></trkpt>
        <trkpt lat="28.1084385" lon="105.9471438"><ele>372.31</ele><time>2026-03-27T16:58:42.000Z</time></trkpt>
        <trkpt lat="28.1084665" lon="105.9470442"><ele>372.87</ele><time>2026-03-27T16:58:50.000Z</time></trkpt>
        <trkpt lat="28.108489" lon="105.9469294"><ele>373.12</ele><time>2026-03-27T16:59:00.000Z</time></trkpt>
        <trkpt lat="28.1084961" lon="105.9468225"><ele>373.7</ele><time>2026-03-27T16:59:08.000Z</time></trkpt>
        <trkpt lat="28.1085162" lon="105.9467048"><ele>374.69</ele><time>2026-03-27T16:59:18.000Z</time></trkpt>
        <trkpt lat="28.1085582" lon="105.9465888"><ele>375.81</ele><time>2026-03-27T16:59:28.000Z</time></trkpt>
        <trkpt lat="28.1086105" lon="105.9464971"><ele>376.86</ele><time>2026-03-27T16:59:36.000Z</time></trkpt>
        <trkpt lat="28.1086631" lon="105.9464115"><ele>377.61</ele><time>2026-03-27T16:59:44.000Z</time></trkpt>
        <trkpt lat="28.108717" lon="105.9463227"><ele>378.37</ele><time>2026-03-27T16:59:52.000Z</time></trkpt>
        <trkpt lat="28.1087664" lon="105.946222"><ele>379.46</ele><time>2026-03-27T17:00:02.000Z</time></trkpt>
        <trkpt lat="28.1088013" lon="105.946112"><ele>380.38</ele><time>2026-03-27T17:00:12.000Z</time></trkpt>
        <trkpt lat="28.1088367" lon="105.9460094"><ele>381.35</ele><time>2026-03-27T17:00:20.000Z</time></trkpt>
        <trkpt lat="28.1088819" lon="105.9458962"><ele>382</ele><time>2026-03-27T17:00:30.000Z</time></trkpt>
        <trkpt lat="28.1089197" lon="105.9457776"><ele>382.9</ele><time>2026-03-27T17:00:40.000Z</time></trkpt>
        <trkpt lat="28.1089732" lon="105.945666"><ele>383.39</ele><time>2026-03-27T17:00:50.000Z</time></trkpt>
        <trkpt lat="28.109062" lon="105.9456439"><ele>383.63</ele><time>2026-03-27T17:01:00.000Z</time></trkpt>
        <trkpt lat="28.1091604" lon="105.94561"><ele>384.42</ele><time>2026-03-27T17:01:18.000Z</time></trkpt>
        <trkpt lat="28.1092577" lon="105.9455875"><ele>384.55</ele><time>2026-03-27T17:01:26.000Z</time></trkpt>
        <trkpt lat="28.1093433" lon="105.9455185"><ele>384.27</ele><time>2026-03-27T17:01:36.000Z</time></trkpt>
        <trkpt lat="28.1093826" lon="105.9454169"><ele>383.98</ele><time>2026-03-27T17:01:46.000Z</time></trkpt>
        <trkpt lat="28.109397" lon="105.9453038"><ele>385.03</ele><time>2026-03-27T17:01:56.000Z</time></trkpt>
        <trkpt lat="28.1094316" lon="105.9451924"><ele>386.22</ele><time>2026-03-27T17:02:06.000Z</time></trkpt>
        <trkpt lat="28.1094751" lon="105.945092"><ele>387.1</ele><time>2026-03-27T17:02:16.000Z</time></trkpt>
        <trkpt lat="28.109552" lon="105.9450139"><ele>388.08</ele><time>2026-03-27T17:02:26.000Z</time></trkpt>
        <trkpt lat="28.1096438" lon="105.944957"><ele>387.72</ele><time>2026-03-27T17:02:36.000Z</time></trkpt>
        <trkpt lat="28.1097431" lon="105.9449145"><ele>388.26</ele><time>2026-03-27T17:02:46.000Z</time></trkpt>
        <trkpt lat="28.1098419" lon="105.9448944"><ele>388.52</ele><time>2026-03-27T17:02:54.000Z</time></trkpt>
        <trkpt lat="28.1099425" lon="105.9448724"><ele>389.81</ele><time>2026-03-27T17:03:06.000Z</time></trkpt>
        <trkpt lat="28.110022" lon="105.9448058"><ele>391.71</ele><time>2026-03-27T17:03:18.000Z</time></trkpt>
        <trkpt lat="28.1100977" lon="105.9447276"><ele>393.37</ele><time>2026-03-27T17:03:28.000Z</time></trkpt>
        <trkpt lat="28.1101894" lon="105.9446629"><ele>394.25</ele><time>2026-03-27T17:03:38.000Z</time></trkpt>
        <trkpt lat="28.1102922" lon="105.944622"><ele>395</ele><time>2026-03-27T17:03:48.000Z</time></trkpt>
        <trkpt lat="28.1103888" lon="105.9445973"><ele>396.06</ele><time>2026-03-27T17:03:56.000Z</time></trkpt>
        <trkpt lat="28.1104943" lon="105.9445765"><ele>397.34</ele><time>2026-03-27T17:04:06.000Z</time></trkpt>
        <trkpt lat="28.1106016" lon="105.9445632"><ele>398.88</ele><time>2026-03-27T17:04:16.000Z</time></trkpt>
        <trkpt lat="28.1106961" lon="105.9445358"><ele>399.28</ele><time>2026-03-27T17:04:24.000Z</time></trkpt>
        <trkpt lat="28.1107796" lon="105.9444835"><ele>399.73</ele><time>2026-03-27T17:04:32.000Z</time></trkpt>
        <trkpt lat="28.110853" lon="105.9444112"><ele>400.14</ele><time>2026-03-27T17:04:40.000Z</time></trkpt>
        <trkpt lat="28.1108781" lon="105.9443637"><ele>400.8</ele><time>2026-03-27T17:04:46.000Z</time></trkpt>
        <trkpt lat="28.1109007" lon="105.9442591"><ele>401.78</ele><time>2026-03-27T17:05:10.000Z</time></trkpt>
        <trkpt lat="28.1109036" lon="105.9441475"><ele>402.12</ele><time>2026-03-27T17:05:18.000Z</time></trkpt>
        <trkpt lat="28.1109019" lon="105.944112"><ele>402.52</ele><time>2026-03-27T17:05:22.000Z</time></trkpt>
        <trkpt lat="28.1109161" lon="105.944026"><ele>402.71</ele><time>2026-03-27T17:05:42.000Z</time></trkpt>
        <trkpt lat="28.1109322" lon="105.9439808"><ele>402.83</ele><time>2026-03-27T17:05:52.000Z</time></trkpt>
        <trkpt lat="28.1109927" lon="105.9439257"><ele>402.75</ele><time>2026-03-27T17:06:18.000Z</time></trkpt>
        <trkpt lat="28.1109941" lon="105.943833"><ele>403.72</ele><time>2026-03-27T17:06:40.000Z</time></trkpt>
        <trkpt lat="28.1110424" lon="105.9437516"><ele>406.13</ele><time>2026-03-27T17:06:52.000Z</time></trkpt>
        <trkpt lat="28.1111162" lon="105.9436695"><ele>408.22</ele><time>2026-03-27T17:07:06.000Z</time></trkpt>
        <trkpt lat="28.1112105" lon="105.9436377"><ele>411.49</ele><time>2026-03-27T17:07:14.000Z</time></trkpt>
        <trkpt lat="28.1113102" lon="105.9436198"><ele>413.75</ele><time>2026-03-27T17:07:22.000Z</time></trkpt>
        <trkpt lat="28.1114045" lon="105.9436022"><ele>415.42</ele><time>2026-03-27T17:07:30.000Z</time></trkpt>
        <trkpt lat="28.1115113" lon="105.9435788"><ele>417.33</ele><time>2026-03-27T17:07:40.000Z</time></trkpt>
        <trkpt lat="28.111611" lon="105.9435696"><ele>418.66</ele><time>2026-03-27T17:07:48.000Z</time></trkpt>
        <trkpt lat="28.1117195" lon="105.9435561"><ele>419.99</ele><time>2026-03-27T17:07:58.000Z</time></trkpt>
        <trkpt lat="28.1118288" lon="105.9435606"><ele>420.96</ele><time>2026-03-27T17:08:08.000Z</time></trkpt>
        <trkpt lat="28.1119347" lon="105.9435649"><ele>420.7</ele><time>2026-03-27T17:08:16.000Z</time></trkpt>
        <trkpt lat="28.1120347" lon="105.9435557"><ele>418.29</ele><time>2026-03-27T17:08:28.000Z</time></trkpt>
        <trkpt lat="28.1121337" lon="105.9435589"><ele>419.06</ele><time>2026-03-27T17:08:40.000Z</time></trkpt>
        <trkpt lat="28.1122269" lon="105.9435591"><ele>420.79</ele><time>2026-03-27T17:08:50.000Z</time></trkpt>
        <trkpt lat="28.1123291" lon="105.9435703"><ele>423.06</ele><time>2026-03-27T17:08:58.000Z</time></trkpt>
        <trkpt lat="28.1124229" lon="105.943606"><ele>426.75</ele><time>2026-03-27T17:09:10.000Z</time></trkpt>
        <trkpt lat="28.1125203" lon="105.9436312"><ele>428.66</ele><time>2026-03-27T17:09:22.000Z</time></trkpt>
        <trkpt lat="28.1125834" lon="105.9435683"><ele>430.4</ele><time>2026-03-27T17:09:36.000Z</time></trkpt>
        <trkpt lat="28.1126583" lon="105.9434849"><ele>432.75</ele><time>2026-03-27T17:09:48.000Z</time></trkpt>
        <trkpt lat="28.1127442" lon="105.9434398"><ele>435.86</ele><time>2026-03-27T17:09:58.000Z</time></trkpt>
        <trkpt lat="28.1128322" lon="105.9434017"><ele>437.99</ele><time>2026-03-27T17:10:10.000Z</time></trkpt>
        <trkpt lat="28.1129185" lon="105.9433401"><ele>439.09</ele><time>2026-03-27T17:10:22.000Z</time></trkpt>
        <trkpt lat="28.113005" lon="105.9432859"><ele>440.07</ele><time>2026-03-27T17:10:32.000Z</time></trkpt>
        <trkpt lat="28.1130939" lon="105.943226"><ele>440.55</ele><time>2026-03-27T17:10:44.000Z</time></trkpt>
        <trkpt lat="28.1131663" lon="105.9431567"><ele>440.93</ele><time>2026-03-27T17:10:54.000Z</time></trkpt>
        <trkpt lat="28.1132375" lon="105.9431461"><ele>441.48</ele><time>2026-03-27T17:11:06.000Z</time></trkpt>
        <trkpt lat="28.1133194" lon="105.9431119"><ele>441.02</ele><time>2026-03-27T17:11:32.000Z</time></trkpt>
        <trkpt lat="28.1134082" lon="105.94312"><ele>442.66</ele><time>2026-03-27T17:11:44.000Z</time></trkpt>
        <trkpt lat="28.1135003" lon="105.9431598"><ele>444.57</ele><time>2026-03-27T17:11:54.000Z</time></trkpt>
        <trkpt lat="28.1135859" lon="105.9432072"><ele>445.76</ele><time>2026-03-27T17:12:06.000Z</time></trkpt>
        <trkpt lat="28.1136847" lon="105.9432245"><ele>447.1</ele><time>2026-03-27T17:12:18.000Z</time></trkpt>
        <trkpt lat="28.1137765" lon="105.943275"><ele>447.24</ele><time>2026-03-27T17:12:28.000Z</time></trkpt>
        <trkpt lat="28.1138485" lon="105.943344"><ele>447.47</ele><time>2026-03-27T17:12:36.000Z</time></trkpt>
        <trkpt lat="28.1139157" lon="105.9434241"><ele>447.77</ele><time>2026-03-27T17:12:46.000Z</time></trkpt>
        <trkpt lat="28.1140041" lon="105.9434693"><ele>449.36</ele><time>2026-03-27T17:12:58.000Z</time></trkpt>
        <trkpt lat="28.1141064" lon="105.9435039"><ele>451.1</ele><time>2026-03-27T17:13:10.000Z</time></trkpt>
        <trkpt lat="28.1141691" lon="105.9435656"><ele>452.45</ele><time>2026-03-27T17:13:24.000Z</time></trkpt>
        <trkpt lat="28.1142538" lon="105.9436389"><ele>453.6</ele><time>2026-03-27T17:13:36.000Z</time></trkpt>
        <trkpt lat="28.1143308" lon="105.9437069"><ele>454.15</ele><time>2026-03-27T17:13:42.000Z</time></trkpt>
        <trkpt lat="28.1143837" lon="105.9437985"><ele>454.78</ele><time>2026-03-27T17:13:50.000Z</time></trkpt>
        <trkpt lat="28.1144353" lon="105.9438904"><ele>455.56</ele><time>2026-03-27T17:14:00.000Z</time></trkpt>
        <trkpt lat="28.1145049" lon="105.9439689"><ele>455.5</ele><time>2026-03-27T17:14:10.000Z</time></trkpt>
        <trkpt lat="28.11458" lon="105.9440497"><ele>456.15</ele><time>2026-03-27T17:14:20.000Z</time></trkpt>
        <trkpt lat="28.114652" lon="105.9441414"><ele>456.24</ele><time>2026-03-27T17:14:30.000Z</time></trkpt>
        <trkpt lat="28.114733" lon="105.9441966"><ele>456.3</ele><time>2026-03-27T17:14:38.000Z</time></trkpt>
        <trkpt lat="28.1148287" lon="105.944222"><ele>456.52</ele><time>2026-03-27T17:14:46.000Z</time></trkpt>
        <trkpt lat="28.1149192" lon="105.9442544"><ele>457.35</ele><time>2026-03-27T17:14:54.000Z</time></trkpt>
        <trkpt lat="28.1150092" lon="105.9442834"><ele>457.92</ele><time>2026-03-27T17:15:02.000Z</time></trkpt>
        <trkpt lat="28.1150973" lon="105.9443451"><ele>458.48</ele><time>2026-03-27T17:15:12.000Z</time></trkpt>
        <trkpt lat="28.1151783" lon="105.9444121"><ele>458.79</ele><time>2026-03-27T17:15:20.000Z</time></trkpt>
        <trkpt lat="28.1152475" lon="105.9444842"><ele>458.91</ele><time>2026-03-27T17:15:30.000Z</time></trkpt>
        <trkpt lat="28.1153251" lon="105.9445587"><ele>460.08</ele><time>2026-03-27T17:15:42.000Z</time></trkpt>
        <trkpt lat="28.1154099" lon="105.9446031"><ele>461.91</ele><time>2026-03-27T17:15:52.000Z</time></trkpt>
        <trkpt lat="28.1154924" lon="105.9446497"><ele>463.47</ele><time>2026-03-27T17:16:00.000Z</time></trkpt>
        <trkpt lat="28.1155682" lon="105.9447161"><ele>463.59</ele><time>2026-03-27T17:16:08.000Z</time></trkpt>
        <trkpt lat="28.1156352" lon="105.9447992"><ele>464.18</ele><time>2026-03-27T17:16:16.000Z</time></trkpt>
        <trkpt lat="28.1157017" lon="105.9448894"><ele>465.33</ele><time>2026-03-27T17:16:26.000Z</time></trkpt>
        <trkpt lat="28.1157819" lon="105.9449673"><ele>466.25</ele><time>2026-03-27T17:16:36.000Z</time></trkpt>
        <trkpt lat="28.1158537" lon="105.9450394"><ele>466.76</ele><time>2026-03-27T17:16:44.000Z</time></trkpt>
        <trkpt lat="28.1159171" lon="105.9451137"><ele>466.99</ele><time>2026-03-27T17:16:52.000Z</time></trkpt>
        <trkpt lat="28.1159652" lon="105.9452005"><ele>467.65</ele><time>2026-03-27T17:17:00.000Z</time></trkpt>
        <trkpt lat="28.1160077" lon="105.9453053"><ele>468.88</ele><time>2026-03-27T17:17:10.000Z</time></trkpt>
        <trkpt lat="28.1160405" lon="105.9454071"><ele>470.44</ele><time>2026-03-27T17:17:18.000Z</time></trkpt>
        <trkpt lat="28.1160717" lon="105.9455077"><ele>471.68</ele><time>2026-03-27T17:17:26.000Z</time></trkpt>
        <trkpt lat="28.1160996" lon="105.9456069"><ele>472.65</ele><time>2026-03-27T17:17:34.000Z</time></trkpt>
        <trkpt lat="28.1161335" lon="105.9457141"><ele>474.02</ele><time>2026-03-27T17:17:44.000Z</time></trkpt>
        <trkpt lat="28.1162042" lon="105.9458044"><ele>475.09</ele><time>2026-03-27T17:17:54.000Z</time></trkpt>
        <trkpt lat="28.1162918" lon="105.9458523"><ele>475.89</ele><time>2026-03-27T17:18:08.000Z</time></trkpt>
        <trkpt lat="28.1163797" lon="105.9458904"><ele>476.77</ele><time>2026-03-27T17:18:16.000Z</time></trkpt>
        <trkpt lat="28.1164698" lon="105.9459223"><ele>477.89</ele><time>2026-03-27T17:18:24.000Z</time></trkpt>
        <trkpt lat="28.1165562" lon="105.9459628"><ele>477.97</ele><time>2026-03-27T17:18:32.000Z</time></trkpt>
        <trkpt lat="28.1166501" lon="105.9460033"><ele>478.14</ele><time>2026-03-27T17:18:42.000Z</time></trkpt>
        <trkpt lat="28.1167416" lon="105.946045"><ele>479.28</ele><time>2026-03-27T17:18:52.000Z</time></trkpt>
        <trkpt lat="28.1168333" lon="105.9460789"><ele>481.15</ele><time>2026-03-27T17:19:02.000Z</time></trkpt>
        <trkpt lat="28.1169246" lon="105.9461007"><ele>482.35</ele><time>2026-03-27T17:19:14.000Z</time></trkpt>
        <trkpt lat="28.1170155" lon="105.9461149"><ele>484.04</ele><time>2026-03-27T17:19:24.000Z</time></trkpt>
        <trkpt lat="28.1171088" lon="105.9461372"><ele>486.01</ele><time>2026-03-27T17:19:38.000Z</time></trkpt>
        <trkpt lat="28.1172108" lon="105.9461706"><ele>486.92</ele><time>2026-03-27T17:19:48.000Z</time></trkpt>
        <trkpt lat="28.117306" lon="105.9462038"><ele>488.46</ele><time>2026-03-27T17:19:58.000Z</time></trkpt>
        <trkpt lat="28.117387" lon="105.9462534"><ele>491</ele><time>2026-03-27T17:20:06.000Z</time></trkpt>
        <trkpt lat="28.1174613" lon="105.9463291"><ele>492.75</ele><time>2026-03-27T17:20:16.000Z</time></trkpt>
        <trkpt lat="28.1175341" lon="105.9463995"><ele>493.19</ele><time>2026-03-27T17:20:28.000Z</time></trkpt>
        <trkpt lat="28.1176214" lon="105.9464406"><ele>495.37</ele><time>2026-03-27T17:20:38.000Z</time></trkpt>
        <trkpt lat="28.1177177" lon="105.9464899"><ele>497.74</ele><time>2026-03-27T17:20:50.000Z</time></trkpt>
        <trkpt lat="28.1178131" lon="105.9465362"><ele>499.64</ele><time>2026-03-27T17:21:00.000Z</time></trkpt>
        <trkpt lat="28.1179109" lon="105.9465858"><ele>501.48</ele><time>2026-03-27T17:21:10.000Z</time></trkpt>
        <trkpt lat="28.1180134" lon="105.9466232"><ele>502.5</ele><time>2026-03-27T17:21:22.000Z</time></trkpt>
        <trkpt lat="28.1181167" lon="105.9466302"><ele>503.72</ele><time>2026-03-27T17:21:32.000Z</time></trkpt>
        <trkpt lat="28.1182164" lon="105.9466071"><ele>505.97</ele><time>2026-03-27T17:21:40.000Z</time></trkpt>
        <trkpt lat="28.1182747" lon="105.9465558"><ele>507.49</ele><time>2026-03-27T17:21:48.000Z</time></trkpt>
        <trkpt lat="28.1183453" lon="105.9464887"><ele>507.5</ele><time>2026-03-27T17:22:06.000Z</time></trkpt>
        <trkpt lat="28.118428" lon="105.9464242"><ele>507.63</ele><time>2026-03-27T17:22:18.000Z</time></trkpt>
        <trkpt lat="28.1185267" lon="105.9464095"><ele>508</ele><time>2026-03-27T17:22:28.000Z</time></trkpt>
        <trkpt lat="28.118624" lon="105.9463727"><ele>509.13</ele><time>2026-03-27T17:22:40.000Z</time></trkpt>
        <trkpt lat="28.118708" lon="105.9463103"><ele>510</ele><time>2026-03-27T17:22:52.000Z</time></trkpt>
        <trkpt lat="28.1187993" lon="105.9462726"><ele>509.74</ele><time>2026-03-27T17:23:24.000Z</time></trkpt>
        <trkpt lat="28.1186686" lon="105.9463117"><ele>508.71</ele><time>2026-03-27T17:24:34.000Z</time></trkpt>
        <trkpt lat="28.1186771" lon="105.9464214"><ele>508.56</ele><time>2026-03-27T17:24:44.000Z</time></trkpt>
        <trkpt lat="28.1186956" lon="105.9463516"><ele>508.5</ele><time>2026-03-27T17:25:04.000Z</time></trkpt>
        <trkpt lat="28.1187978" lon="105.946284"><ele>508.98</ele><time>2026-03-27T17:27:20.000Z</time></trkpt>
        <trkpt lat="28.1188947" lon="105.9462611"><ele>509.02</ele><time>2026-03-27T17:27:30.000Z</time></trkpt>
        <trkpt lat="28.1189873" lon="105.9462276"><ele>509.85</ele><time>2026-03-27T17:27:40.000Z</time></trkpt>
        <trkpt lat="28.1190776" lon="105.9461714"><ele>510.9</ele><time>2026-03-27T17:27:50.000Z</time></trkpt>
        <trkpt lat="28.1191636" lon="105.9461211"><ele>511.44</ele><time>2026-03-27T17:28:00.000Z</time></trkpt>
        <trkpt lat="28.119253" lon="105.9460824"><ele>512.04</ele><time>2026-03-27T17:28:10.000Z</time></trkpt>
        <trkpt lat="28.1193301" lon="105.9460547"><ele>512</ele><time>2026-03-27T17:28:22.000Z</time></trkpt>
        <trkpt lat="28.1194144" lon="105.9459888"><ele>511.91</ele><time>2026-03-27T17:28:50.000Z</time></trkpt>
        <trkpt lat="28.1194926" lon="105.9459251"><ele>511.91</ele><time>2026-03-27T17:28:58.000Z</time></trkpt>
        <trkpt lat="28.1194809" lon="105.9459038"><ele>513</ele><time>2026-03-27T17:29:06.000Z</time></trkpt>
        <trkpt lat="28.1195367" lon="105.9459109"><ele>513.22</ele><time>2026-03-27T17:29:18.000Z</time></trkpt>
        <trkpt lat="28.1196321" lon="105.9459016"><ele>512.64</ele><time>2026-03-27T17:29:28.000Z</time></trkpt>
        <trkpt lat="28.1197434" lon="105.9458917"><ele>512.03</ele><time>2026-03-27T17:29:36.000Z</time></trkpt>
        <trkpt lat="28.1198498" lon="105.9458766"><ele>512.2</ele><time>2026-03-27T17:29:44.000Z</time></trkpt>
        <trkpt lat="28.1199523" lon="105.945897"><ele>511.57</ele><time>2026-03-27T17:29:56.000Z</time></trkpt>
        <trkpt lat="28.120059" lon="105.9458957"><ele>509.2</ele><time>2026-03-27T17:30:06.000Z</time></trkpt>
        <trkpt lat="28.1201556" lon="105.9458987"><ele>507.86</ele><time>2026-03-27T17:30:14.000Z</time></trkpt>
        <trkpt lat="28.1202464" lon="105.9459134"><ele>506.64</ele><time>2026-03-27T17:30:22.000Z</time></trkpt>
        <trkpt lat="28.1203307" lon="105.9459541"><ele>506.58</ele><time>2026-03-27T17:30:30.000Z</time></trkpt>
        <trkpt lat="28.1203893" lon="105.9460314"><ele>507.21</ele><time>2026-03-27T17:30:38.000Z</time></trkpt>
        <trkpt lat="28.1204043" lon="105.9460818"><ele>507.59</ele><time>2026-03-27T17:30:44.000Z</time></trkpt>
        <trkpt lat="28.1203768" lon="105.9460183"><ele>506.75</ele><time>2026-03-27T17:31:30.000Z</time></trkpt>
        <trkpt lat="28.1203085" lon="105.9459384"><ele>507.19</ele><time>2026-03-27T17:31:44.000Z</time></trkpt>
        <trkpt lat="28.1203252" lon="105.9459686"><ele>506.52</ele><time>2026-03-27T17:32:38.000Z</time></trkpt>
        <trkpt lat="28.1203841" lon="105.9460392"><ele>505.22</ele><time>2026-03-27T17:32:48.000Z</time></trkpt>
        <trkpt lat="28.1204755" lon="105.9461126"><ele>502.63</ele><time>2026-03-27T17:32:58.000Z</time></trkpt>
        <trkpt lat="28.1205641" lon="105.946181"><ele>500.69</ele><time>2026-03-27T17:33:06.000Z</time></trkpt>
        <trkpt lat="28.1206507" lon="105.9462414"><ele>500.81</ele><time>2026-03-27T17:33:14.000Z</time></trkpt>
        <trkpt lat="28.1207417" lon="105.9462829"><ele>501.71</ele><time>2026-03-27T17:33:48.000Z</time></trkpt>
        <trkpt lat="28.1208361" lon="105.9462955"><ele>502.78</ele><time>2026-03-27T17:33:56.000Z</time></trkpt>
        <trkpt lat="28.1209391" lon="105.9463002"><ele>503.15</ele><time>2026-03-27T17:34:06.000Z</time></trkpt>
        <trkpt lat="28.1210368" lon="105.9463247"><ele>503.23</ele><time>2026-03-27T17:34:16.000Z</time></trkpt>
        <trkpt lat="28.1211145" lon="105.9463843"><ele>501.97</ele><time>2026-03-27T17:34:24.000Z</time></trkpt>
        <trkpt lat="28.1211932" lon="105.9464521"><ele>504.61</ele><time>2026-03-27T17:34:32.000Z</time></trkpt>
        <trkpt lat="28.1212879" lon="105.946479"><ele>508.13</ele><time>2026-03-27T17:34:44.000Z</time></trkpt>
        <trkpt lat="28.1213812" lon="105.9465046"><ele>511.16</ele><time>2026-03-27T17:34:54.000Z</time></trkpt>
        <trkpt lat="28.1214836" lon="105.9465689"><ele>510.84</ele><time>2026-03-27T17:35:04.000Z</time></trkpt>
        <trkpt lat="28.1215715" lon="105.9466266"><ele>511.11</ele><time>2026-03-27T17:35:12.000Z</time></trkpt>
        <trkpt lat="28.1216604" lon="105.9466741"><ele>512.51</ele><time>2026-03-27T17:35:20.000Z</time></trkpt>
        <trkpt lat="28.1217435" lon="105.9467458"><ele>514.45</ele><time>2026-03-27T17:35:30.000Z</time></trkpt>
        <trkpt lat="28.1218275" lon="105.9468075"><ele>515.11</ele><time>2026-03-27T17:35:40.000Z</time></trkpt>
        <trkpt lat="28.1218955" lon="105.9468875"><ele>515.25</ele><time>2026-03-27T17:35:50.000Z</time></trkpt>
        <trkpt lat="28.1219525" lon="105.9469823"><ele>515.3</ele><time>2026-03-27T17:36:00.000Z</time></trkpt>
        <trkpt lat="28.1220097" lon="105.9470953"><ele>515.5</ele><time>2026-03-27T17:36:14.000Z</time></trkpt>
        <trkpt lat="28.1220621" lon="105.9471942"><ele>515.62</ele><time>2026-03-27T17:36:22.000Z</time></trkpt>
        <trkpt lat="28.1221306" lon="105.9472804"><ele>515.76</ele><time>2026-03-27T17:36:32.000Z</time></trkpt>
        <trkpt lat="28.122205" lon="105.9473553"><ele>515.78</ele><time>2026-03-27T17:36:40.000Z</time></trkpt>
        <trkpt lat="28.1222821" lon="105.9474123"><ele>515.98</ele><time>2026-03-27T17:36:48.000Z</time></trkpt>
        <trkpt lat="28.1223662" lon="105.9474528"><ele>516.86</ele><time>2026-03-27T17:36:56.000Z</time></trkpt>
        <trkpt lat="28.1224629" lon="105.9474922"><ele>518.89</ele><time>2026-03-27T17:37:06.000Z</time></trkpt>
        <trkpt lat="28.1225621" lon="105.947544"><ele>520.5</ele><time>2026-03-27T17:37:18.000Z</time></trkpt>
        <trkpt lat="28.1226525" lon="105.947611"><ele>521.8</ele><time>2026-03-27T17:37:28.000Z</time></trkpt>
        <trkpt lat="28.1227484" lon="105.9476524"><ele>522.89</ele><time>2026-03-27T17:37:38.000Z</time></trkpt>
        <trkpt lat="28.1228148" lon="105.9475909"><ele>524.07</ele><time>2026-03-27T17:37:48.000Z</time></trkpt>
        <trkpt lat="28.1228231" lon="105.9474826"><ele>525.53</ele><time>2026-03-27T17:37:56.000Z</time></trkpt>
        <trkpt lat="28.1227936" lon="105.9473648"><ele>528.13</ele><time>2026-03-27T17:38:06.000Z</time></trkpt>
        <trkpt lat="28.1227774" lon="105.9472452"><ele>529.6</ele><time>2026-03-27T17:38:18.000Z</time></trkpt>
        <trkpt lat="28.1228117" lon="105.9471483"><ele>530.1</ele><time>2026-03-27T17:38:28.000Z</time></trkpt>
        <trkpt lat="28.1228735" lon="105.9470482"><ele>530.76</ele><time>2026-03-27T17:38:40.000Z</time></trkpt>
        <trkpt lat="28.1229293" lon="105.946952"><ele>530.52</ele><time>2026-03-27T17:38:50.000Z</time></trkpt>
        <trkpt lat="28.1229708" lon="105.946892"><ele>531.76</ele><time>2026-03-27T17:38:56.000Z</time></trkpt>
        <trkpt lat="28.1229467" lon="105.946793"><ele>533.33</ele><time>2026-03-27T17:40:36.000Z</time></trkpt>
        <trkpt lat="28.1229076" lon="105.9466876"><ele>536.2</ele><time>2026-03-27T17:40:46.000Z</time></trkpt>
        <trkpt lat="28.1228804" lon="105.9465866"><ele>536.9</ele><time>2026-03-27T17:41:34.000Z</time></trkpt>
        <trkpt lat="28.1228919" lon="105.9464761"><ele>537.63</ele><time>2026-03-27T17:42:18.000Z</time></trkpt>
        <trkpt lat="28.122902" lon="105.9463686"><ele>536.85</ele><time>2026-03-27T17:42:30.000Z</time></trkpt>
        <trkpt lat="28.1229337" lon="105.9462607"><ele>536.16</ele><time>2026-03-27T17:42:42.000Z</time></trkpt>
        <trkpt lat="28.1229743" lon="105.9461618"><ele>533.86</ele><time>2026-03-27T17:42:50.000Z</time></trkpt>
        <trkpt lat="28.1230318" lon="105.9460765"><ele>532.46</ele><time>2026-03-27T17:42:58.000Z</time></trkpt>
        <trkpt lat="28.1230946" lon="105.9459853"><ele>531.95</ele><time>2026-03-27T17:43:08.000Z</time></trkpt>
        <trkpt lat="28.1231687" lon="105.9458876"><ele>531.4</ele><time>2026-03-27T17:43:18.000Z</time></trkpt>
        <trkpt lat="28.1232486" lon="105.9458046"><ele>531.49</ele><time>2026-03-27T17:43:28.000Z</time></trkpt>
        <trkpt lat="28.1233438" lon="105.945808"><ele>531.76</ele><time>2026-03-27T17:43:38.000Z</time></trkpt>
        <trkpt lat="28.1234321" lon="105.9458562"><ele>530.98</ele><time>2026-03-27T17:43:46.000Z</time></trkpt>
        <trkpt lat="28.1235187" lon="105.9458455"><ele>531.09</ele><time>2026-03-27T17:43:56.000Z</time></trkpt>
        <trkpt lat="28.1236091" lon="105.9458652"><ele>532.96</ele><time>2026-03-27T17:44:04.000Z</time></trkpt>
        <trkpt lat="28.1236908" lon="105.9458163"><ele>533.52</ele><time>2026-03-27T17:44:16.000Z</time></trkpt>
        <trkpt lat="28.1237357" lon="105.9457258"><ele>535.51</ele><time>2026-03-27T17:44:26.000Z</time></trkpt>
        <trkpt lat="28.1238017" lon="105.9456538"><ele>536.89</ele><time>2026-03-27T17:44:36.000Z</time></trkpt>
        <trkpt lat="28.1238919" lon="105.9456117"><ele>538.78</ele><time>2026-03-27T17:45:36.000Z</time></trkpt>
        <trkpt lat="28.1239896" lon="105.9455902"><ele>539.7</ele><time>2026-03-27T17:45:44.000Z</time></trkpt>
        <trkpt lat="28.1240342" lon="105.9455105"><ele>538.77</ele><time>2026-03-27T17:45:56.000Z</time></trkpt>
        <trkpt lat="28.123969" lon="105.9454296"><ele>537.88</ele><time>2026-03-27T17:46:04.000Z</time></trkpt>
        <trkpt lat="28.1238664" lon="105.945365"><ele>538.87</ele><time>2026-03-27T17:46:12.000Z</time></trkpt>
        <trkpt lat="28.1237925" lon="105.945267"><ele>539.86</ele><time>2026-03-27T17:46:22.000Z</time></trkpt>
        <trkpt lat="28.1237681" lon="105.9451459"><ele>541.29</ele><time>2026-03-27T17:46:30.000Z</time></trkpt>
        <trkpt lat="28.1237627" lon="105.9450235"><ele>541.83</ele><time>2026-03-27T17:46:38.000Z</time></trkpt>
        <trkpt lat="28.1237645" lon="105.9449017"><ele>542.81</ele><time>2026-03-27T17:46:50.000Z</time></trkpt>
        <trkpt lat="28.1237611" lon="105.9447812"><ele>543.45</ele><time>2026-03-27T17:47:10.000Z</time></trkpt>
        <trkpt lat="28.1237688" lon="105.9447343"><ele>543.12</ele><time>2026-03-27T17:47:14.000Z</time></trkpt>
        <trkpt lat="28.1237423" lon="105.9446517"><ele>543.16</ele><time>2026-03-27T17:47:26.000Z</time></trkpt>
        <trkpt lat="28.1236914" lon="105.9445584"><ele>542.92</ele><time>2026-03-27T17:47:40.000Z</time></trkpt>
        <trkpt lat="28.1236644" lon="105.944457"><ele>544.43</ele><time>2026-03-27T17:47:52.000Z</time></trkpt>
        <trkpt lat="28.1236092" lon="105.9443638"><ele>546.68</ele><time>2026-03-27T17:48:04.000Z</time></trkpt>
        <trkpt lat="28.123579" lon="105.9442617"><ele>548.92</ele><time>2026-03-27T17:48:14.000Z</time></trkpt>
        <trkpt lat="28.1235202" lon="105.9441703"><ele>552.25</ele><time>2026-03-27T17:48:24.000Z</time></trkpt>
        <trkpt lat="28.123455" lon="105.9440873"><ele>555.37</ele><time>2026-03-27T17:48:32.000Z</time></trkpt>
        <trkpt lat="28.1234071" lon="105.9439821"><ele>558.47</ele><time>2026-03-27T17:48:42.000Z</time></trkpt>
        <trkpt lat="28.1233412" lon="105.9438877"><ele>560.33</ele><time>2026-03-27T17:48:52.000Z</time></trkpt>
        <trkpt lat="28.1232723" lon="105.9437907"><ele>562.37</ele><time>2026-03-27T17:49:04.000Z</time></trkpt>
        <trkpt lat="28.1232156" lon="105.9437013"><ele>564.28</ele><time>2026-03-27T17:49:16.000Z</time></trkpt>
        <trkpt lat="28.1232783" lon="105.9436958"><ele>565.94</ele><time>2026-03-27T17:49:42.000Z</time></trkpt>
        <trkpt lat="28.1233756" lon="105.9437408"><ele>566.07</ele><time>2026-03-27T17:49:54.000Z</time></trkpt>
        <trkpt lat="28.123482" lon="105.9437907"><ele>566.66</ele><time>2026-03-27T17:50:06.000Z</time></trkpt>
        <trkpt lat="28.1235836" lon="105.9438405"><ele>567.51</ele><time>2026-03-27T17:50:18.000Z</time></trkpt>
        <trkpt lat="28.1236743" lon="105.9439043"><ele>568.45</ele><time>2026-03-27T17:50:30.000Z</time></trkpt>
        <trkpt lat="28.1237538" lon="105.9439831"><ele>569.81</ele><time>2026-03-27T17:50:42.000Z</time></trkpt>
        <trkpt lat="28.123832" lon="105.9440643"><ele>571.05</ele><time>2026-03-27T17:50:54.000Z</time></trkpt>
        <trkpt lat="28.1239151" lon="105.944123"><ele>573.34</ele><time>2026-03-27T17:51:04.000Z</time></trkpt>
        <trkpt lat="28.1239974" lon="105.9441706"><ele>575.2</ele><time>2026-03-27T17:51:14.000Z</time></trkpt>
        <trkpt lat="28.1240835" lon="105.9442183"><ele>578.1</ele><time>2026-03-27T17:51:22.000Z</time></trkpt>
        <trkpt lat="28.1241628" lon="105.9442765"><ele>581.23</ele><time>2026-03-27T17:51:32.000Z</time></trkpt>
        <trkpt lat="28.1242416" lon="105.9443558"><ele>583.34</ele><time>2026-03-27T17:51:52.000Z</time></trkpt>
        <trkpt lat="28.1243326" lon="105.9444001"><ele>585.19</ele><time>2026-03-27T17:52:00.000Z</time></trkpt>
        <trkpt lat="28.1244278" lon="105.9444368"><ele>587.86</ele><time>2026-03-27T17:52:10.000Z</time></trkpt>
        <trkpt lat="28.1245148" lon="105.944476"><ele>590.03</ele><time>2026-03-27T17:52:22.000Z</time></trkpt>
        <trkpt lat="28.1246058" lon="105.9445314"><ele>592.3</ele><time>2026-03-27T17:53:24.000Z</time></trkpt>
        <trkpt lat="28.1247013" lon="105.9445887"><ele>592.36</ele><time>2026-03-27T17:53:38.000Z</time></trkpt>
        <trkpt lat="28.1247809" lon="105.9446641"><ele>592.53</ele><time>2026-03-27T17:53:48.000Z</time></trkpt>
        <trkpt lat="28.1248508" lon="105.9447364"><ele>592.63</ele><time>2026-03-27T17:53:56.000Z</time></trkpt>
        <trkpt lat="28.1249101" lon="105.9448178"><ele>592.89</ele><time>2026-03-27T17:54:04.000Z</time></trkpt>
        <trkpt lat="28.124965" lon="105.9449136"><ele>593.66</ele><time>2026-03-27T17:54:12.000Z</time></trkpt>
        <trkpt lat="28.1250215" lon="105.9450163"><ele>594.76</ele><time>2026-03-27T17:54:22.000Z</time></trkpt>
        <trkpt lat="28.1250907" lon="105.9451004"><ele>596.66</ele><time>2026-03-27T17:54:32.000Z</time></trkpt>
        <trkpt lat="28.1251689" lon="105.94518"><ele>598.25</ele><time>2026-03-27T17:54:42.000Z</time></trkpt>
        <trkpt lat="28.1252466" lon="105.9452453"><ele>600.06</ele><time>2026-03-27T17:54:50.000Z</time></trkpt>
        <trkpt lat="28.1253289" lon="105.9453127"><ele>601.53</ele><time>2026-03-27T17:55:00.000Z</time></trkpt>
        <trkpt lat="28.1254055" lon="105.9453765"><ele>603.18</ele><time>2026-03-27T17:55:10.000Z</time></trkpt>
        <trkpt lat="28.1254809" lon="105.9454464"><ele>604.02</ele><time>2026-03-27T17:55:20.000Z</time></trkpt>
        <trkpt lat="28.1255622" lon="105.9455007"><ele>605</ele><time>2026-03-27T17:55:28.000Z</time></trkpt>
        <trkpt lat="28.1256545" lon="105.9455226"><ele>606.75</ele><time>2026-03-27T17:55:38.000Z</time></trkpt>
        <trkpt lat="28.1257391" lon="105.9455586"><ele>608.04</ele><time>2026-03-27T17:55:48.000Z</time></trkpt>
        <trkpt lat="28.1258257" lon="105.9456131"><ele>608.79</ele><time>2026-03-27T17:55:56.000Z</time></trkpt>
        <trkpt lat="28.1259249" lon="105.9456491"><ele>609.86</ele><time>2026-03-27T17:56:08.000Z</time></trkpt>
        <trkpt lat="28.126012" lon="105.9456931"><ele>610.71</ele><time>2026-03-27T17:56:16.000Z</time></trkpt>
        <trkpt lat="28.1260981" lon="105.945763"><ele>612.35</ele><time>2026-03-27T17:56:26.000Z</time></trkpt>
        <trkpt lat="28.1261727" lon="105.9458485"><ele>614.53</ele><time>2026-03-27T17:56:36.000Z</time></trkpt>
        <trkpt lat="28.12625" lon="105.9459264"><ele>616.57</ele><time>2026-03-27T17:56:48.000Z</time></trkpt>
        <trkpt lat="28.1263174" lon="105.9460057"><ele>617.84</ele><time>2026-03-27T17:56:58.000Z</time></trkpt>
        <trkpt lat="28.1263641" lon="105.9461023"><ele>619.3</ele><time>2026-03-27T17:57:08.000Z</time></trkpt>
        <trkpt lat="28.1263955" lon="105.9462045"><ele>620.82</ele><time>2026-03-27T17:57:16.000Z</time></trkpt>
        <trkpt lat="28.1264152" lon="105.9463205"><ele>623.16</ele><time>2026-03-27T17:57:28.000Z</time></trkpt>
        <trkpt lat="28.1264288" lon="105.9464381"><ele>624.44</ele><time>2026-03-27T17:57:38.000Z</time></trkpt>
        <trkpt lat="28.1264518" lon="105.9465473"><ele>625.85</ele><time>2026-03-27T17:57:46.000Z</time></trkpt>
        <trkpt lat="28.1264681" lon="105.9466509"><ele>627.54</ele><time>2026-03-27T17:57:58.000Z</time></trkpt>
        <trkpt lat="28.1264388" lon="105.9467439"><ele>627.77</ele><time>2026-03-27T17:58:16.000Z</time></trkpt>
        <trkpt lat="28.1264244" lon="105.9468454"><ele>629.2</ele><time>2026-03-27T17:58:30.000Z</time></trkpt>
        <trkpt lat="28.1263737" lon="105.9469388"><ele>630.81</ele><time>2026-03-27T17:58:44.000Z</time></trkpt>
        <trkpt lat="28.126315" lon="105.9470308"><ele>632.58</ele><time>2026-03-27T17:58:56.000Z</time></trkpt>
        <trkpt lat="28.1262572" lon="105.9471187"><ele>634.46</ele><time>2026-03-27T17:59:06.000Z</time></trkpt>
        <trkpt lat="28.1261978" lon="105.9472105"><ele>636.29</ele><time>2026-03-27T17:59:16.000Z</time></trkpt>
        <trkpt lat="28.1261725" lon="105.9473171"><ele>637.85</ele><time>2026-03-27T17:59:28.000Z</time></trkpt>
        <trkpt lat="28.126248" lon="105.9473536"><ele>638.54</ele><time>2026-03-27T17:59:40.000Z</time></trkpt>
        <trkpt lat="28.1263401" lon="105.9473151"><ele>639.79</ele><time>2026-03-27T17:59:50.000Z</time></trkpt>
        <trkpt lat="28.1264351" lon="105.9472605"><ele>641.43</ele><time>2026-03-27T18:00:00.000Z</time></trkpt>
        <trkpt lat="28.1265436" lon="105.9472223"><ele>643.32</ele><time>2026-03-27T18:00:10.000Z</time></trkpt>
        <trkpt lat="28.1266566" lon="105.9471982"><ele>644.82</ele><time>2026-03-27T18:00:18.000Z</time></trkpt>
        <trkpt lat="28.126757" lon="105.9471678"><ele>645.78</ele><time>2026-03-27T18:00:28.000Z</time></trkpt>
        <trkpt lat="28.1268442" lon="105.9471111"><ele>645.57</ele><time>2026-03-27T18:00:38.000Z</time></trkpt>
        <trkpt lat="28.1269156" lon="105.9470358"><ele>646.52</ele><time>2026-03-27T18:00:48.000Z</time></trkpt>
        <trkpt lat="28.1269427" lon="105.9469731"><ele>648.07</ele><time>2026-03-27T18:00:56.000Z</time></trkpt>
        <trkpt lat="28.1269711" lon="105.9468746"><ele>649.31</ele><time>2026-03-27T18:01:58.000Z</time></trkpt>
        <trkpt lat="28.1270304" lon="105.9467773"><ele>651.55</ele><time>2026-03-27T18:02:12.000Z</time></trkpt>
        <trkpt lat="28.1270718" lon="105.9466767"><ele>652.98</ele><time>2026-03-27T18:02:24.000Z</time></trkpt>
        <trkpt lat="28.127111" lon="105.9465713"><ele>653.84</ele><time>2026-03-27T18:02:36.000Z</time></trkpt>
        <trkpt lat="28.1271377" lon="105.9464609"><ele>655.4</ele><time>2026-03-27T18:02:46.000Z</time></trkpt>
        <trkpt lat="28.1271439" lon="105.9463433"><ele>657.16</ele><time>2026-03-27T18:02:58.000Z</time></trkpt>
        <trkpt lat="28.1271524" lon="105.9462298"><ele>657.8</ele><time>2026-03-27T18:03:10.000Z</time></trkpt>
        <trkpt lat="28.1271623" lon="105.9461221"><ele>659.07</ele><time>2026-03-27T18:03:20.000Z</time></trkpt>
        <trkpt lat="28.1271504" lon="105.9460052"><ele>660.75</ele><time>2026-03-27T18:03:32.000Z</time></trkpt>
        <trkpt lat="28.1271257" lon="105.9458919"><ele>661.83</ele><time>2026-03-27T18:03:42.000Z</time></trkpt>
        <trkpt lat="28.1271056" lon="105.9457861"><ele>662.91</ele><time>2026-03-27T18:03:52.000Z</time></trkpt>
        <trkpt lat="28.1270648" lon="105.9456803"><ele>664.76</ele><time>2026-03-27T18:04:04.000Z</time></trkpt>
        <trkpt lat="28.127059" lon="105.9455673"><ele>665.36</ele><time>2026-03-27T18:04:26.000Z</time></trkpt>
        <trkpt lat="28.1270557" lon="105.9454854"><ele>667.79</ele><time>2026-03-27T18:04:40.000Z</time></trkpt>
        <trkpt lat="28.1271179" lon="105.9454329"><ele>668.97</ele><time>2026-03-27T18:05:00.000Z</time></trkpt>
        <trkpt lat="28.1271658" lon="105.9454987"><ele>669.31</ele><time>2026-03-27T18:05:34.000Z</time></trkpt>
        <trkpt lat="28.127183" lon="105.945533"><ele>670.63</ele><time>2026-03-27T18:05:36.000Z</time></trkpt>
        <trkpt lat="28.1271886" lon="105.9456567"><ele>671.67</ele><time>2026-03-27T18:06:50.000Z</time></trkpt>
        <trkpt lat="28.1272621" lon="105.9457196"><ele>673.8</ele><time>2026-03-27T18:07:02.000Z</time></trkpt>
        <trkpt lat="28.1273367" lon="105.9457842"><ele>676.33</ele><time>2026-03-27T18:07:18.000Z</time></trkpt>
        <trkpt lat="28.1273895" lon="105.9458701"><ele>678.32</ele><time>2026-03-27T18:07:32.000Z</time></trkpt>
        <trkpt lat="28.1274583" lon="105.9459474"><ele>680.9</ele><time>2026-03-27T18:07:46.000Z</time></trkpt>
        <trkpt lat="28.1275117" lon="105.9460383"><ele>682.19</ele><time>2026-03-27T18:07:58.000Z</time></trkpt>
        <trkpt lat="28.1275386" lon="105.9461454"><ele>682.91</ele><time>2026-03-27T18:08:08.000Z</time></trkpt>
        <trkpt lat="28.1275846" lon="105.9461088"><ele>685.37</ele><time>2026-03-27T18:08:28.000Z</time></trkpt>
        <trkpt lat="28.1275752" lon="105.9459987"><ele>688.45</ele><time>2026-03-27T18:08:42.000Z</time></trkpt>
        <trkpt lat="28.1275488" lon="105.9458787"><ele>689.8</ele><time>2026-03-27T18:08:52.000Z</time></trkpt>
        <trkpt lat="28.127564" lon="105.9457637"><ele>690.43</ele><time>2026-03-27T18:09:24.000Z</time></trkpt>
        <trkpt lat="28.1276403" lon="105.9456912"><ele>691.65</ele><time>2026-03-27T18:10:20.000Z</time></trkpt>
        <trkpt lat="28.1277414" lon="105.9456563"><ele>692.47</ele><time>2026-03-27T18:10:30.000Z</time></trkpt>
        <trkpt lat="28.1278345" lon="105.9456135"><ele>692.73</ele><time>2026-03-27T18:10:40.000Z</time></trkpt>
        <trkpt lat="28.1279412" lon="105.945596"><ele>692.17</ele><time>2026-03-27T18:10:50.000Z</time></trkpt>
        <trkpt lat="28.1280442" lon="105.9456035"><ele>691.31</ele><time>2026-03-27T18:11:00.000Z</time></trkpt>
        <trkpt lat="28.1281462" lon="105.9456205"><ele>689.61</ele><time>2026-03-27T18:11:10.000Z</time></trkpt>
        <trkpt lat="28.1282403" lon="105.9456302"><ele>689.66</ele><time>2026-03-27T18:11:24.000Z</time></trkpt>
        <trkpt lat="28.1283376" lon="105.9456731"><ele>689.92</ele><time>2026-03-27T18:11:34.000Z</time></trkpt>
        <trkpt lat="28.1284114" lon="105.9457586"><ele>689.9</ele><time>2026-03-27T18:11:44.000Z</time></trkpt>
        <trkpt lat="28.1284566" lon="105.9458263"><ele>690.28</ele><time>2026-03-27T18:11:52.000Z</time></trkpt>
        <trkpt lat="28.1285361" lon="105.9458402"><ele>690.96</ele><time>2026-03-27T18:12:48.000Z</time></trkpt>
        <trkpt lat="28.1286275" lon="105.9458479"><ele>690.6</ele><time>2026-03-27T18:13:00.000Z</time></trkpt>
        <trkpt lat="28.1287198" lon="105.9458418"><ele>691.19</ele><time>2026-03-27T18:13:10.000Z</time></trkpt>
        <trkpt lat="28.128774" lon="105.9458482"><ele>691.52</ele><time>2026-03-27T18:13:18.000Z</time></trkpt>
        <trkpt lat="28.1288559" lon="105.9458796"><ele>691.82</ele><time>2026-03-27T18:13:42.000Z</time></trkpt>
        <trkpt lat="28.1289563" lon="105.9459167"><ele>692.23</ele><time>2026-03-27T18:13:54.000Z</time></trkpt>
        <trkpt lat="28.1290593" lon="105.9459697"><ele>692.45</ele><time>2026-03-27T18:14:04.000Z</time></trkpt>
        <trkpt lat="28.1291451" lon="105.9460415"><ele>692.48</ele><time>2026-03-27T18:14:14.000Z</time></trkpt>
        <trkpt lat="28.1292339" lon="105.9461079"><ele>692.14</ele><time>2026-03-27T18:14:24.000Z</time></trkpt>
        <trkpt lat="28.1293149" lon="105.946164"><ele>692.63</ele><time>2026-03-27T18:14:34.000Z</time></trkpt>
        <trkpt lat="28.1293971" lon="105.9462181"><ele>693.56</ele><time>2026-03-27T18:14:44.000Z</time></trkpt>
        <trkpt lat="28.1294733" lon="105.946267"><ele>692.61</ele><time>2026-03-27T18:14:58.000Z</time></trkpt>
        <trkpt lat="28.1295592" lon="105.9462485"><ele>692.92</ele><time>2026-03-27T18:15:16.000Z</time></trkpt>
        <trkpt lat="28.1296526" lon="105.9462235"><ele>691.65</ele><time>2026-03-27T18:15:28.000Z</time></trkpt>
        <trkpt lat="28.1297434" lon="105.9462439"><ele>691.02</ele><time>2026-03-27T18:15:42.000Z</time></trkpt>
        <trkpt lat="28.1298354" lon="105.9462637"><ele>692.02</ele><time>2026-03-27T18:15:56.000Z</time></trkpt>
        <trkpt lat="28.1299287" lon="105.9462553"><ele>694.28</ele><time>2026-03-27T18:16:12.000Z</time></trkpt>
        <trkpt lat="28.1299992" lon="105.9461948"><ele>695.91</ele><time>2026-03-27T18:16:26.000Z</time></trkpt>
        <trkpt lat="28.1300744" lon="105.9461357"><ele>698.82</ele><time>2026-03-27T18:16:44.000Z</time></trkpt>
        <trkpt lat="28.1301517" lon="105.9460733"><ele>702.16</ele><time>2026-03-27T18:17:04.000Z</time></trkpt>
        <trkpt lat="28.1302407" lon="105.9460224"><ele>707.03</ele><time>2026-03-27T18:17:22.000Z</time></trkpt>
        <trkpt lat="28.1303353" lon="105.9460165"><ele>710.99</ele><time>2026-03-27T18:18:00.000Z</time></trkpt>
        <trkpt lat="28.1304237" lon="105.9459886"><ele>714.79</ele><time>2026-03-27T18:18:18.000Z</time></trkpt>
        <trkpt lat="28.130516" lon="105.9459775"><ele>719.34</ele><time>2026-03-27T18:18:34.000Z</time></trkpt>
        <trkpt lat="28.130599" lon="105.9460302"><ele>721.38</ele><time>2026-03-27T18:18:48.000Z</time></trkpt>
        <trkpt lat="28.1306616" lon="105.9461192"><ele>723.55</ele><time>2026-03-27T18:19:16.000Z</time></trkpt>
        <trkpt lat="28.1307305" lon="105.946198"><ele>726.09</ele><time>2026-03-27T18:19:28.000Z</time></trkpt>
        <trkpt lat="28.1308038" lon="105.9462711"><ele>729.02</ele><time>2026-03-27T18:19:42.000Z</time></trkpt>
        <trkpt lat="28.1309001" lon="105.946261"><ele>731.25</ele><time>2026-03-27T18:19:52.000Z</time></trkpt>
        <trkpt lat="28.1309848" lon="105.9461986"><ele>733.68</ele><time>2026-03-27T18:20:02.000Z</time></trkpt>
        <trkpt lat="28.1310123" lon="105.9460946"><ele>736.96</ele><time>2026-03-27T18:20:18.000Z</time></trkpt>
        <trkpt lat="28.1310873" lon="105.946043"><ele>739.17</ele><time>2026-03-27T18:20:40.000Z</time></trkpt>
        <trkpt lat="28.1311498" lon="105.9459619"><ele>740.16</ele><time>2026-03-27T18:21:00.000Z</time></trkpt>
        <trkpt lat="28.1311435" lon="105.9458653"><ele>741.36</ele><time>2026-03-27T18:21:20.000Z</time></trkpt>
        <trkpt lat="28.1311479" lon="105.9457608"><ele>745.2</ele><time>2026-03-27T18:21:44.000Z</time></trkpt>
        <trkpt lat="28.1311457" lon="105.9456525"><ele>750.87</ele><time>2026-03-27T18:22:04.000Z</time></trkpt>
        <trkpt lat="28.1311862" lon="105.9455576"><ele>754.55</ele><time>2026-03-27T18:22:44.000Z</time></trkpt>
        <trkpt lat="28.1312112" lon="105.9454552"><ele>756.54</ele><time>2026-03-27T18:23:06.000Z</time></trkpt>
        <trkpt lat="28.1312516" lon="105.9453577"><ele>760.01</ele><time>2026-03-27T18:23:22.000Z</time></trkpt>
        <trkpt lat="28.13124" lon="105.9452615"><ele>764.43</ele><time>2026-03-27T18:23:38.000Z</time></trkpt>
        <trkpt lat="28.1312604" lon="105.9451678"><ele>769.83</ele><time>2026-03-27T18:24:10.000Z</time></trkpt>
        <trkpt lat="28.1313091" lon="105.9450823"><ele>772.57</ele><time>2026-03-27T18:24:44.000Z</time></trkpt>
        <trkpt lat="28.1313828" lon="105.9450183"><ele>775.34</ele><time>2026-03-27T18:25:14.000Z</time></trkpt>
        <trkpt lat="28.1314272" lon="105.9450798"><ele>777.76</ele><time>2026-03-27T18:25:47.000Z</time></trkpt>
        <trkpt lat="28.1315158" lon="105.9451351"><ele>781.08</ele><time>2026-03-27T18:26:57.000Z</time></trkpt>
        <trkpt lat="28.1315874" lon="105.9452245"><ele>786.05</ele><time>2026-03-27T18:27:39.000Z</time></trkpt>
        <trkpt lat="28.1316377" lon="105.9453201"><ele>792.7</ele><time>2026-03-27T18:27:59.000Z</time></trkpt>
        <trkpt lat="28.1316821" lon="105.9454171"><ele>799.99</ele><time>2026-03-27T18:28:19.000Z</time></trkpt>
        <trkpt lat="28.1317111" lon="105.9455188"><ele>805.49</ele><time>2026-03-27T18:28:35.000Z</time></trkpt>
        <trkpt lat="28.1317223" lon="105.945629"><ele>809.71</ele><time>2026-03-27T18:28:49.000Z</time></trkpt>
        <trkpt lat="28.131732" lon="105.9457363"><ele>812.32</ele><time>2026-03-27T18:29:03.000Z</time></trkpt>
        <trkpt lat="28.1317648" lon="105.9458324"><ele>815.76</ele><time>2026-03-27T18:29:19.000Z</time></trkpt>
        <trkpt lat="28.131811" lon="105.9459254"><ele>819.19</ele><time>2026-03-27T18:29:45.000Z</time></trkpt>
        <trkpt lat="28.1318956" lon="105.9459778"><ele>821.47</ele><time>2026-03-27T18:30:13.000Z</time></trkpt>
        <trkpt lat="28.1319818" lon="105.9460224"><ele>824.25</ele><time>2026-03-27T18:30:45.000Z</time></trkpt>
        <trkpt lat="28.1320722" lon="105.9460519"><ele>828.55</ele><time>2026-03-27T18:31:37.000Z</time></trkpt>
        <trkpt lat="28.1321718" lon="105.9460615"><ele>832.47</ele><time>2026-03-27T18:31:57.000Z</time></trkpt>
        <trkpt lat="28.1322734" lon="105.9460595"><ele>837.13</ele><time>2026-03-27T18:32:39.000Z</time></trkpt>
        <trkpt lat="28.1323678" lon="105.9460548"><ele>843.01</ele><time>2026-03-27T18:32:55.000Z</time></trkpt>
        <trkpt lat="28.1324581" lon="105.9460475"><ele>848.66</ele><time>2026-03-27T18:39:35.000Z</time></trkpt>
        <trkpt lat="28.1325174" lon="105.9459638"><ele>855.81</ele><time>2026-03-27T18:41:23.000Z</time></trkpt>
        <trkpt lat="28.1326007" lon="105.9459154"><ele>860.95</ele><time>2026-03-27T18:41:43.000Z</time></trkpt>
        <trkpt lat="28.1326802" lon="105.9458592"><ele>865.8</ele><time>2026-03-27T18:41:57.000Z</time></trkpt>
        <trkpt lat="28.1327446" lon="105.9457817"><ele>869.2</ele><time>2026-03-27T18:42:21.000Z</time></trkpt>
        <trkpt lat="28.1327995" lon="105.9456973"><ele>871.58</ele><time>2026-03-27T18:42:35.000Z</time></trkpt>
        <trkpt lat="28.1328793" lon="105.9456497"><ele>874.41</ele><time>2026-03-27T18:42:49.000Z</time></trkpt>
        <trkpt lat="28.1329116" lon="105.945537"><ele>876.97</ele><time>2026-03-27T18:43:00.000Z</time></trkpt>
        <trkpt lat="28.1329645" lon="105.9454411"><ele>878.35</ele><time>2026-03-27T18:43:18.000Z</time></trkpt>
        <trkpt lat="28.1330371" lon="105.9453723"><ele>878.95</ele><time>2026-03-27T18:43:30.000Z</time></trkpt>
        <trkpt lat="28.1331343" lon="105.945348"><ele>878.58</ele><time>2026-03-27T18:43:44.000Z</time></trkpt>
        <trkpt lat="28.1332362" lon="105.9453624"><ele>879.73</ele><time>2026-03-27T18:44:48.000Z</time></trkpt>
        <trkpt lat="28.1333485" lon="105.9453662"><ele>880.6</ele><time>2026-03-27T18:45:08.000Z</time></trkpt>
        <trkpt lat="28.1334517" lon="105.9453781"><ele>881.43</ele><time>2026-03-27T18:45:16.000Z</time></trkpt>
        <trkpt lat="28.1335446" lon="105.9453735"><ele>882.14</ele><time>2026-03-27T18:45:32.000Z</time></trkpt>
        <trkpt lat="28.1336444" lon="105.9453916"><ele>882.05</ele><time>2026-03-27T18:45:46.000Z</time></trkpt>
        <trkpt lat="28.1337462" lon="105.9453965"><ele>885.49</ele><time>2026-03-27T18:46:02.000Z</time></trkpt>
        <trkpt lat="28.1338213" lon="105.9453412"><ele>888.82</ele><time>2026-03-27T18:46:12.000Z</time></trkpt>
        <trkpt lat="28.1338719" lon="105.945241"><ele>890.52</ele><time>2026-03-27T18:46:24.000Z</time></trkpt>
        <trkpt lat="28.1339229" lon="105.945146"><ele>892.04</ele><time>2026-03-27T18:46:36.000Z</time></trkpt>
        <trkpt lat="28.1339144" lon="105.9450382"><ele>892.7</ele><time>2026-03-27T18:46:48.000Z</time></trkpt>
        <trkpt lat="28.1339196" lon="105.9449286"><ele>894.07</ele><time>2026-03-27T18:47:08.000Z</time></trkpt>
        <trkpt lat="28.1339162" lon="105.9448178"><ele>895.38</ele><time>2026-03-27T18:47:20.000Z</time></trkpt>
        <trkpt lat="28.1338626" lon="105.9447348"><ele>898.45</ele><time>2026-03-27T18:47:34.000Z</time></trkpt>
        <trkpt lat="28.1337892" lon="105.944653"><ele>901.83</ele><time>2026-03-27T18:47:46.000Z</time></trkpt>
        <trkpt lat="28.1337099" lon="105.9445791"><ele>904.89</ele><time>2026-03-27T18:47:56.000Z</time></trkpt>
        <trkpt lat="28.1336533" lon="105.9444945"><ele>907.25</ele><time>2026-03-27T18:48:06.000Z</time></trkpt>
        <trkpt lat="28.1336042" lon="105.9443985"><ele>908.88</ele><time>2026-03-27T18:48:18.000Z</time></trkpt>
        <trkpt lat="28.1335618" lon="105.9443005"><ele>909.17</ele><time>2026-03-27T18:48:44.000Z</time></trkpt>
        <trkpt lat="28.1334973" lon="105.9442293"><ele>913.02</ele><time>2026-03-27T18:49:00.000Z</time></trkpt>
        <trkpt lat="28.1335391" lon="105.9442532"><ele>916.14</ele><time>2026-03-27T18:49:36.000Z</time></trkpt>
        <trkpt lat="28.133535" lon="105.9441832"><ele>919.98</ele><time>2026-03-27T18:50:43.000Z</time></trkpt>
        <trkpt lat="28.1335493" lon="105.9440781"><ele>924.01</ele><time>2026-03-27T18:51:38.000Z</time></trkpt>
        <trkpt lat="28.1335643" lon="105.9439739"><ele>928.91</ele><time>2026-03-27T18:53:04.000Z</time></trkpt>
        <trkpt lat="28.133668" lon="105.9439622"><ele>934.3</ele><time>2026-03-27T18:53:42.000Z</time></trkpt>
        <trkpt lat="28.1337534" lon="105.9440093"><ele>941.47</ele><time>2026-03-27T18:53:56.000Z</time></trkpt>
        <trkpt lat="28.133789" lon="105.9439172"><ele>948.18</ele><time>2026-03-27T18:55:55.000Z</time></trkpt>
        <trkpt lat="28.133787" lon="105.9439014"><ele>954.63</ele><time>2026-03-27T18:55:59.000Z</time></trkpt>
        <trkpt lat="28.1338841" lon="105.9439334"><ele>957.82</ele><time>2026-03-27T18:57:27.000Z</time></trkpt>
        <trkpt lat="28.1339235" lon="105.9438323"><ele>963.68</ele><time>2026-03-27T18:57:53.000Z</time></trkpt>
        <trkpt lat="28.1339875" lon="105.9438763"><ele>966.63</ele><time>2026-03-27T18:58:21.000Z</time></trkpt>
        <trkpt lat="28.1340683" lon="105.9439209"><ele>973.01</ele><time>2026-03-27T18:58:37.000Z</time></trkpt>
        <trkpt lat="28.1341577" lon="105.9439624"><ele>976.99</ele><time>2026-03-27T18:58:59.000Z</time></trkpt>
        <trkpt lat="28.1342422" lon="105.9440214"><ele>982.09</ele><time>2026-03-27T18:59:27.000Z</time></trkpt>
        <trkpt lat="28.1342585" lon="105.9439637"><ele>987.23</ele><time>2026-03-27T18:59:45.000Z</time></trkpt>
        <trkpt lat="28.1342281" lon="105.9438677"><ele>990.96</ele><time>2026-03-27T19:00:05.000Z</time></trkpt>
        <trkpt lat="28.1342263" lon="105.9437546"><ele>994.92</ele><time>2026-03-27T19:00:25.000Z</time></trkpt>
        <trkpt lat="28.1342928" lon="105.943715"><ele>997.42</ele><time>2026-03-27T19:00:41.000Z</time></trkpt>
        <trkpt lat="28.134381" lon="105.9436735"><ele>998.59</ele><time>2026-03-27T19:01:03.000Z</time></trkpt>
        <trkpt lat="28.1344408" lon="105.9435876"><ele>1000.51</ele><time>2026-03-27T19:01:21.000Z</time></trkpt>
        <trkpt lat="28.1345135" lon="105.9435144"><ele>1004.82</ele><time>2026-03-27T19:01:41.000Z</time></trkpt>
        <trkpt lat="28.1345663" lon="105.9434287"><ele>1005.71</ele><time>2026-03-27T19:01:59.000Z</time></trkpt>
        <trkpt lat="28.1346371" lon="105.9433656"><ele>1008.13</ele><time>2026-03-27T19:02:15.000Z</time></trkpt>
        <trkpt lat="28.1347216" lon="105.9433071"><ele>1010.86</ele><time>2026-03-27T19:02:29.000Z</time></trkpt>
        <trkpt lat="28.1348017" lon="105.9432503"><ele>1011.79</ele><time>2026-03-27T19:02:39.000Z</time></trkpt>
        <trkpt lat="28.134903" lon="105.9432404"><ele>1011.65</ele><time>2026-03-27T19:02:59.000Z</time></trkpt>
        <trkpt lat="28.1349974" lon="105.9432076"><ele>1013.21</ele><time>2026-03-27T19:03:15.000Z</time></trkpt>
        <trkpt lat="28.1350803" lon="105.9431576"><ele>1015.13</ele><time>2026-03-27T19:03:35.000Z</time></trkpt>
        <trkpt lat="28.1351121" lon="105.9430659"><ele>1018.26</ele><time>2026-03-27T19:04:01.000Z</time></trkpt>
        <trkpt lat="28.1351385" lon="105.9429652"><ele>1023.06</ele><time>2026-03-27T19:04:23.000Z</time></trkpt>
        <trkpt lat="28.135165" lon="105.9428574"><ele>1025.64</ele><time>2026-03-27T19:08:16.000Z</time></trkpt>
        <trkpt lat="28.1352314" lon="105.9427779"><ele>1027.3</ele><time>2026-03-27T19:08:36.000Z</time></trkpt>
        <trkpt lat="28.1352763" lon="105.9426774"><ele>1027.88</ele><time>2026-03-27T19:08:54.000Z</time></trkpt>
        <trkpt lat="28.1353314" lon="105.9425806"><ele>1031.32</ele><time>2026-03-27T19:09:08.000Z</time></trkpt>
        <trkpt lat="28.1353627" lon="105.9424782"><ele>1035.36</ele><time>2026-03-27T19:09:28.000Z</time></trkpt>
        <trkpt lat="28.1353265" lon="105.9423897"><ele>1038.99</ele><time>2026-03-27T19:09:48.000Z</time></trkpt>
        <trkpt lat="28.1352784" lon="105.9422935"><ele>1044.25</ele><time>2026-03-27T19:10:14.000Z</time></trkpt>
        <trkpt lat="28.1352355" lon="105.9421889"><ele>1050.73</ele><time>2026-03-27T19:10:40.000Z</time></trkpt>
        <trkpt lat="28.1352064" lon="105.9420854"><ele>1056.51</ele><time>2026-03-27T19:11:02.000Z</time></trkpt>
        <trkpt lat="28.1351646" lon="105.9419863"><ele>1059.89</ele><time>2026-03-27T19:11:24.000Z</time></trkpt>
        <trkpt lat="28.1351428" lon="105.9418792"><ele>1063.43</ele><time>2026-03-27T19:11:46.000Z</time></trkpt>
        <trkpt lat="28.1351894" lon="105.941787"><ele>1067.29</ele><time>2026-03-27T19:12:12.000Z</time></trkpt>
        <trkpt lat="28.1352471" lon="105.941692"><ele>1070.6</ele><time>2026-03-27T19:12:30.000Z</time></trkpt>
        <trkpt lat="28.1353181" lon="105.9416109"><ele>1074.72</ele><time>2026-03-27T19:15:57.000Z</time></trkpt>
        <trkpt lat="28.1353605" lon="105.9415115"><ele>1080.84</ele><time>2026-03-27T19:16:15.000Z</time></trkpt>
        <trkpt lat="28.1353666" lon="105.9414076"><ele>1084.21</ele><time>2026-03-27T19:16:35.000Z</time></trkpt>
        <trkpt lat="28.1353671" lon="105.9414044"><ele>1088.19</ele><time>2026-03-27T19:16:37.000Z</time></trkpt>
        <trkpt lat="28.1354111" lon="105.941353"><ele>1090.28</ele><time>2026-03-27T19:17:23.000Z</time></trkpt>
        <trkpt lat="28.1354064" lon="105.9412457"><ele>1092.85</ele><time>2026-03-27T19:17:45.000Z</time></trkpt>
        <trkpt lat="28.1354072" lon="105.9411199"><ele>1097.83</ele><time>2026-03-27T19:17:59.000Z</time></trkpt>
        <trkpt lat="28.1353859" lon="105.9409986"><ele>1101.77</ele><time>2026-03-27T19:18:22.000Z</time></trkpt>
        <trkpt lat="28.1354143" lon="105.9408962"><ele>1105.26</ele><time>2026-03-27T19:18:34.000Z</time></trkpt>
        <trkpt lat="28.1354085" lon="105.9408538"><ele>1108.05</ele><time>2026-03-27T19:18:46.000Z</time></trkpt>
        <trkpt lat="28.1353187" lon="105.940838"><ele>1110.42</ele><time>2026-03-27T19:20:18.000Z</time></trkpt>
        <trkpt lat="28.1352664" lon="105.9407452"><ele>1116.76</ele><time>2026-03-27T19:21:40.000Z</time></trkpt>
        <trkpt lat="28.1352478" lon="105.9406424"><ele>1122.79</ele><time>2026-03-27T19:22:02.000Z</time></trkpt>
        <trkpt lat="28.1352562" lon="105.9406151"><ele>1126.99</ele><time>2026-03-27T19:22:04.000Z</time></trkpt>
        <trkpt lat="28.1353205" lon="105.9406532"><ele>1128.97</ele><time>2026-03-27T19:22:22.000Z</time></trkpt>
        <trkpt lat="28.1353875" lon="105.9407325"><ele>1132.51</ele><time>2026-03-27T19:22:36.000Z</time></trkpt>
        <trkpt lat="28.1354755" lon="105.9407918"><ele>1135.07</ele><time>2026-03-27T19:22:48.000Z</time></trkpt>
        <trkpt lat="28.1354522" lon="105.9407571"><ele>1134.32</ele><time>2026-03-27T19:23:08.000Z</time></trkpt>
        <trkpt lat="28.1353885" lon="105.9406803"><ele>1133.4</ele><time>2026-03-27T19:23:26.000Z</time></trkpt>
        <trkpt lat="28.1353111" lon="105.9405955"><ele>1134.7</ele><time>2026-03-27T19:23:38.000Z</time></trkpt>
        <trkpt lat="28.1352484" lon="105.9404943"><ele>1137.64</ele><time>2026-03-27T19:23:50.000Z</time></trkpt>
        <trkpt lat="28.1353018" lon="105.9404954"><ele>1140.72</ele><time>2026-03-27T19:24:20.000Z</time></trkpt>
        <trkpt lat="28.1353829" lon="105.9405718"><ele>1145.43</ele><time>2026-03-27T19:24:36.000Z</time></trkpt>
        <trkpt lat="28.1354114" lon="105.9405229"><ele>1149.62</ele><time>2026-03-27T19:25:12.000Z</time></trkpt>
        <trkpt lat="28.1354864" lon="105.940582"><ele>1151.88</ele><time>2026-03-27T19:30:01.000Z</time></trkpt>
        <trkpt lat="28.1355756" lon="105.9406267"><ele>1151.75</ele><time>2026-03-27T19:30:11.000Z</time></trkpt>
        <trkpt lat="28.1356431" lon="105.9407128"><ele>1150.71</ele><time>2026-03-27T19:30:21.000Z</time></trkpt>
        <trkpt lat="28.1356875" lon="105.9408078"><ele>1150.61</ele><time>2026-03-27T19:30:33.000Z</time></trkpt>
        <trkpt lat="28.1357353" lon="105.940905"><ele>1152.29</ele><time>2026-03-27T19:30:45.000Z</time></trkpt>
        <trkpt lat="28.1357797" lon="105.940998"><ele>1153.07</ele><time>2026-03-27T19:30:53.000Z</time></trkpt>
        <trkpt lat="28.1358375" lon="105.9410905"><ele>1153.33</ele><time>2026-03-27T19:31:03.000Z</time></trkpt>
        <trkpt lat="28.1358939" lon="105.9411857"><ele>1153.34</ele><time>2026-03-27T19:31:13.000Z</time></trkpt>
        <trkpt lat="28.1359487" lon="105.941271"><ele>1153.14</ele><time>2026-03-27T19:31:23.000Z</time></trkpt>
        <trkpt lat="28.1360092" lon="105.9413619"><ele>1152.65</ele><time>2026-03-27T19:31:39.000Z</time></trkpt>
        <trkpt lat="28.1360532" lon="105.941469"><ele>1151.13</ele><time>2026-03-27T19:31:51.000Z</time></trkpt>
        <trkpt lat="28.1361297" lon="105.9415368"><ele>1149.81</ele><time>2026-03-27T19:32:03.000Z</time></trkpt>
        <trkpt lat="28.1362163" lon="105.9415897"><ele>1147.82</ele><time>2026-03-27T19:32:15.000Z</time></trkpt>
        <trkpt lat="28.1363068" lon="105.9416517"><ele>1145.35</ele><time>2026-03-27T19:32:25.000Z</time></trkpt>
        <trkpt lat="28.1363725" lon="105.9417272"><ele>1142.75</ele><time>2026-03-27T19:32:33.000Z</time></trkpt>
        <trkpt lat="28.1364433" lon="105.9418135"><ele>1140.87</ele><time>2026-03-27T19:32:43.000Z</time></trkpt>
        <trkpt lat="28.1365219" lon="105.9418739"><ele>1140.08</ele><time>2026-03-27T19:32:53.000Z</time></trkpt>
        <trkpt lat="28.1366087" lon="105.9418456"><ele>1139.94</ele><time>2026-03-27T19:33:03.000Z</time></trkpt>
        <trkpt lat="28.1366852" lon="105.9418745"><ele>1140.74</ele><time>2026-03-27T19:33:47.000Z</time></trkpt>
        <trkpt lat="28.1367618" lon="105.9419267"><ele>1143.96</ele><time>2026-03-27T19:34:13.000Z</time></trkpt>
        <trkpt lat="28.136825" lon="105.9420007"><ele>1149.58</ele><time>2026-03-27T19:34:33.000Z</time></trkpt>
        <trkpt lat="28.1368628" lon="105.9420973"><ele>1154.96</ele><time>2026-03-27T19:35:03.000Z</time></trkpt>
        <trkpt lat="28.1369029" lon="105.9421924"><ele>1160.4</ele><time>2026-03-27T19:35:31.000Z</time></trkpt>
        <trkpt lat="28.1369467" lon="105.9422939"><ele>1161.07</ele><time>2026-03-27T19:35:47.000Z</time></trkpt>
        <trkpt lat="28.1370248" lon="105.9423408"><ele>1164.18</ele><time>2026-03-27T19:35:59.000Z</time></trkpt>
        <trkpt lat="28.1371074" lon="105.9423875"><ele>1165.46</ele><time>2026-03-27T19:36:15.000Z</time></trkpt>
        <trkpt lat="28.1371768" lon="105.9424554"><ele>1168.67</ele><time>2026-03-27T19:36:49.000Z</time></trkpt>
        <trkpt lat="28.1372721" lon="105.9424811"><ele>1171.62</ele><time>2026-03-27T19:37:05.000Z</time></trkpt>
        <trkpt lat="28.1372982" lon="105.9425609"><ele>1174.86</ele><time>2026-03-27T19:37:19.000Z</time></trkpt>
        <trkpt lat="28.137323" lon="105.9426601"><ele>1177.01</ele><time>2026-03-27T19:37:43.000Z</time></trkpt>
        <trkpt lat="28.1373833" lon="105.9427488"><ele>1179.73</ele><time>2026-03-27T19:38:13.000Z</time></trkpt>
        <trkpt lat="28.1374715" lon="105.9428032"><ele>1181.37</ele><time>2026-03-27T19:38:27.000Z</time></trkpt>
        <trkpt lat="28.1375692" lon="105.9428297"><ele>1182.25</ele><time>2026-03-27T19:38:39.000Z</time></trkpt>
        <trkpt lat="28.1376693" lon="105.9428195"><ele>1183.65</ele><time>2026-03-27T19:38:55.000Z</time></trkpt>
        <trkpt lat="28.1377623" lon="105.9428285"><ele>1184.2</ele><time>2026-03-27T19:39:07.000Z</time></trkpt>
        <trkpt lat="28.1378404" lon="105.942879"><ele>1184.08</ele><time>2026-03-27T19:39:21.000Z</time></trkpt>
        <trkpt lat="28.1378993" lon="105.9429659"><ele>1184.18</ele><time>2026-03-27T19:39:37.000Z</time></trkpt>
        <trkpt lat="28.137933" lon="105.9430706"><ele>1184.68</ele><time>2026-03-27T19:39:55.000Z</time></trkpt>
        <trkpt lat="28.1379637" lon="105.9431836"><ele>1185.45</ele><time>2026-03-27T19:40:11.000Z</time></trkpt>
        <trkpt lat="28.1380271" lon="105.9432571"><ele>1186.01</ele><time>2026-03-27T19:40:25.000Z</time></trkpt>
        <trkpt lat="28.1380475" lon="105.9432724"><ele>1187.85</ele><time>2026-03-27T19:40:27.000Z</time></trkpt>
        <trkpt lat="28.1381191" lon="105.943242"><ele>1188.88</ele><time>2026-03-27T19:41:15.000Z</time></trkpt>
        <trkpt lat="28.1382162" lon="105.943213"><ele>1188.15</ele><time>2026-03-27T19:42:05.000Z</time></trkpt>
        <trkpt lat="28.1383188" lon="105.9432021"><ele>1188.11</ele><time>2026-03-27T19:42:21.000Z</time></trkpt>
        <trkpt lat="28.1382729" lon="105.9431725"><ele>1187.99</ele><time>2026-03-27T19:42:57.000Z</time></trkpt>
        <trkpt lat="28.1381817" lon="105.9432031"><ele>1188.52</ele><time>2026-03-27T19:43:51.000Z</time></trkpt>
        <trkpt lat="28.1380806" lon="105.9432413"><ele>1187.98</ele><time>2026-03-27T19:44:03.000Z</time></trkpt>
        <trkpt lat="28.137967" lon="105.9432125"><ele>1187.57</ele><time>2026-03-27T19:45:45.000Z</time></trkpt>
        <trkpt lat="28.1379208" lon="105.9431105"><ele>1187.55</ele><time>2026-03-27T19:45:59.000Z</time></trkpt>
        <trkpt lat="28.1378926" lon="105.9430104"><ele>1186.98</ele><time>2026-03-27T19:46:13.000Z</time></trkpt>
        <trkpt lat="28.1378572" lon="105.9429066"><ele>1185.86</ele><time>2026-03-27T19:46:27.000Z</time></trkpt>
        <trkpt lat="28.1377891" lon="105.9428297"><ele>1185.06</ele><time>2026-03-27T19:46:41.000Z</time></trkpt>
        <trkpt lat="28.1377003" lon="105.9427966"><ele>1184.14</ele><time>2026-03-27T19:46:53.000Z</time></trkpt>
        <trkpt lat="28.1375967" lon="105.9427964"><ele>1183.52</ele><time>2026-03-27T19:47:07.000Z</time></trkpt>
        <trkpt lat="28.1374983" lon="105.9427951"><ele>1183.06</ele><time>2026-03-27T19:47:19.000Z</time></trkpt>
        <trkpt lat="28.1374011" lon="105.9427637"><ele>1182.76</ele><time>2026-03-27T19:51:11.000Z</time></trkpt>
        <trkpt lat="28.1373116" lon="105.9427119"><ele>1183.29</ele><time>2026-03-27T19:51:21.000Z</time></trkpt>
        <trkpt lat="28.1372199" lon="105.9427134"><ele>1183</ele><time>2026-03-27T19:51:33.000Z</time></trkpt>
        <trkpt lat="28.1371362" lon="105.9427508"><ele>1182.8</ele><time>2026-03-27T19:51:45.000Z</time></trkpt>
        <trkpt lat="28.1370563" lon="105.9428183"><ele>1182.56</ele><time>2026-03-27T19:51:59.000Z</time></trkpt>
        <trkpt lat="28.1370086" lon="105.9429129"><ele>1182.83</ele><time>2026-03-27T19:52:11.000Z</time></trkpt>
        <trkpt lat="28.1370008" lon="105.9430243"><ele>1183.27</ele><time>2026-03-27T19:52:23.000Z</time></trkpt>
        <trkpt lat="28.1370661" lon="105.9431079"><ele>1183.3</ele><time>2026-03-27T19:52:37.000Z</time></trkpt>
        <trkpt lat="28.1371414" lon="105.9431865"><ele>1183.62</ele><time>2026-03-27T19:52:47.000Z</time></trkpt>
        <trkpt lat="28.1372152" lon="105.9432681"><ele>1184.24</ele><time>2026-03-27T19:53:01.000Z</time></trkpt>
        <trkpt lat="28.1372295" lon="105.9433647"><ele>1184</ele><time>2026-03-27T19:53:15.000Z</time></trkpt>
        <trkpt lat="28.1372109" lon="105.9434656"><ele>1183.81</ele><time>2026-03-27T19:53:27.000Z</time></trkpt>
        <trkpt lat="28.1371803" lon="105.9435732"><ele>1183.55</ele><time>2026-03-27T19:53:39.000Z</time></trkpt>
        <trkpt lat="28.1371981" lon="105.9436816"><ele>1183.91</ele><time>2026-03-27T19:53:51.000Z</time></trkpt>
        <trkpt lat="28.1372439" lon="105.9437779"><ele>1183.5</ele><time>2026-03-27T19:54:01.000Z</time></trkpt>
        <trkpt lat="28.1372998" lon="105.9438652"><ele>1183.98</ele><time>2026-03-27T19:54:13.000Z</time></trkpt>
        <trkpt lat="28.1373546" lon="105.9439573"><ele>1185.53</ele><time>2026-03-27T19:54:29.000Z</time></trkpt>
        <trkpt lat="28.1373725" lon="105.9440583"><ele>1187.57</ele><time>2026-03-27T19:54:51.000Z</time></trkpt>
        <trkpt lat="28.1373659" lon="105.9441673"><ele>1188.49</ele><time>2026-03-27T19:55:23.000Z</time></trkpt>
        <trkpt lat="28.1373417" lon="105.9442759"><ele>1189.73</ele><time>2026-03-27T19:55:59.000Z</time></trkpt>
        <trkpt lat="28.1373009" lon="105.9443806"><ele>1192.51</ele><time>2026-03-27T19:56:17.000Z</time></trkpt>
        <trkpt lat="28.137272" lon="105.9444867"><ele>1195.08</ele><time>2026-03-27T19:56:29.000Z</time></trkpt>
        <trkpt lat="28.1372821" lon="105.94459"><ele>1196.13</ele><time>2026-03-27T19:56:43.000Z</time></trkpt>
        <trkpt lat="28.1373138" lon="105.9446893"><ele>1197.35</ele><time>2026-03-27T19:56:59.000Z</time></trkpt>
        <trkpt lat="28.1373823" lon="105.9447585"><ele>1196.92</ele><time>2026-03-27T19:57:11.000Z</time></trkpt>
        <trkpt lat="28.1374604" lon="105.944828"><ele>1195.8</ele><time>2026-03-27T19:57:31.000Z</time></trkpt>
        <trkpt lat="28.1375363" lon="105.944905"><ele>1195.46</ele><time>2026-03-27T19:58:19.000Z</time></trkpt>
        <trkpt lat="28.1376121" lon="105.9449727"><ele>1194.73</ele><time>2026-03-27T19:58:33.000Z</time></trkpt>
        <trkpt lat="28.1376255" lon="105.9450665"><ele>1197.2</ele><time>2026-03-27T19:58:57.000Z</time></trkpt>
        <trkpt lat="28.1376852" lon="105.9451302"><ele>1197.17</ele><time>2026-03-27T19:59:29.000Z</time></trkpt>
        <trkpt lat="28.1377488" lon="105.9452019"><ele>1197.49</ele><time>2026-03-27T19:59:39.000Z</time></trkpt>
        <trkpt lat="28.137715" lon="105.9451513"><ele>1200.19</ele><time>2026-03-27T19:59:57.000Z</time></trkpt>
        <trkpt lat="28.137659" lon="105.9450503"><ele>1201.1</ele><time>2026-03-27T20:00:07.000Z</time></trkpt>
        <trkpt lat="28.1375947" lon="105.944943"><ele>1201.04</ele><time>2026-03-27T20:00:19.000Z</time></trkpt>
        <trkpt lat="28.1375102" lon="105.94487"><ele>1200.65</ele><time>2026-03-27T20:00:31.000Z</time></trkpt>
        <trkpt lat="28.1374278" lon="105.9448006"><ele>1199.49</ele><time>2026-03-27T20:00:43.000Z</time></trkpt>
        <trkpt lat="28.1373465" lon="105.9447256"><ele>1199.51</ele><time>2026-03-27T20:00:55.000Z</time></trkpt>
        <trkpt lat="28.1372812" lon="105.9446377"><ele>1199.59</ele><time>2026-03-27T20:01:09.000Z</time></trkpt>
        <trkpt lat="28.1372389" lon="105.9445409"><ele>1200.27</ele><time>2026-03-27T20:01:23.000Z</time></trkpt>
        <trkpt lat="28.1372509" lon="105.9444337"><ele>1199.91</ele><time>2026-03-27T20:01:39.000Z</time></trkpt>
        <trkpt lat="28.1372977" lon="105.9443278"><ele>1197.7</ele><time>2026-03-27T20:01:53.000Z</time></trkpt>
        <trkpt lat="28.1373395" lon="105.9442226"><ele>1195.56</ele><time>2026-03-27T20:02:05.000Z</time></trkpt>
        <trkpt lat="28.1373546" lon="105.9441159"><ele>1193.46</ele><time>2026-03-27T20:02:17.000Z</time></trkpt>
        <trkpt lat="28.1373562" lon="105.9440065"><ele>1192.38</ele><time>2026-03-27T20:02:27.000Z</time></trkpt>
        <trkpt lat="28.1373455" lon="105.9438976"><ele>1192.1</ele><time>2026-03-27T20:02:37.000Z</time></trkpt>
        <trkpt lat="28.1373186" lon="105.9437979"><ele>1192.1</ele><time>2026-03-27T20:02:59.000Z</time></trkpt>
        <trkpt lat="28.1372449" lon="105.9437381"><ele>1190.1</ele><time>2026-03-27T20:03:27.000Z</time></trkpt>
        <trkpt lat="28.1372184" lon="105.9436955"><ele>1190.17</ele><time>2026-03-27T20:03:37.000Z</time></trkpt>
        <trkpt lat="28.1371877" lon="105.943615"><ele>1188.39</ele><time>2026-03-27T20:04:01.000Z</time></trkpt>
        <trkpt lat="28.1371694" lon="105.9435093"><ele>1187.17</ele><time>2026-03-27T20:04:13.000Z</time></trkpt>
        <trkpt lat="28.1371822" lon="105.9434026"><ele>1185.81</ele><time>2026-03-27T20:04:25.000Z</time></trkpt>
        <trkpt lat="28.1372011" lon="105.9432925"><ele>1185.09</ele><time>2026-03-27T20:04:37.000Z</time></trkpt>
        <trkpt lat="28.1371676" lon="105.9431926"><ele>1185.06</ele><time>2026-03-27T20:04:51.000Z</time></trkpt>
        <trkpt lat="28.1370984" lon="105.9431237"><ele>1185.93</ele><time>2026-03-27T20:05:03.000Z</time></trkpt>
        <trkpt lat="28.1370359" lon="105.9430438"><ele>1187.25</ele><time>2026-03-27T20:05:19.000Z</time></trkpt>
        <trkpt lat="28.1370103" lon="105.9429383"><ele>1187.51</ele><time>2026-03-27T20:05:33.000Z</time></trkpt>
        <trkpt lat="28.1370357" lon="105.9428382"><ele>1187.57</ele><time>2026-03-27T20:05:43.000Z</time></trkpt>
        <trkpt lat="28.1371071" lon="105.9427623"><ele>1185.95</ele><time>2026-03-27T20:05:53.000Z</time></trkpt>
        <trkpt lat="28.1371941" lon="105.9427086"><ele>1184.49</ele><time>2026-03-27T20:06:05.000Z</time></trkpt>
        <trkpt lat="28.1372895" lon="105.9426765"><ele>1182.48</ele><time>2026-03-27T20:06:17.000Z</time></trkpt>
        <trkpt lat="28.1373041" lon="105.9425864"><ele>1181.02</ele><time>2026-03-27T20:06:33.000Z</time></trkpt>
        <trkpt lat="28.1372935" lon="105.9424723"><ele>1180.31</ele><time>2026-03-27T20:06:47.000Z</time></trkpt>
        <trkpt lat="28.1372179" lon="105.9424098"><ele>1179.96</ele><time>2026-03-27T20:07:05.000Z</time></trkpt>
        <trkpt lat="28.1371418" lon="105.9423326"><ele>1178.68</ele><time>2026-03-27T20:07:17.000Z</time></trkpt>
        <trkpt lat="28.1370459" lon="105.9423203"><ele>1178.3</ele><time>2026-03-27T20:07:35.000Z</time></trkpt>
        <trkpt lat="28.1370071" lon="105.942294"><ele>1179.18</ele><time>2026-03-27T20:07:45.000Z</time></trkpt>
        <trkpt lat="28.1369273" lon="105.9422667"><ele>1177.7</ele><time>2026-03-27T20:09:31.000Z</time></trkpt>
        <trkpt lat="28.136887" lon="105.9421709"><ele>1176.93</ele><time>2026-03-27T20:09:47.000Z</time></trkpt>
        <trkpt lat="28.1368703" lon="105.9420606"><ele>1175.08</ele><time>2026-03-27T20:09:59.000Z</time></trkpt>
        <trkpt lat="28.1368166" lon="105.9419709"><ele>1173.01</ele><time>2026-03-27T20:10:15.000Z</time></trkpt>
        <trkpt lat="28.1367544" lon="105.9418901"><ele>1171.86</ele><time>2026-03-27T20:10:23.000Z</time></trkpt>
        <trkpt lat="28.1367085" lon="105.9418632"><ele>1171.89</ele><time>2026-03-27T20:10:37.000Z</time></trkpt>
        <trkpt lat="28.1366148" lon="105.9418547"><ele>1172.97</ele><time>2026-03-27T20:11:01.000Z</time></trkpt>
        <trkpt lat="28.1365802" lon="105.9418544"><ele>1172.62</ele><time>2026-03-27T20:11:13.000Z</time></trkpt>
        <trkpt lat="28.1365035" lon="105.9418525"><ele>1170.45</ele><time>2026-03-27T20:11:29.000Z</time></trkpt>
        <trkpt lat="28.1364625" lon="105.9417787"><ele>1169.04</ele><time>2026-03-27T20:11:43.000Z</time></trkpt>
        <trkpt lat="28.136462" lon="105.9417749"><ele>1165.07</ele><time>2026-03-27T20:11:47.000Z</time></trkpt>
        <trkpt lat="28.1364878" lon="105.9418522"><ele>1162.43</ele><time>2026-03-27T20:12:11.000Z</time></trkpt>
        <trkpt lat="28.1364245" lon="105.9418242"><ele>1160.05</ele><time>2026-03-27T20:13:21.000Z</time></trkpt>
        <trkpt lat="28.1363678" lon="105.9417334"><ele>1153.73</ele><time>2026-03-27T20:13:39.000Z</time></trkpt>
        <trkpt lat="28.1363089" lon="105.9416537"><ele>1150.45</ele><time>2026-03-27T20:13:57.000Z</time></trkpt>
        <trkpt lat="28.1362294" lon="105.9415914"><ele>1148.32</ele><time>2026-03-27T20:14:23.000Z</time></trkpt>
        <trkpt lat="28.1361477" lon="105.9415287"><ele>1146.21</ele><time>2026-03-27T20:14:37.000Z</time></trkpt>
        <trkpt lat="28.1360625" lon="105.941483"><ele>1143.16</ele><time>2026-03-27T20:14:51.000Z</time></trkpt>
        <trkpt lat="28.1360119" lon="105.941396"><ele>1139.92</ele><time>2026-03-27T20:15:01.000Z</time></trkpt>
        <trkpt lat="28.1359849" lon="105.9412922"><ele>1140.45</ele><time>2026-03-27T20:15:21.000Z</time></trkpt>
        <trkpt lat="28.1359325" lon="105.9411938"><ele>1143.7</ele><time>2026-03-27T20:15:37.000Z</time></trkpt>
        <trkpt lat="28.1358723" lon="105.9411108"><ele>1145.7</ele><time>2026-03-27T20:15:47.000Z</time></trkpt>
        <trkpt lat="28.1358119" lon="105.9410207"><ele>1146.07</ele><time>2026-03-27T20:16:01.000Z</time></trkpt>
        <trkpt lat="28.1357467" lon="105.9409411"><ele>1146.74</ele><time>2026-03-27T20:16:13.000Z</time></trkpt>
        <trkpt lat="28.13569" lon="105.9408495"><ele>1145.78</ele><time>2026-03-27T20:16:25.000Z</time></trkpt>
        <trkpt lat="28.1356555" lon="105.9407465"><ele>1145.57</ele><time>2026-03-27T20:16:39.000Z</time></trkpt>
        <trkpt lat="28.1356281" lon="105.9407185"><ele>1143.8</ele><time>2026-03-27T20:16:45.000Z</time></trkpt>
        <trkpt lat="28.135574" lon="105.94066"><ele>1141.01</ele><time>2026-03-27T20:17:01.000Z</time></trkpt>
        <trkpt lat="28.1355022" lon="105.9406014"><ele>1139.12</ele><time>2026-03-27T20:17:11.000Z</time></trkpt>
        <trkpt lat="28.1355105" lon="105.9405157"><ele>1139.36</ele><time>2026-03-27T20:17:27.000Z</time></trkpt>
        <trkpt lat="28.1355877" lon="105.9405367"><ele>1140.26</ele><time>2026-03-27T20:17:41.000Z</time></trkpt>
        <trkpt lat="28.1356796" lon="105.9405966"><ele>1141.25</ele><time>2026-03-27T20:17:51.000Z</time></trkpt>
        <trkpt lat="28.1357686" lon="105.9406645"><ele>1142.7</ele><time>2026-03-27T20:18:03.000Z</time></trkpt>
        <trkpt lat="28.1358606" lon="105.940733"><ele>1142.9</ele><time>2026-03-27T20:18:15.000Z</time></trkpt>
        <trkpt lat="28.1359439" lon="105.9408062"><ele>1142.62</ele><time>2026-03-27T20:18:25.000Z</time></trkpt>
        <trkpt lat="28.1359952" lon="105.9408515"><ele>1141.65</ele><time>2026-03-27T20:18:39.000Z</time></trkpt>
        <trkpt lat="28.1360651" lon="105.9408937"><ele>1139.86</ele><time>2026-03-27T20:19:53.000Z</time></trkpt>
        <trkpt lat="28.1361363" lon="105.94096"><ele>1138.03</ele><time>2026-03-27T20:20:13.000Z</time></trkpt>
        <trkpt lat="28.1362098" lon="105.941023"><ele>1136.16</ele><time>2026-03-27T20:20:37.000Z</time></trkpt>
        <trkpt lat="28.1363037" lon="105.9410198"><ele>1133.58</ele><time>2026-03-27T20:20:45.000Z</time></trkpt>
        <trkpt lat="28.1363085" lon="105.9410068"><ele>1132.2</ele><time>2026-03-27T20:20:49.000Z</time></trkpt>
        <trkpt lat="28.1363421" lon="105.9409097"><ele>1130.2</ele><time>2026-03-27T20:22:13.000Z</time></trkpt>
        <trkpt lat="28.1363368" lon="105.9408019"><ele>1130.19</ele><time>2026-03-27T20:22:23.000Z</time></trkpt>
        <trkpt lat="28.1363528" lon="105.9406954"><ele>1131.69</ele><time>2026-03-27T20:22:37.000Z</time></trkpt>
        <trkpt lat="28.1363455" lon="105.9405884"><ele>1133.84</ele><time>2026-03-27T20:22:49.000Z</time></trkpt>
        <trkpt lat="28.1363185" lon="105.9404724"><ele>1136.43</ele><time>2026-03-27T20:23:01.000Z</time></trkpt>
        <trkpt lat="28.1363405" lon="105.9403636"><ele>1139.86</ele><time>2026-03-27T20:23:13.000Z</time></trkpt>
        <trkpt lat="28.1364184" lon="105.9403171"><ele>1141.09</ele><time>2026-03-27T20:23:23.000Z</time></trkpt>
        <trkpt lat="28.136517" lon="105.9403305"><ele>1142.37</ele><time>2026-03-27T20:23:39.000Z</time></trkpt>
        <trkpt lat="28.1366176" lon="105.94034"><ele>1141.1</ele><time>2026-03-27T20:23:47.000Z</time></trkpt>
        <trkpt lat="28.1367195" lon="105.9403291"><ele>1142.23</ele><time>2026-03-27T20:23:59.000Z</time></trkpt>
        <trkpt lat="28.1368216" lon="105.9403424"><ele>1144.18</ele><time>2026-03-27T20:24:13.000Z</time></trkpt>
        <trkpt lat="28.1369013" lon="105.9404051"><ele>1143.17</ele><time>2026-03-27T20:24:23.000Z</time></trkpt>
        <trkpt lat="28.136967" lon="105.9404937"><ele>1142.26</ele><time>2026-03-27T20:24:37.000Z</time></trkpt>
        <trkpt lat="28.1370377" lon="105.940568"><ele>1140.92</ele><time>2026-03-27T20:24:49.000Z</time></trkpt>
        <trkpt lat="28.1371033" lon="105.9406534"><ele>1138.58</ele><time>2026-03-27T20:25:01.000Z</time></trkpt>
        <trkpt lat="28.1371408" lon="105.9407566"><ele>1136.21</ele><time>2026-03-27T20:25:21.000Z</time></trkpt>
        <trkpt lat="28.1371776" lon="105.940873"><ele>1133.51</ele><time>2026-03-27T20:25:31.000Z</time></trkpt>
        <trkpt lat="28.1372274" lon="105.9409775"><ele>1131.95</ele><time>2026-03-27T20:25:41.000Z</time></trkpt>
        <trkpt lat="28.1373001" lon="105.9410588"><ele>1131.4</ele><time>2026-03-27T20:25:51.000Z</time></trkpt>
        <trkpt lat="28.1373915" lon="105.941088"><ele>1130.79</ele><time>2026-03-27T20:26:01.000Z</time></trkpt>
        <trkpt lat="28.1374655" lon="105.9410178"><ele>1130.49</ele><time>2026-03-27T20:26:11.000Z</time></trkpt>
        <trkpt lat="28.1375013" lon="105.9409036"><ele>1131.34</ele><time>2026-03-27T20:26:21.000Z</time></trkpt>
        <trkpt lat="28.137515" lon="105.9407693"><ele>1133.86</ele><time>2026-03-27T20:26:33.000Z</time></trkpt>
        <trkpt lat="28.1375413" lon="105.9406565"><ele>1134.97</ele><time>2026-03-27T20:26:43.000Z</time></trkpt>
        <trkpt lat="28.1375941" lon="105.9405552"><ele>1135.26</ele><time>2026-03-27T20:26:55.000Z</time></trkpt>
        <trkpt lat="28.1376549" lon="105.9404632"><ele>1136.97</ele><time>2026-03-27T20:27:15.000Z</time></trkpt>
        <trkpt lat="28.1376552" lon="105.9403612"><ele>1139.1</ele><time>2026-03-27T20:27:31.000Z</time></trkpt>
        <trkpt lat="28.137674" lon="105.9402546"><ele>1139.84</ele><time>2026-03-27T20:27:43.000Z</time></trkpt>
        <trkpt lat="28.1376696" lon="105.9401471"><ele>1141.34</ele><time>2026-03-27T20:27:53.000Z</time></trkpt>
        <trkpt lat="28.1376851" lon="105.9400451"><ele>1141.43</ele><time>2026-03-27T20:28:13.000Z</time></trkpt>
        <trkpt lat="28.1376776" lon="105.9399404"><ele>1139.94</ele><time>2026-03-27T20:28:23.000Z</time></trkpt>
        <trkpt lat="28.1376765" lon="105.939828"><ele>1136.79</ele><time>2026-03-27T20:28:37.000Z</time></trkpt>
        <trkpt lat="28.1377268" lon="105.9397356"><ele>1134.4</ele><time>2026-03-27T20:28:49.000Z</time></trkpt>
        <trkpt lat="28.1378151" lon="105.9396894"><ele>1132.93</ele><time>2026-03-27T20:28:59.000Z</time></trkpt>
        <trkpt lat="28.1379119" lon="105.939671"><ele>1131.89</ele><time>2026-03-27T20:29:09.000Z</time></trkpt>
        <trkpt lat="28.1380128" lon="105.939654"><ele>1130.97</ele><time>2026-03-27T20:29:21.000Z</time></trkpt>
        <trkpt lat="28.1381076" lon="105.9396269"><ele>1130.63</ele><time>2026-03-27T20:29:33.000Z</time></trkpt>
        <trkpt lat="28.1382064" lon="105.9396107"><ele>1130.41</ele><time>2026-03-27T20:29:43.000Z</time></trkpt>
        <trkpt lat="28.138305" lon="105.9396288"><ele>1129.98</ele><time>2026-03-27T20:29:53.000Z</time></trkpt>
        <trkpt lat="28.1383686" lon="105.9397034"><ele>1129.68</ele><time>2026-03-27T20:30:05.000Z</time></trkpt>
        <trkpt lat="28.13843" lon="105.93979"><ele>1129.62</ele><time>2026-03-27T20:30:15.000Z</time></trkpt>
        <trkpt lat="28.1385102" lon="105.9398071"><ele>1128.9</ele><time>2026-03-27T20:30:25.000Z</time></trkpt>
        <trkpt lat="28.1385459" lon="105.9397204"><ele>1127.79</ele><time>2026-03-27T20:30:37.000Z</time></trkpt>
        <trkpt lat="28.1385738" lon="105.9396038"><ele>1126.57</ele><time>2026-03-27T20:30:49.000Z</time></trkpt>
        <trkpt lat="28.1386152" lon="105.9394935"><ele>1124.93</ele><time>2026-03-27T20:31:01.000Z</time></trkpt>
        <trkpt lat="28.1386653" lon="105.939386"><ele>1122.1</ele><time>2026-03-27T20:31:13.000Z</time></trkpt>
        <trkpt lat="28.1387225" lon="105.9392912"><ele>1119.29</ele><time>2026-03-27T20:31:25.000Z</time></trkpt>
        <trkpt lat="28.1387838" lon="105.9392103"><ele>1116.98</ele><time>2026-03-27T20:31:37.000Z</time></trkpt>
        <trkpt lat="28.1388596" lon="105.9391469"><ele>1115.93</ele><time>2026-03-27T20:31:51.000Z</time></trkpt>
        <trkpt lat="28.1389486" lon="105.9391351"><ele>1115.09</ele><time>2026-03-27T20:32:03.000Z</time></trkpt>
        <trkpt lat="28.1390416" lon="105.9391327"><ele>1113.45</ele><time>2026-03-27T20:32:15.000Z</time></trkpt>
        <trkpt lat="28.1391052" lon="105.9391234"><ele>1111.8</ele><time>2026-03-27T20:32:29.000Z</time></trkpt>
        <trkpt lat="28.1391511" lon="105.9391915"><ele>1108.85</ele><time>2026-03-27T20:32:41.000Z</time></trkpt>
        <trkpt lat="28.1391785" lon="105.9392938"><ele>1106.61</ele><time>2026-03-27T20:32:51.000Z</time></trkpt>
        <trkpt lat="28.1392503" lon="105.9393296"><ele>1105.8</ele><time>2026-03-27T20:33:15.000Z</time></trkpt>
        <trkpt lat="28.139342" lon="105.9393172"><ele>1105.58</ele><time>2026-03-27T20:33:31.000Z</time></trkpt>
        <trkpt lat="28.1393816" lon="105.9391891"><ele>1105.42</ele><time>2026-03-27T20:34:59.000Z</time></trkpt>
        <trkpt lat="28.1394632" lon="105.9391184"><ele>1100.84</ele><time>2026-03-27T20:35:09.000Z</time></trkpt>
        <trkpt lat="28.1395578" lon="105.9390546"><ele>1096.79</ele><time>2026-03-27T20:35:21.000Z</time></trkpt>
        <trkpt lat="28.1396459" lon="105.938998"><ele>1094.19</ele><time>2026-03-27T20:35:29.000Z</time></trkpt>
        <trkpt lat="28.1397451" lon="105.9389571"><ele>1094.74</ele><time>2026-03-27T20:35:51.000Z</time></trkpt>
        <trkpt lat="28.1398503" lon="105.9389411"><ele>1095.93</ele><time>2026-03-27T20:36:03.000Z</time></trkpt>
        <trkpt lat="28.1399499" lon="105.9389655"><ele>1098.1</ele><time>2026-03-27T20:36:21.000Z</time></trkpt>
        <trkpt lat="28.1400401" lon="105.9390222"><ele>1099.86</ele><time>2026-03-27T20:37:05.000Z</time></trkpt>
        <trkpt lat="28.140077" lon="105.9389604"><ele>1100.74</ele><time>2026-03-27T20:37:57.000Z</time></trkpt>
        <trkpt lat="28.1401454" lon="105.9388942"><ele>1100.04</ele><time>2026-03-27T20:38:44.000Z</time></trkpt>
        <trkpt lat="28.140206" lon="105.9387916"><ele>1098.7</ele><time>2026-03-27T20:39:12.000Z</time></trkpt>
        <trkpt lat="28.1402097" lon="105.9387206"><ele>1094.49</ele><time>2026-03-27T20:39:26.000Z</time></trkpt>
        <trkpt lat="28.1402349" lon="105.9387863"><ele>1091.34</ele><time>2026-03-27T20:39:54.000Z</time></trkpt>
        <trkpt lat="28.14027" lon="105.9388892"><ele>1089.48</ele><time>2026-03-27T20:40:06.000Z</time></trkpt>
        <trkpt lat="28.1403476" lon="105.9389413"><ele>1089.7</ele><time>2026-03-27T20:40:20.000Z</time></trkpt>
        <trkpt lat="28.1403672" lon="105.9390398"><ele>1088.09</ele><time>2026-03-27T20:41:12.000Z</time></trkpt>
        <trkpt lat="28.1403649" lon="105.9390835"><ele>1083.29</ele><time>2026-03-27T20:41:16.000Z</time></trkpt>
        <trkpt lat="28.1404192" lon="105.9390047"><ele>1079.11</ele><time>2026-03-27T20:42:22.000Z</time></trkpt>
        <trkpt lat="28.1403374" lon="105.9390572"><ele>1077.08</ele><time>2026-03-27T20:43:38.000Z</time></trkpt>
        <trkpt lat="28.1404338" lon="105.9391033"><ele>1079.55</ele><time>2026-03-27T20:43:46.000Z</time></trkpt>
        <trkpt lat="28.1405169" lon="105.9390681"><ele>1080.12</ele><time>2026-03-27T20:43:56.000Z</time></trkpt>
        <trkpt lat="28.1405579" lon="105.9389813"><ele>1080.66</ele><time>2026-03-27T20:44:06.000Z</time></trkpt>
        <trkpt lat="28.1406093" lon="105.9388895"><ele>1080.64</ele><time>2026-03-27T20:44:16.000Z</time></trkpt>
        <trkpt lat="28.1406831" lon="105.9388147"><ele>1077.69</ele><time>2026-03-27T20:44:26.000Z</time></trkpt>
        <trkpt lat="28.1407666" lon="105.9387566"><ele>1074.13</ele><time>2026-03-27T20:44:36.000Z</time></trkpt>
        <trkpt lat="28.1408596" lon="105.9387155"><ele>1071.45</ele><time>2026-03-27T20:44:48.000Z</time></trkpt>
        <trkpt lat="28.1409454" lon="105.9386712"><ele>1073.46</ele><time>2026-03-27T20:45:04.000Z</time></trkpt>
        <trkpt lat="28.141044" lon="105.9386526"><ele>1077.07</ele><time>2026-03-27T20:45:14.000Z</time></trkpt>
        <trkpt lat="28.1411429" lon="105.9386883"><ele>1078.51</ele><time>2026-03-27T20:45:22.000Z</time></trkpt>
        <trkpt lat="28.1412061" lon="105.93877"><ele>1079.28</ele><time>2026-03-27T20:45:30.000Z</time></trkpt>
        <trkpt lat="28.1412171" lon="105.9388929"><ele>1079.57</ele><time>2026-03-27T20:45:40.000Z</time></trkpt>
        <trkpt lat="28.1412156" lon="105.9390243"><ele>1080.32</ele><time>2026-03-27T20:45:50.000Z</time></trkpt>
        <trkpt lat="28.141202" lon="105.9391449"><ele>1081.3</ele><time>2026-03-27T20:45:58.000Z</time></trkpt>
        <trkpt lat="28.1411848" lon="105.9392604"><ele>1082.57</ele><time>2026-03-27T20:46:08.000Z</time></trkpt>
        <trkpt lat="28.1412497" lon="105.9392927"><ele>1084.34</ele><time>2026-03-27T20:46:18.000Z</time></trkpt>
        <trkpt lat="28.1413419" lon="105.9392945"><ele>1084.78</ele><time>2026-03-27T20:46:28.000Z</time></trkpt>
        <trkpt lat="28.1414355" lon="105.9393201"><ele>1085.01</ele><time>2026-03-27T20:46:36.000Z</time></trkpt>
        <trkpt lat="28.1415308" lon="105.9393567"><ele>1085.47</ele><time>2026-03-27T20:46:46.000Z</time></trkpt>
        <trkpt lat="28.1416236" lon="105.9394097"><ele>1085.78</ele><time>2026-03-27T20:46:56.000Z</time></trkpt>
        <trkpt lat="28.1417108" lon="105.9394546"><ele>1085.24</ele><time>2026-03-27T20:47:04.000Z</time></trkpt>
        <trkpt lat="28.1417731" lon="105.9395366"><ele>1084.1</ele><time>2026-03-27T20:47:14.000Z</time></trkpt>
        <trkpt lat="28.1418252" lon="105.9396342"><ele>1083.29</ele><time>2026-03-27T20:47:22.000Z</time></trkpt>
        <trkpt lat="28.1418633" lon="105.9397325"><ele>1084.4</ele><time>2026-03-27T20:47:30.000Z</time></trkpt>
        <trkpt lat="28.1418845" lon="105.9398416"><ele>1085.08</ele><time>2026-03-27T20:47:40.000Z</time></trkpt>
        <trkpt lat="28.1418525" lon="105.9398888"><ele>1086.35</ele><time>2026-03-27T20:47:50.000Z</time></trkpt>
        <trkpt lat="28.1419047" lon="105.9399207"><ele>1086.83</ele><time>2026-03-27T20:48:17.000Z</time></trkpt>
        <trkpt lat="28.1419896" lon="105.939905"><ele>1086.38</ele><time>2026-03-27T20:48:25.000Z</time></trkpt>
        <trkpt lat="28.1420926" lon="105.939893"><ele>1085.24</ele><time>2026-03-27T20:48:33.000Z</time></trkpt>
        <trkpt lat="28.1421997" lon="105.9399081"><ele>1084.9</ele><time>2026-03-27T20:48:43.000Z</time></trkpt>
        <trkpt lat="28.1423039" lon="105.9399494"><ele>1084.8</ele><time>2026-03-27T20:48:55.000Z</time></trkpt>
        <trkpt lat="28.1423939" lon="105.9400145"><ele>1084.77</ele><time>2026-03-27T20:49:05.000Z</time></trkpt>
        <trkpt lat="28.142468" lon="105.9401066"><ele>1083.99</ele><time>2026-03-27T20:49:15.000Z</time></trkpt>
        <trkpt lat="28.1425345" lon="105.9401877"><ele>1083.11</ele><time>2026-03-27T20:49:29.000Z</time></trkpt>
        <trkpt lat="28.1426308" lon="105.9402519"><ele>1081.9</ele><time>2026-03-27T20:49:39.000Z</time></trkpt>
        <trkpt lat="28.1426525" lon="105.9402274"><ele>1081.58</ele><time>2026-03-27T20:49:43.000Z</time></trkpt>
        <trkpt lat="28.142718" lon="105.9401872"><ele>1077.92</ele><time>2026-03-27T20:50:28.000Z</time></trkpt>
        <trkpt lat="28.1427203" lon="105.9400901"><ele>1082.5</ele><time>2026-03-27T20:50:40.000Z</time></trkpt>
        <trkpt lat="28.1427145" lon="105.9399739"><ele>1086.85</ele><time>2026-03-27T20:51:04.000Z</time></trkpt>
        <trkpt lat="28.1427044" lon="105.939856"><ele>1092.92</ele><time>2026-03-27T20:51:18.000Z</time></trkpt>
        <trkpt lat="28.1426495" lon="105.9397665"><ele>1096.77</ele><time>2026-03-27T20:51:52.000Z</time></trkpt>
        <trkpt lat="28.1426891" lon="105.9397883"><ele>1102.34</ele><time>2026-03-27T20:52:30.000Z</time></trkpt>
        <trkpt lat="28.1427751" lon="105.9398155"><ele>1108.09</ele><time>2026-03-27T20:52:52.000Z</time></trkpt>
        <trkpt lat="28.1428751" lon="105.9398392"><ele>1111.91</ele><time>2026-03-27T20:53:14.000Z</time></trkpt>
        <trkpt lat="28.142916" lon="105.9398484"><ele>1116.12</ele><time>2026-03-27T20:53:18.000Z</time></trkpt>
        <trkpt lat="28.1429475" lon="105.9397793"><ele>1118.6</ele><time>2026-03-27T20:53:38.000Z</time></trkpt>
        <trkpt lat="28.1429366" lon="105.9396736"><ele>1118.21</ele><time>2026-03-27T20:53:54.000Z</time></trkpt>
        <trkpt lat="28.1429264" lon="105.9395903"><ele>1117.83</ele><time>2026-03-27T20:54:02.000Z</time></trkpt>
        <trkpt lat="28.1429652" lon="105.9396273"><ele>1117.31</ele><time>2026-03-27T20:54:18.000Z</time></trkpt>
        <trkpt lat="28.1430055" lon="105.9397337"><ele>1117.05</ele><time>2026-03-27T20:54:28.000Z</time></trkpt>
        <trkpt lat="28.1430887" lon="105.9398038"><ele>1116.52</ele><time>2026-03-27T20:54:36.000Z</time></trkpt>
        <trkpt lat="28.143187" lon="105.939846"><ele>1116.01</ele><time>2026-03-27T20:54:44.000Z</time></trkpt>
        <trkpt lat="28.1432844" lon="105.9398672"><ele>1114.46</ele><time>2026-03-27T20:54:52.000Z</time></trkpt>
        <trkpt lat="28.1433835" lon="105.9398807"><ele>1112.4</ele><time>2026-03-27T20:55:00.000Z</time></trkpt>
        <trkpt lat="28.1434775" lon="105.939893"><ele>1110.71</ele><time>2026-03-27T20:55:08.000Z</time></trkpt>
        <trkpt lat="28.1435718" lon="105.9399262"><ele>1109.66</ele><time>2026-03-27T20:55:18.000Z</time></trkpt>
        <trkpt lat="28.1436516" lon="105.939988"><ele>1109.51</ele><time>2026-03-27T20:55:28.000Z</time></trkpt>
        <trkpt lat="28.1437448" lon="105.940041"><ele>1109.1</ele><time>2026-03-27T20:55:38.000Z</time></trkpt>
        <trkpt lat="28.143836" lon="105.9400891"><ele>1107.56</ele><time>2026-03-27T20:55:50.000Z</time></trkpt>
        <trkpt lat="28.1439231" lon="105.9401354"><ele>1106.47</ele><time>2026-03-27T20:56:06.000Z</time></trkpt>
        <trkpt lat="28.1439867" lon="105.9402195"><ele>1104.55</ele><time>2026-03-27T20:56:46.000Z</time></trkpt>
        <trkpt lat="28.144058" lon="105.9403032"><ele>1102.15</ele><time>2026-03-27T20:56:58.000Z</time></trkpt>
        <trkpt lat="28.1441231" lon="105.9403845"><ele>1100.66</ele><time>2026-03-27T20:57:12.000Z</time></trkpt>
        <trkpt lat="28.144181" lon="105.9404866"><ele>1099.83</ele><time>2026-03-27T20:57:24.000Z</time></trkpt>
        <trkpt lat="28.1442094" lon="105.9405936"><ele>1100.03</ele><time>2026-03-27T20:57:35.000Z</time></trkpt>
        <trkpt lat="28.1442024" lon="105.9407137"><ele>1099.86</ele><time>2026-03-27T20:57:47.000Z</time></trkpt>
        <trkpt lat="28.144192" lon="105.9408346"><ele>1099.75</ele><time>2026-03-27T20:57:55.000Z</time></trkpt>
        <trkpt lat="28.1441242" lon="105.9409156"><ele>1100.54</ele><time>2026-03-27T20:58:07.000Z</time></trkpt>
        <trkpt lat="28.1440681" lon="105.9410137"><ele>1101.34</ele><time>2026-03-27T20:58:19.000Z</time></trkpt>
        <trkpt lat="28.1441183" lon="105.9410951"><ele>1100.9</ele><time>2026-03-27T20:58:31.000Z</time></trkpt>
        <trkpt lat="28.1442062" lon="105.9411397"><ele>1100.79</ele><time>2026-03-27T20:58:43.000Z</time></trkpt>
        <trkpt lat="28.1443074" lon="105.9411786"><ele>1101.15</ele><time>2026-03-27T20:58:57.000Z</time></trkpt>
        <trkpt lat="28.1444053" lon="105.9412164"><ele>1100.46</ele><time>2026-03-27T20:59:09.000Z</time></trkpt>
        <trkpt lat="28.1444911" lon="105.9411734"><ele>1099.73</ele><time>2026-03-27T20:59:25.000Z</time></trkpt>
        <trkpt lat="28.1445643" lon="105.9410971"><ele>1098.39</ele><time>2026-03-27T20:59:35.000Z</time></trkpt>
        <trkpt lat="28.1446174" lon="105.9409997"><ele>1096.85</ele><time>2026-03-27T20:59:53.000Z</time></trkpt>
        <trkpt lat="28.1446785" lon="105.9409049"><ele>1099.02</ele><time>2026-03-27T21:00:07.000Z</time></trkpt>
        <trkpt lat="28.1447637" lon="105.9408549"><ele>1099.82</ele><time>2026-03-27T21:00:17.000Z</time></trkpt>
        <trkpt lat="28.1448594" lon="105.9408016"><ele>1099.59</ele><time>2026-03-27T21:00:27.000Z</time></trkpt>
        <trkpt lat="28.1449526" lon="105.940758"><ele>1098.14</ele><time>2026-03-27T21:00:35.000Z</time></trkpt>
        <trkpt lat="28.1449971" lon="105.9407405"><ele>1096.91</ele><time>2026-03-27T21:00:39.000Z</time></trkpt>
        <trkpt lat="28.1450722" lon="105.9407177"><ele>1095.66</ele><time>2026-03-27T21:00:51.000Z</time></trkpt>
        <trkpt lat="28.1450722" lon="105.9407177"><ele>1095.66</ele><time>2026-03-27T21:01:18.000Z</time></trkpt>
      </trkseg>
      <trkseg>
        <trkpt lat="28.1451739" lon="105.9406982"><ele>1095.16</ele><time>2026-03-27T21:02:58.000Z</time></trkpt>
        <trkpt lat="28.1451739" lon="105.9406982"><ele>1095.16</ele><time>2026-03-27T21:02:59.000Z</time></trkpt>
        <trkpt lat="28.1451739" lon="105.9406982"><ele>1095.16</ele><time>2026-03-27T21:03:05.000Z</time></trkpt>
        <trkpt lat="28.1450528" lon="105.9409106"><ele>1085.7</ele><time>2026-03-27T21:22:38.000Z</time></trkpt>
        <trkpt lat="28.1451736" lon="105.9406889"><ele>1091.73</ele><time>2026-03-27T23:05:15.000Z</time></trkpt>
      </trkseg>
      <trkseg>
        <trkpt lat="28.1450809" lon="105.9406643"><ele>1099.1</ele><time>2026-03-27T23:05:35.000Z</time></trkpt>
        <trkpt lat="28.1449933" lon="105.940694"><ele>1099.1</ele><time>2026-03-27T23:05:49.000Z</time></trkpt>
        <trkpt lat="28.144896" lon="105.9406972"><ele>1100.97</ele><time>2026-03-27T23:06:15.000Z</time></trkpt>
        <trkpt lat="28.1448315" lon="105.94077"><ele>1103.49</ele><time>2026-03-27T23:06:27.000Z</time></trkpt>
        <trkpt lat="28.1447608" lon="105.9408557"><ele>1104.12</ele><time>2026-03-27T23:06:39.000Z</time></trkpt>
        <trkpt lat="28.1446769" lon="105.9409124"><ele>1106.17</ele><time>2026-03-27T23:06:51.000Z</time></trkpt>
        <trkpt lat="28.1446107" lon="105.9409843"><ele>1107.51</ele><time>2026-03-27T23:07:03.000Z</time></trkpt>
        <trkpt lat="28.1445607" lon="105.9410768"><ele>1107.36</ele><time>2026-03-27T23:07:13.000Z</time></trkpt>
        <trkpt lat="28.1444818" lon="105.9411463"><ele>1106.02</ele><time>2026-03-27T23:07:24.000Z</time></trkpt>
        <trkpt lat="28.1443922" lon="105.941177"><ele>1103.86</ele><time>2026-03-27T23:07:34.000Z</time></trkpt>
        <trkpt lat="28.1443018" lon="105.9411498"><ele>1103.32</ele><time>2026-03-27T23:07:46.000Z</time></trkpt>
        <trkpt lat="28.1442106" lon="105.9410971"><ele>1104.87</ele><time>2026-03-27T23:07:56.000Z</time></trkpt>
        <trkpt lat="28.1441172" lon="105.9410257"><ele>1106.46</ele><time>2026-03-27T23:08:08.000Z</time></trkpt>
        <trkpt lat="28.1440676" lon="105.9409146"><ele>1108.36</ele><time>2026-03-27T23:08:20.000Z</time></trkpt>
        <trkpt lat="28.1440992" lon="105.9408082"><ele>1109.84</ele><time>2026-03-27T23:08:30.000Z</time></trkpt>
        <trkpt lat="28.1441615" lon="105.9407022"><ele>1108.09</ele><time>2026-03-27T23:08:42.000Z</time></trkpt>
        <trkpt lat="28.1441995" lon="105.9405979"><ele>1105.84</ele><time>2026-03-27T23:08:52.000Z</time></trkpt>
        <trkpt lat="28.1441968" lon="105.9404839"><ele>1104.29</ele><time>2026-03-27T23:09:04.000Z</time></trkpt>
        <trkpt lat="28.1441741" lon="105.9403775"><ele>1103.55</ele><time>2026-03-27T23:09:22.000Z</time></trkpt>
        <trkpt lat="28.144101" lon="105.9402881"><ele>1103.65</ele><time>2026-03-27T23:09:32.000Z</time></trkpt>
        <trkpt lat="28.1440442" lon="105.9401914"><ele>1104.37</ele><time>2026-03-27T23:09:44.000Z</time></trkpt>
        <trkpt lat="28.1439692" lon="105.9401206"><ele>1107.23</ele><time>2026-03-27T23:09:56.000Z</time></trkpt>
        <trkpt lat="28.1438903" lon="105.9400635"><ele>1110.94</ele><time>2026-03-27T23:10:08.000Z</time></trkpt>
        <trkpt lat="28.1438063" lon="105.9400212"><ele>1112.23</ele><time>2026-03-27T23:10:24.000Z</time></trkpt>
        <trkpt lat="28.1437086" lon="105.9399963"><ele>1110.77</ele><time>2026-03-27T23:10:34.000Z</time></trkpt>
        <trkpt lat="28.1436087" lon="105.9399683"><ele>1111.44</ele><time>2026-03-27T23:10:46.000Z</time></trkpt>
        <trkpt lat="28.1435228" lon="105.9399158"><ele>1111.66</ele><time>2026-03-27T23:11:00.000Z</time></trkpt>
        <trkpt lat="28.1434413" lon="105.9398555"><ele>1110.8</ele><time>2026-03-27T23:11:14.000Z</time></trkpt>
        <trkpt lat="28.14334" lon="105.9398406"><ele>1111.07</ele><time>2026-03-27T23:11:28.000Z</time></trkpt>
        <trkpt lat="28.1432419" lon="105.9398364"><ele>1112.76</ele><time>2026-03-27T23:11:40.000Z</time></trkpt>
        <trkpt lat="28.1431489" lon="105.9398047"><ele>1116.03</ele><time>2026-03-27T23:11:50.000Z</time></trkpt>
        <trkpt lat="28.1430681" lon="105.9397559"><ele>1117.07</ele><time>2026-03-27T23:12:02.000Z</time></trkpt>
        <trkpt lat="28.1430058" lon="105.9396797"><ele>1119.02</ele><time>2026-03-27T23:12:12.000Z</time></trkpt>
        <trkpt lat="28.1429758" lon="105.9395717"><ele>1122.59</ele><time>2026-03-27T23:12:28.000Z</time></trkpt>
        <trkpt lat="28.1429452" lon="105.9396152"><ele>1121.44</ele><time>2026-03-27T23:12:40.000Z</time></trkpt>
        <trkpt lat="28.1429373" lon="105.9397175"><ele>1121.05</ele><time>2026-03-27T23:13:02.000Z</time></trkpt>
        <trkpt lat="28.1429325" lon="105.9396408"><ele>1121.81</ele><time>2026-03-27T23:14:14.000Z</time></trkpt>
        <trkpt lat="28.1429761" lon="105.939534"><ele>1119.74</ele><time>2026-03-27T23:14:24.000Z</time></trkpt>
        <trkpt lat="28.143042" lon="105.9394459"><ele>1117.57</ele><time>2026-03-27T23:14:36.000Z</time></trkpt>
        <trkpt lat="28.1430506" lon="105.939335"><ele>1116.07</ele><time>2026-03-27T23:14:48.000Z</time></trkpt>
        <trkpt lat="28.1430164" lon="105.9392235"><ele>1115.37</ele><time>2026-03-27T23:15:00.000Z</time></trkpt>
        <trkpt lat="28.1429795" lon="105.939108"><ele>1115.06</ele><time>2026-03-27T23:15:12.000Z</time></trkpt>
        <trkpt lat="28.1429454" lon="105.9389923"><ele>1114.6</ele><time>2026-03-27T23:15:24.000Z</time></trkpt>
        <trkpt lat="28.1429077" lon="105.9388777"><ele>1113.34</ele><time>2026-03-27T23:15:34.000Z</time></trkpt>
        <trkpt lat="28.1428869" lon="105.9387657"><ele>1112.14</ele><time>2026-03-27T23:15:40.000Z</time></trkpt>
        <trkpt lat="28.1428603" lon="105.9386626"><ele>1113.56</ele><time>2026-03-27T23:15:48.000Z</time></trkpt>
        <trkpt lat="28.1428118" lon="105.9385712"><ele>1114.98</ele><time>2026-03-27T23:15:58.000Z</time></trkpt>
        <trkpt lat="28.1427443" lon="105.9384958"><ele>1116.45</ele><time>2026-03-27T23:16:08.000Z</time></trkpt>
        <trkpt lat="28.1426943" lon="105.9384076"><ele>1117.81</ele><time>2026-03-27T23:16:18.000Z</time></trkpt>
        <trkpt lat="28.1426866" lon="105.9382928"><ele>1117.47</ele><time>2026-03-27T23:16:28.000Z</time></trkpt>
        <trkpt lat="28.1427038" lon="105.9381807"><ele>1117.35</ele><time>2026-03-27T23:16:38.000Z</time></trkpt>
        <trkpt lat="28.1426666" lon="105.9380838"><ele>1117.74</ele><time>2026-03-27T23:16:50.000Z</time></trkpt>
        <trkpt lat="28.14259" lon="105.9380196"><ele>1118.93</ele><time>2026-03-27T23:17:00.000Z</time></trkpt>
        <trkpt lat="28.1424912" lon="105.9379757"><ele>1121.57</ele><time>2026-03-27T23:17:10.000Z</time></trkpt>
        <trkpt lat="28.1423807" lon="105.9379563"><ele>1125</ele><time>2026-03-27T23:17:20.000Z</time></trkpt>
        <trkpt lat="28.142276" lon="105.9379205"><ele>1127.72</ele><time>2026-03-27T23:17:30.000Z</time></trkpt>
        <trkpt lat="28.1421885" lon="105.9378466"><ele>1129.72</ele><time>2026-03-27T23:17:38.000Z</time></trkpt>
        <trkpt lat="28.1421192" lon="105.9377637"><ele>1130.09</ele><time>2026-03-27T23:17:46.000Z</time></trkpt>
        <trkpt lat="28.1420414" lon="105.9377012"><ele>1130.45</ele><time>2026-03-27T23:17:54.000Z</time></trkpt>
        <trkpt lat="28.141946" lon="105.93767"><ele>1131.86</ele><time>2026-03-27T23:18:02.000Z</time></trkpt>
        <trkpt lat="28.1418445" lon="105.9376639"><ele>1133.3</ele><time>2026-03-27T23:18:10.000Z</time></trkpt>
        <trkpt lat="28.1418148" lon="105.9376559"><ele>1135.02</ele><time>2026-03-27T23:18:18.000Z</time></trkpt>
        <trkpt lat="28.1417392" lon="105.9376544"><ele>1134.28</ele><time>2026-03-27T23:18:58.000Z</time></trkpt>
        <trkpt lat="28.1416562" lon="105.9376204"><ele>1129.47</ele><time>2026-03-27T23:19:06.000Z</time></trkpt>
        <trkpt lat="28.1416113" lon="105.937605"><ele>1127.38</ele><time>2026-03-27T23:19:12.000Z</time></trkpt>
        <trkpt lat="28.1415764" lon="105.9375031"><ele>1126.5</ele><time>2026-03-27T23:20:32.000Z</time></trkpt>
        <trkpt lat="28.1414808" lon="105.9374457"><ele>1125.82</ele><time>2026-03-27T23:20:44.000Z</time></trkpt>
        <trkpt lat="28.1413793" lon="105.9373963"><ele>1125.41</ele><time>2026-03-27T23:20:54.000Z</time></trkpt>
        <trkpt lat="28.1413109" lon="105.9373181"><ele>1125.14</ele><time>2026-03-27T23:21:04.000Z</time></trkpt>
        <trkpt lat="28.1412628" lon="105.9372183"><ele>1121.94</ele><time>2026-03-27T23:21:14.000Z</time></trkpt>
        <trkpt lat="28.1412385" lon="105.9370976"><ele>1117.03</ele><time>2026-03-27T23:21:24.000Z</time></trkpt>
        <trkpt lat="28.1412007" lon="105.9369901"><ele>1112</ele><time>2026-03-27T23:21:34.000Z</time></trkpt>
        <trkpt lat="28.1411419" lon="105.9369063"><ele>1107.87</ele><time>2026-03-27T23:21:44.000Z</time></trkpt>
        <trkpt lat="28.1410794" lon="105.9368739"><ele>1104.9</ele><time>2026-03-27T23:21:54.000Z</time></trkpt>
        <trkpt lat="28.1409893" lon="105.9369405"><ele>1101.89</ele><time>2026-03-27T23:23:00.000Z</time></trkpt>
        <trkpt lat="28.1409864" lon="105.9369823"><ele>1098.68</ele><time>2026-03-27T23:23:08.000Z</time></trkpt>
        <trkpt lat="28.1409903" lon="105.9370875"><ele>1096.85</ele><time>2026-03-27T23:23:22.000Z</time></trkpt>
        <trkpt lat="28.1409632" lon="105.9371944"><ele>1096.66</ele><time>2026-03-27T23:23:34.000Z</time></trkpt>
        <trkpt lat="28.1409191" lon="105.9372916"><ele>1096</ele><time>2026-03-27T23:23:44.000Z</time></trkpt>
        <trkpt lat="28.1408475" lon="105.9373752"><ele>1094.9</ele><time>2026-03-27T23:23:58.000Z</time></trkpt>
        <trkpt lat="28.1407549" lon="105.9374352"><ele>1091.89</ele><time>2026-03-27T23:24:08.000Z</time></trkpt>
        <trkpt lat="28.1406532" lon="105.9374608"><ele>1090.91</ele><time>2026-03-27T23:24:20.000Z</time></trkpt>
        <trkpt lat="28.1405568" lon="105.9374445"><ele>1090.82</ele><time>2026-03-27T23:24:32.000Z</time></trkpt>
        <trkpt lat="28.1404611" lon="105.9373946"><ele>1090.98</ele><time>2026-03-27T23:24:42.000Z</time></trkpt>
        <trkpt lat="28.1403857" lon="105.9373205"><ele>1091.25</ele><time>2026-03-27T23:24:52.000Z</time></trkpt>
        <trkpt lat="28.1403622" lon="105.9372816"><ele>1090.38</ele><time>2026-03-27T23:24:56.000Z</time></trkpt>
        <trkpt lat="28.1403323" lon="105.93719"><ele>1089.35</ele><time>2026-03-27T23:25:22.000Z</time></trkpt>
        <trkpt lat="28.1403112" lon="105.9370832"><ele>1087.9</ele><time>2026-03-27T23:25:30.000Z</time></trkpt>
        <trkpt lat="28.140293" lon="105.9369735"><ele>1087.16</ele><time>2026-03-27T23:25:50.000Z</time></trkpt>
        <trkpt lat="28.1402328" lon="105.9369981"><ele>1086.42</ele><time>2026-03-27T23:26:04.000Z</time></trkpt>
        <trkpt lat="28.1401873" lon="105.9370438"><ele>1086.95</ele><time>2026-03-27T23:26:12.000Z</time></trkpt>
        <trkpt lat="28.1401035" lon="105.9370738"><ele>1087.62</ele><time>2026-03-27T23:26:44.000Z</time></trkpt>
        <trkpt lat="28.1401001" lon="105.9370013"><ele>1090.86</ele><time>2026-03-27T23:26:58.000Z</time></trkpt>
        <trkpt lat="28.1401226" lon="105.9368953"><ele>1092.63</ele><time>2026-03-27T23:27:10.000Z</time></trkpt>
        <trkpt lat="28.1401289" lon="105.936777"><ele>1093.88</ele><time>2026-03-27T23:27:22.000Z</time></trkpt>
        <trkpt lat="28.1401282" lon="105.9366505"><ele>1095.18</ele><time>2026-03-27T23:27:36.000Z</time></trkpt>
        <trkpt lat="28.1401019" lon="105.9365285"><ele>1096.17</ele><time>2026-03-27T23:27:48.000Z</time></trkpt>
        <trkpt lat="28.1400181" lon="105.9364748"><ele>1097.13</ele><time>2026-03-27T23:28:00.000Z</time></trkpt>
        <trkpt lat="28.1399043" lon="105.9364893"><ele>1099.31</ele><time>2026-03-27T23:28:10.000Z</time></trkpt>
        <trkpt lat="28.139796" lon="105.9364827"><ele>1100.65</ele><time>2026-03-27T23:28:20.000Z</time></trkpt>
        <trkpt lat="28.1397002" lon="105.9364282"><ele>1101.45</ele><time>2026-03-27T23:28:30.000Z</time></trkpt>
        <trkpt lat="28.1396742" lon="105.9363273"><ele>1103.07</ele><time>2026-03-27T23:28:42.000Z</time></trkpt>
        <trkpt lat="28.1396972" lon="105.9362143"><ele>1102.7</ele><time>2026-03-27T23:28:52.000Z</time></trkpt>
        <trkpt lat="28.1396899" lon="105.9361023"><ele>1103.5</ele><time>2026-03-27T23:29:04.000Z</time></trkpt>
        <trkpt lat="28.1396252" lon="105.9360397"><ele>1104.43</ele><time>2026-03-27T23:29:16.000Z</time></trkpt>
        <trkpt lat="28.1395566" lon="105.9359594"><ele>1104.68</ele><time>2026-03-27T23:29:26.000Z</time></trkpt>
        <trkpt lat="28.1394931" lon="105.9358685"><ele>1106.13</ele><time>2026-03-27T23:29:38.000Z</time></trkpt>
        <trkpt lat="28.1394216" lon="105.9357827"><ele>1106.97</ele><time>2026-03-27T23:29:50.000Z</time></trkpt>
        <trkpt lat="28.1393447" lon="105.935707"><ele>1107.98</ele><time>2026-03-27T23:30:02.000Z</time></trkpt>
        <trkpt lat="28.1392789" lon="105.9356298"><ele>1109.39</ele><time>2026-03-27T23:30:14.000Z</time></trkpt>
        <trkpt lat="28.1392467" lon="105.9355354"><ele>1111.22</ele><time>2026-03-27T23:30:26.000Z</time></trkpt>
        <trkpt lat="28.1392367" lon="105.9354297"><ele>1112.71</ele><time>2026-03-27T23:30:40.000Z</time></trkpt>
        <trkpt lat="28.1392125" lon="105.9353186"><ele>1114.29</ele><time>2026-03-27T23:30:54.000Z</time></trkpt>
        <trkpt lat="28.1391342" lon="105.9352888"><ele>1117.22</ele><time>2026-03-27T23:31:06.000Z</time></trkpt>
        <trkpt lat="28.1390333" lon="105.9352722"><ele>1122.25</ele><time>2026-03-27T23:31:18.000Z</time></trkpt>
        <trkpt lat="28.1389357" lon="105.9352622"><ele>1126.99</ele><time>2026-03-27T23:31:28.000Z</time></trkpt>
        <trkpt lat="28.1388363" lon="105.9352584"><ele>1132.45</ele><time>2026-03-27T23:31:42.000Z</time></trkpt>
        <trkpt lat="28.1387363" lon="105.9352833"><ele>1136.61</ele><time>2026-03-27T23:31:54.000Z</time></trkpt>
        <trkpt lat="28.1386374" lon="105.9352902"><ele>1138.81</ele><time>2026-03-27T23:32:06.000Z</time></trkpt>
        <trkpt lat="28.1386093" lon="105.935291"><ele>1140.81</ele><time>2026-03-27T23:32:12.000Z</time></trkpt>
        <trkpt lat="28.1385405" lon="105.935252"><ele>1141.11</ele><time>2026-03-27T23:33:48.000Z</time></trkpt>
        <trkpt lat="28.1384466" lon="105.9352483"><ele>1136.87</ele><time>2026-03-27T23:34:06.000Z</time></trkpt>
        <trkpt lat="28.1383547" lon="105.9352404"><ele>1135.18</ele><time>2026-03-27T23:34:18.000Z</time></trkpt>
        <trkpt lat="28.1382649" lon="105.9352243"><ele>1135.18</ele><time>2026-03-27T23:34:30.000Z</time></trkpt>
        <trkpt lat="28.1381805" lon="105.9352563"><ele>1134.57</ele><time>2026-03-27T23:35:12.000Z</time></trkpt>
        <trkpt lat="28.1380968" lon="105.9352962"><ele>1136.48</ele><time>2026-03-27T23:35:36.000Z</time></trkpt>
        <trkpt lat="28.1380019" lon="105.9353334"><ele>1138.39</ele><time>2026-03-27T23:36:04.000Z</time></trkpt>
        <trkpt lat="28.1379291" lon="105.9354001"><ele>1135.85</ele><time>2026-03-27T23:36:14.000Z</time></trkpt>
        <trkpt lat="28.1378623" lon="105.9354828"><ele>1134.65</ele><time>2026-03-27T23:36:26.000Z</time></trkpt>
        <trkpt lat="28.1377713" lon="105.9355212"><ele>1135.08</ele><time>2026-03-27T23:36:40.000Z</time></trkpt>
        <trkpt lat="28.137674" lon="105.9355218"><ele>1135.78</ele><time>2026-03-27T23:36:54.000Z</time></trkpt>
        <trkpt lat="28.1375774" lon="105.9354859"><ele>1137.28</ele><time>2026-03-27T23:37:06.000Z</time></trkpt>
        <trkpt lat="28.1374899" lon="105.9354296"><ele>1137.94</ele><time>2026-03-27T23:37:22.000Z</time></trkpt>
        <trkpt lat="28.1373953" lon="105.9354332"><ele>1137.2</ele><time>2026-03-27T23:37:36.000Z</time></trkpt>
        <trkpt lat="28.1373468" lon="105.9353599"><ele>1137.27</ele><time>2026-03-27T23:37:56.000Z</time></trkpt>
        <trkpt lat="28.1372711" lon="105.9353423"><ele>1134.65</ele><time>2026-03-27T23:38:12.000Z</time></trkpt>
        <trkpt lat="28.1371775" lon="105.935331"><ele>1135.37</ele><time>2026-03-27T23:38:24.000Z</time></trkpt>
        <trkpt lat="28.1370744" lon="105.9353151"><ele>1136.96</ele><time>2026-03-27T23:38:36.000Z</time></trkpt>
        <trkpt lat="28.1369788" lon="105.9353019"><ele>1138.91</ele><time>2026-03-27T23:38:46.000Z</time></trkpt>
        <trkpt lat="28.1368946" lon="105.9352594"><ele>1141.21</ele><time>2026-03-27T23:38:58.000Z</time></trkpt>
        <trkpt lat="28.1368653" lon="105.9351618"><ele>1141.4</ele><time>2026-03-27T23:39:12.000Z</time></trkpt>
        <trkpt lat="28.1368749" lon="105.9350483"><ele>1138.2</ele><time>2026-03-27T23:39:24.000Z</time></trkpt>
        <trkpt lat="28.1368507" lon="105.9349475"><ele>1136.45</ele><time>2026-03-27T23:39:36.000Z</time></trkpt>
        <trkpt lat="28.1367884" lon="105.9348719"><ele>1136.57</ele><time>2026-03-27T23:39:48.000Z</time></trkpt>
        <trkpt lat="28.1366909" lon="105.9348456"><ele>1137.25</ele><time>2026-03-27T23:40:00.000Z</time></trkpt>
        <trkpt lat="28.1365925" lon="105.9348505"><ele>1139.12</ele><time>2026-03-27T23:40:08.000Z</time></trkpt>
        <trkpt lat="28.1364894" lon="105.9348543"><ele>1141.18</ele><time>2026-03-27T23:40:18.000Z</time></trkpt>
        <trkpt lat="28.1363985" lon="105.9348016"><ele>1142.33</ele><time>2026-03-27T23:40:28.000Z</time></trkpt>
        <trkpt lat="28.1363605" lon="105.9347079"><ele>1142.28</ele><time>2026-03-27T23:40:38.000Z</time></trkpt>
        <trkpt lat="28.1363378" lon="105.9346026"><ele>1140.96</ele><time>2026-03-27T23:40:48.000Z</time></trkpt>
        <trkpt lat="28.1363152" lon="105.9344982"><ele>1139.71</ele><time>2026-03-27T23:40:59.000Z</time></trkpt>
        <trkpt lat="28.1363131" lon="105.9343765"><ele>1139.24</ele><time>2026-03-27T23:43:09.000Z</time></trkpt>
        <trkpt lat="28.1362946" lon="105.9343584"><ele>1139.72</ele><time>2026-03-27T23:43:13.000Z</time></trkpt>
        <trkpt lat="28.1362957" lon="105.9342617"><ele>1140.22</ele><time>2026-03-27T23:43:43.000Z</time></trkpt>
        <trkpt lat="28.1362752" lon="105.9341432"><ele>1141.42</ele><time>2026-03-27T23:44:19.000Z</time></trkpt>
        <trkpt lat="28.1362458" lon="105.9340334"><ele>1138.41</ele><time>2026-03-27T23:44:26.000Z</time></trkpt>
        <trkpt lat="28.1361585" lon="105.9339734"><ele>1135.67</ele><time>2026-03-27T23:44:56.000Z</time></trkpt>
        <trkpt lat="28.1361209" lon="105.9339478"><ele>1134.88</ele><time>2026-03-27T23:44:58.000Z</time></trkpt>
        <trkpt lat="28.1360973" lon="105.9338688"><ele>1134.44</ele><time>2026-03-27T23:45:18.000Z</time></trkpt>
        <trkpt lat="28.1360719" lon="105.9337686"><ele>1132.49</ele><time>2026-03-27T23:45:57.000Z</time></trkpt>
        <trkpt lat="28.1360144" lon="105.9336854"><ele>1127.69</ele><time>2026-03-27T23:46:11.000Z</time></trkpt>
        <trkpt lat="28.1359384" lon="105.9336115"><ele>1124.83</ele><time>2026-03-27T23:46:35.000Z</time></trkpt>
        <trkpt lat="28.1359169" lon="105.9335911"><ele>1123.94</ele><time>2026-03-27T23:46:37.000Z</time></trkpt>
        <trkpt lat="28.1358567" lon="105.9335439"><ele>1123.14</ele><time>2026-03-27T23:47:05.000Z</time></trkpt>
        <trkpt lat="28.135883" lon="105.9335949"><ele>1121.18</ele><time>2026-03-27T23:47:33.000Z</time></trkpt>
        <trkpt lat="28.1359404" lon="105.9337018"><ele>1114.94</ele><time>2026-03-27T23:47:43.000Z</time></trkpt>
        <trkpt lat="28.1359759" lon="105.9338338"><ele>1110.76</ele><time>2026-03-27T23:47:53.000Z</time></trkpt>
        <trkpt lat="28.1360256" lon="105.9339532"><ele>1108.28</ele><time>2026-03-27T23:48:07.000Z</time></trkpt>
        <trkpt lat="28.1360754" lon="105.9340545"><ele>1107.46</ele><time>2026-03-27T23:48:33.000Z</time></trkpt>
        <trkpt lat="28.1359876" lon="105.9340431"><ele>1108.18</ele><time>2026-03-27T23:50:31.000Z</time></trkpt>
        <trkpt lat="28.1359222" lon="105.9339714"><ele>1109.63</ele><time>2026-03-27T23:51:53.000Z</time></trkpt>
        <trkpt lat="28.1359263" lon="105.933867"><ele>1108.04</ele><time>2026-03-27T23:52:47.000Z</time></trkpt>
        <trkpt lat="28.1358349" lon="105.9338553"><ele>1105.88</ele><time>2026-03-27T23:56:47.000Z</time></trkpt>
        <trkpt lat="28.1358255" lon="105.9337504"><ele>1103.57</ele><time>2026-03-27T23:57:53.000Z</time></trkpt>
        <trkpt lat="28.135741" lon="105.9337033"><ele>1097</ele><time>2026-03-27T23:58:25.000Z</time></trkpt>
        <trkpt lat="28.1356471" lon="105.9336712"><ele>1091.71</ele><time>2026-03-27T23:58:55.000Z</time></trkpt>
        <trkpt lat="28.135561" lon="105.9336219"><ele>1088.04</ele><time>2026-03-28T00:00:41.000Z</time></trkpt>
        <trkpt lat="28.1355556" lon="105.933517"><ele>1081.25</ele><time>2026-03-28T00:00:57.000Z</time></trkpt>
        <trkpt lat="28.1355151" lon="105.9334237"><ele>1076.58</ele><time>2026-03-28T00:01:27.000Z</time></trkpt>
        <trkpt lat="28.1354245" lon="105.9333934"><ele>1070.09</ele><time>2026-03-28T00:02:03.000Z</time></trkpt>
        <trkpt lat="28.1353378" lon="105.9333523"><ele>1064.22</ele><time>2026-03-28T00:02:25.000Z</time></trkpt>
        <trkpt lat="28.1352898" lon="105.9333424"><ele>1060.68</ele><time>2026-03-28T00:02:31.000Z</time></trkpt>
        <trkpt lat="28.1352936" lon="105.9332633"><ele>1059.11</ele><time>2026-03-28T00:03:17.000Z</time></trkpt>
        <trkpt lat="28.1352333" lon="105.9332402"><ele>1053.75</ele><time>2026-03-28T00:04:11.000Z</time></trkpt>
        <trkpt lat="28.1351927" lon="105.9331601"><ele>1048.31</ele><time>2026-03-28T00:04:21.000Z</time></trkpt>
        <trkpt lat="28.1351237" lon="105.9331757"><ele>1044.04</ele><time>2026-03-28T00:04:47.000Z</time></trkpt>
        <trkpt lat="28.135083" lon="105.9331067"><ele>1041.57</ele><time>2026-03-28T00:04:59.000Z</time></trkpt>
        <trkpt lat="28.135129" lon="105.93302"><ele>1040.81</ele><time>2026-03-28T00:05:15.000Z</time></trkpt>
        <trkpt lat="28.1350828" lon="105.9329707"><ele>1037.05</ele><time>2026-03-28T00:05:43.000Z</time></trkpt>
        <trkpt lat="28.135" lon="105.9329885"><ele>1034.05</ele><time>2026-03-28T00:06:43.000Z</time></trkpt>
        <trkpt lat="28.1349483" lon="105.9329142"><ele>1027.81</ele><time>2026-03-28T00:08:11.000Z</time></trkpt>
        <trkpt lat="28.1349134" lon="105.9330175"><ele>1015.62</ele><time>2026-03-28T00:09:38.000Z</time></trkpt>
        <trkpt lat="28.1348299" lon="105.933068"><ele>998.09</ele><time>2026-03-28T00:10:16.000Z</time></trkpt>
        <trkpt lat="28.134743" lon="105.9331104"><ele>985.08</ele><time>2026-03-28T00:10:44.000Z</time></trkpt>
        <trkpt lat="28.1346527" lon="105.9331424"><ele>976.07</ele><time>2026-03-28T00:10:56.000Z</time></trkpt>
        <trkpt lat="28.1345488" lon="105.9331371"><ele>971.96</ele><time>2026-03-28T00:11:16.000Z</time></trkpt>
        <trkpt lat="28.1344527" lon="105.9331089"><ele>971.8</ele><time>2026-03-28T00:11:24.000Z</time></trkpt>
        <trkpt lat="28.1343671" lon="105.933131"><ele>972.2</ele><time>2026-03-28T00:11:44.000Z</time></trkpt>
        <trkpt lat="28.1342817" lon="105.9331806"><ele>970.23</ele><time>2026-03-28T00:12:12.000Z</time></trkpt>
        <trkpt lat="28.1341945" lon="105.9331795"><ele>968.23</ele><time>2026-03-28T00:12:26.000Z</time></trkpt>
        <trkpt lat="28.1340977" lon="105.9331591"><ele>968.33</ele><time>2026-03-28T00:12:56.000Z</time></trkpt>
        <trkpt lat="28.1339956" lon="105.9331407"><ele>967.04</ele><time>2026-03-28T00:13:10.000Z</time></trkpt>
        <trkpt lat="28.133906" lon="105.9330958"><ele>965.39</ele><time>2026-03-28T00:13:40.000Z</time></trkpt>
        <trkpt lat="28.1338165" lon="105.9330679"><ele>965.51</ele><time>2026-03-28T00:13:58.000Z</time></trkpt>
        <trkpt lat="28.1337638" lon="105.9331316"><ele>963.99</ele><time>2026-03-28T00:14:10.000Z</time></trkpt>
        <trkpt lat="28.1336821" lon="105.9332173"><ele>964.31</ele><time>2026-03-28T00:14:20.000Z</time></trkpt>
        <trkpt lat="28.1336084" lon="105.9333015"><ele>965.75</ele><time>2026-03-28T00:14:30.000Z</time></trkpt>
        <trkpt lat="28.1335184" lon="105.9332969"><ele>967.72</ele><time>2026-03-28T00:14:44.000Z</time></trkpt>
        <trkpt lat="28.1334411" lon="105.9332292"><ele>966.92</ele><time>2026-03-28T00:14:56.000Z</time></trkpt>
        <trkpt lat="28.1333517" lon="105.9331575"><ele>964.99</ele><time>2026-03-28T00:15:36.000Z</time></trkpt>
        <trkpt lat="28.1332492" lon="105.9331373"><ele>965.68</ele><time>2026-03-28T00:15:58.000Z</time></trkpt>
        <trkpt lat="28.1331773" lon="105.9331927"><ele>962.99</ele><time>2026-03-28T00:16:08.000Z</time></trkpt>
        <trkpt lat="28.133152" lon="105.9333053"><ele>960.79</ele><time>2026-03-28T00:16:20.000Z</time></trkpt>
        <trkpt lat="28.1331445" lon="105.9334254"><ele>960.06</ele><time>2026-03-28T00:16:30.000Z</time></trkpt>
        <trkpt lat="28.1331655" lon="105.9335561"><ele>959.74</ele><time>2026-03-28T00:16:40.000Z</time></trkpt>
        <trkpt lat="28.1332099" lon="105.9336646"><ele>959.71</ele><time>2026-03-28T00:16:50.000Z</time></trkpt>
        <trkpt lat="28.1332452" lon="105.9337688"><ele>958.22</ele><time>2026-03-28T00:17:02.000Z</time></trkpt>
        <trkpt lat="28.1332609" lon="105.9338823"><ele>956.95</ele><time>2026-03-28T00:17:14.000Z</time></trkpt>
        <trkpt lat="28.1332604" lon="105.9339937"><ele>954.1</ele><time>2026-03-28T00:17:36.000Z</time></trkpt>
        <trkpt lat="28.1331966" lon="105.9340618"><ele>950.06</ele><time>2026-03-28T00:18:00.000Z</time></trkpt>
        <trkpt lat="28.1331048" lon="105.9340915"><ele>945.42</ele><time>2026-03-28T00:18:10.000Z</time></trkpt>
        <trkpt lat="28.1329993" lon="105.9340821"><ele>943.04</ele><time>2026-03-28T00:18:20.000Z</time></trkpt>
        <trkpt lat="28.132971" lon="105.9340806"><ele>943.67</ele><time>2026-03-28T00:18:26.000Z</time></trkpt>
        <trkpt lat="28.1328987" lon="105.9341124"><ele>943.57</ele><time>2026-03-28T00:18:44.000Z</time></trkpt>
        <trkpt lat="28.1328196" lon="105.9341608"><ele>944.28</ele><time>2026-03-28T00:18:52.000Z</time></trkpt>
        <trkpt lat="28.1327258" lon="105.9341643"><ele>945</ele><time>2026-03-28T00:19:02.000Z</time></trkpt>
        <trkpt lat="28.1326294" lon="105.9341582"><ele>945.56</ele><time>2026-03-28T00:19:16.000Z</time></trkpt>
        <trkpt lat="28.1325341" lon="105.9341847"><ele>945.31</ele><time>2026-03-28T00:19:28.000Z</time></trkpt>
        <trkpt lat="28.1324352" lon="105.9342083"><ele>945.18</ele><time>2026-03-28T00:19:40.000Z</time></trkpt>
        <trkpt lat="28.1323409" lon="105.9342245"><ele>946.23</ele><time>2026-03-28T00:19:50.000Z</time></trkpt>
        <trkpt lat="28.1322688" lon="105.9342969"><ele>945.74</ele><time>2026-03-28T00:20:02.000Z</time></trkpt>
        <trkpt lat="28.132182" lon="105.9343594"><ele>942.8</ele><time>2026-03-28T00:20:14.000Z</time></trkpt>
        <trkpt lat="28.132085" lon="105.9343739"><ele>941.44</ele><time>2026-03-28T00:20:24.000Z</time></trkpt>
        <trkpt lat="28.1319885" lon="105.9343939"><ele>941.38</ele><time>2026-03-28T00:20:34.000Z</time></trkpt>
        <trkpt lat="28.1318947" lon="105.9344204"><ele>940.61</ele><time>2026-03-28T00:20:46.000Z</time></trkpt>
        <trkpt lat="28.1318001" lon="105.934432"><ele>940.86</ele><time>2026-03-28T00:21:06.000Z</time></trkpt>
        <trkpt lat="28.1317198" lon="105.9343908"><ele>941.45</ele><time>2026-03-28T00:21:22.000Z</time></trkpt>
        <trkpt lat="28.1316393" lon="105.9343384"><ele>940.39</ele><time>2026-03-28T00:21:42.000Z</time></trkpt>
        <trkpt lat="28.1315767" lon="105.9342544"><ele>939.33</ele><time>2026-03-28T00:21:58.000Z</time></trkpt>
        <trkpt lat="28.1315655" lon="105.934229"><ele>938.59</ele><time>2026-03-28T00:22:00.000Z</time></trkpt>
        <trkpt lat="28.1315043" lon="105.9341927"><ele>938.13</ele><time>2026-03-28T00:22:24.000Z</time></trkpt>
        <trkpt lat="28.1314207" lon="105.9342026"><ele>937.5</ele><time>2026-03-28T00:23:00.000Z</time></trkpt>
        <trkpt lat="28.1313399" lon="105.934165"><ele>937.4</ele><time>2026-03-28T00:23:48.000Z</time></trkpt>
        <trkpt lat="28.1312696" lon="105.9340963"><ele>933.95</ele><time>2026-03-28T00:24:04.000Z</time></trkpt>
        <trkpt lat="28.1311826" lon="105.934054"><ele>932.1</ele><time>2026-03-28T00:24:44.000Z</time></trkpt>
        <trkpt lat="28.1310928" lon="105.9340178"><ele>927.94</ele><time>2026-03-28T00:26:00.000Z</time></trkpt>
        <trkpt lat="28.1310216" lon="105.9339483"><ele>922.1</ele><time>2026-03-28T00:26:34.000Z</time></trkpt>
        <trkpt lat="28.1309555" lon="105.9338694"><ele>916.16</ele><time>2026-03-28T00:26:50.000Z</time></trkpt>
        <trkpt lat="28.1308826" lon="105.9338055"><ele>910.38</ele><time>2026-03-28T00:27:28.000Z</time></trkpt>
        <trkpt lat="28.1307887" lon="105.9337586"><ele>902.97</ele><time>2026-03-28T00:27:58.000Z</time></trkpt>
        <trkpt lat="28.1306988" lon="105.9337246"><ele>897.46</ele><time>2026-03-28T00:28:16.000Z</time></trkpt>
        <trkpt lat="28.1306287" lon="105.933659"><ele>892.58</ele><time>2026-03-28T00:29:06.000Z</time></trkpt>
        <trkpt lat="28.1306112" lon="105.9337221"><ele>884.83</ele><time>2026-03-28T00:29:46.000Z</time></trkpt>
        <trkpt lat="28.1306394" lon="105.9337865"><ele>879.23</ele><time>2026-03-28T00:29:54.000Z</time></trkpt>
        <trkpt lat="28.1306963" lon="105.9339122"><ele>875.93</ele><time>2026-03-28T00:31:02.000Z</time></trkpt>
        <trkpt lat="28.1307071" lon="105.9340281"><ele>872.75</ele><time>2026-03-28T00:31:18.000Z</time></trkpt>
        <trkpt lat="28.1307099" lon="105.9341385"><ele>870.76</ele><time>2026-03-28T00:31:32.000Z</time></trkpt>
        <trkpt lat="28.1306864" lon="105.9342418"><ele>870.8</ele><time>2026-03-28T00:32:08.000Z</time></trkpt>
        <trkpt lat="28.1306086" lon="105.9342493"><ele>869.02</ele><time>2026-03-28T00:32:28.000Z</time></trkpt>
        <trkpt lat="28.1305716" lon="105.9342196"><ele>863.53</ele><time>2026-03-28T00:32:40.000Z</time></trkpt>
        <trkpt lat="28.1305281" lon="105.9341356"><ele>857.74</ele><time>2026-03-28T00:32:58.000Z</time></trkpt>
        <trkpt lat="28.1304485" lon="105.9340647"><ele>852.46</ele><time>2026-03-28T00:33:34.000Z</time></trkpt>
        <trkpt lat="28.1303457" lon="105.9340266"><ele>847.41</ele><time>2026-03-28T00:34:14.000Z</time></trkpt>
        <trkpt lat="28.130256" lon="105.9339696"><ele>842.58</ele><time>2026-03-28T00:34:36.000Z</time></trkpt>
        <trkpt lat="28.1301738" lon="105.9338941"><ele>839.97</ele><time>2026-03-28T00:34:52.000Z</time></trkpt>
        <trkpt lat="28.1301055" lon="105.9338164"><ele>838.97</ele><time>2026-03-28T00:35:14.000Z</time></trkpt>
        <trkpt lat="28.1300203" lon="105.9337521"><ele>837.73</ele><time>2026-03-28T00:35:34.000Z</time></trkpt>
        <trkpt lat="28.1299358" lon="105.9336917"><ele>836.47</ele><time>2026-03-28T00:36:00.000Z</time></trkpt>
        <trkpt lat="28.1298542" lon="105.9336409"><ele>835.21</ele><time>2026-03-28T00:36:22.000Z</time></trkpt>
        <trkpt lat="28.1297834" lon="105.9335725"><ele>834.36</ele><time>2026-03-28T00:36:44.000Z</time></trkpt>
        <trkpt lat="28.1297708" lon="105.9334686"><ele>830.37</ele><time>2026-03-28T00:37:36.000Z</time></trkpt>
        <trkpt lat="28.1297058" lon="105.9334163"><ele>824.53</ele><time>2026-03-28T00:38:28.000Z</time></trkpt>
        <trkpt lat="28.1296651" lon="105.9334795"><ele>816.19</ele><time>2026-03-28T00:39:02.000Z</time></trkpt>
        <trkpt lat="28.129638" lon="105.9335891"><ele>807.81</ele><time>2026-03-28T00:39:36.000Z</time></trkpt>
        <trkpt lat="28.1295615" lon="105.9336349"><ele>800.1</ele><time>2026-03-28T00:40:04.000Z</time></trkpt>
        <trkpt lat="28.1294665" lon="105.9336251"><ele>795.06</ele><time>2026-03-28T00:40:22.000Z</time></trkpt>
        <trkpt lat="28.1293746" lon="105.9335814"><ele>790.44</ele><time>2026-03-28T00:40:48.000Z</time></trkpt>
        <trkpt lat="28.1292849" lon="105.9335331"><ele>786.59</ele><time>2026-03-28T00:41:20.000Z</time></trkpt>
        <trkpt lat="28.1291965" lon="105.933545"><ele>782.65</ele><time>2026-03-28T00:41:58.000Z</time></trkpt>
        <trkpt lat="28.1291057" lon="105.9335396"><ele>776.88</ele><time>2026-03-28T00:42:18.000Z</time></trkpt>
        <trkpt lat="28.1290109" lon="105.9335"><ele>772.6</ele><time>2026-03-28T00:42:32.000Z</time></trkpt>
        <trkpt lat="28.1289424" lon="105.9334247"><ele>769.53</ele><time>2026-03-28T00:43:00.000Z</time></trkpt>
        <trkpt lat="28.1288607" lon="105.9333755"><ele>767.52</ele><time>2026-03-28T00:43:14.000Z</time></trkpt>
        <trkpt lat="28.1287676" lon="105.9333556"><ele>767.78</ele><time>2026-03-28T00:43:40.000Z</time></trkpt>
        <trkpt lat="28.1286882" lon="105.9334072"><ele>765.12</ele><time>2026-03-28T00:44:10.000Z</time></trkpt>
        <trkpt lat="28.1286491" lon="105.9334607"><ele>765.4</ele><time>2026-03-28T00:44:28.000Z</time></trkpt>
        <trkpt lat="28.1286655" lon="105.9335534"><ele>763.78</ele><time>2026-03-28T00:44:48.000Z</time></trkpt>
        <trkpt lat="28.128715" lon="105.9336555"><ele>761.38</ele><time>2026-03-28T00:45:36.000Z</time></trkpt>
        <trkpt lat="28.1286686" lon="105.9336787"><ele>754.54</ele><time>2026-03-28T00:46:08.000Z</time></trkpt>
        <trkpt lat="28.1285874" lon="105.9336456"><ele>749.34</ele><time>2026-03-28T00:46:28.000Z</time></trkpt>
        <trkpt lat="28.128493" lon="105.9336021"><ele>743.17</ele><time>2026-03-28T00:47:02.000Z</time></trkpt>
        <trkpt lat="28.1283928" lon="105.9335443"><ele>736.03</ele><time>2026-03-28T00:48:16.000Z</time></trkpt>
        <trkpt lat="28.1283115" lon="105.933601"><ele>729.46</ele><time>2026-03-28T00:48:38.000Z</time></trkpt>
        <trkpt lat="28.1282141" lon="105.9335947"><ele>724.22</ele><time>2026-03-28T00:49:08.000Z</time></trkpt>
        <trkpt lat="28.1281338" lon="105.9335437"><ele>719.97</ele><time>2026-03-28T00:49:20.000Z</time></trkpt>
        <trkpt lat="28.1280622" lon="105.9334645"><ele>717.4</ele><time>2026-03-28T00:49:36.000Z</time></trkpt>
        <trkpt lat="28.1279877" lon="105.9333814"><ele>716.03</ele><time>2026-03-28T00:49:50.000Z</time></trkpt>
        <trkpt lat="28.1279154" lon="105.9333008"><ele>715.27</ele><time>2026-03-28T00:50:02.000Z</time></trkpt>
        <trkpt lat="28.1278495" lon="105.9332141"><ele>714.55</ele><time>2026-03-28T00:50:26.000Z</time></trkpt>
        <trkpt lat="28.1277809" lon="105.9331403"><ele>714.15</ele><time>2026-03-28T00:50:48.000Z</time></trkpt>
        <trkpt lat="28.1277088" lon="105.933067"><ele>713.09</ele><time>2026-03-28T00:51:10.000Z</time></trkpt>
        <trkpt lat="28.1276304" lon="105.9330087"><ele>712.86</ele><time>2026-03-28T00:51:26.000Z</time></trkpt>
        <trkpt lat="28.1275441" lon="105.9329578"><ele>711.97</ele><time>2026-03-28T00:51:40.000Z</time></trkpt>
        <trkpt lat="28.1275219" lon="105.9328702"><ele>711.1</ele><time>2026-03-28T00:52:34.000Z</time></trkpt>
        <trkpt lat="28.1275383" lon="105.9327508"><ele>710.45</ele><time>2026-03-28T00:54:12.000Z</time></trkpt>
        <trkpt lat="28.1274504" lon="105.9327234"><ele>709.51</ele><time>2026-03-28T00:54:28.000Z</time></trkpt>
        <trkpt lat="28.1273581" lon="105.9327639"><ele>708.85</ele><time>2026-03-28T00:54:46.000Z</time></trkpt>
        <trkpt lat="28.1273151" lon="105.9327769"><ele>709.03</ele><time>2026-03-28T00:55:00.000Z</time></trkpt>
        <trkpt lat="28.1273029" lon="105.9328664"><ele>708.1</ele><time>2026-03-28T00:55:28.000Z</time></trkpt>
        <trkpt lat="28.1273652" lon="105.9329539"><ele>708.65</ele><time>2026-03-28T00:55:44.000Z</time></trkpt>
        <trkpt lat="28.1274548" lon="105.9330296"><ele>708.16</ele><time>2026-03-28T00:55:58.000Z</time></trkpt>
        <trkpt lat="28.1275331" lon="105.9331055"><ele>706.41</ele><time>2026-03-28T00:56:10.000Z</time></trkpt>
        <trkpt lat="28.1276026" lon="105.9331824"><ele>704.94</ele><time>2026-03-28T00:56:22.000Z</time></trkpt>
        <trkpt lat="28.1276518" lon="105.933282"><ele>704.42</ele><time>2026-03-28T00:56:36.000Z</time></trkpt>
        <trkpt lat="28.1276805" lon="105.9333916"><ele>703.07</ele><time>2026-03-28T00:56:48.000Z</time></trkpt>
        <trkpt lat="28.1276839" lon="105.9335143"><ele>701.74</ele><time>2026-03-28T00:57:00.000Z</time></trkpt>
        <trkpt lat="28.1276095" lon="105.9335682"><ele>701.06</ele><time>2026-03-28T00:57:08.000Z</time></trkpt>
        <trkpt lat="28.1275199" lon="105.9336276"><ele>701.71</ele><time>2026-03-28T00:57:20.000Z</time></trkpt>
        <trkpt lat="28.1274334" lon="105.9336974"><ele>701.67</ele><time>2026-03-28T00:57:32.000Z</time></trkpt>
        <trkpt lat="28.1273413" lon="105.9337538"><ele>699.79</ele><time>2026-03-28T00:57:42.000Z</time></trkpt>
        <trkpt lat="28.1272488" lon="105.9337942"><ele>699.03</ele><time>2026-03-28T00:57:52.000Z</time></trkpt>
        <trkpt lat="28.1271608" lon="105.9338431"><ele>698.6</ele><time>2026-03-28T00:58:02.000Z</time></trkpt>
        <trkpt lat="28.1271128" lon="105.9339257"><ele>697.66</ele><time>2026-03-28T00:58:10.000Z</time></trkpt>
        <trkpt lat="28.1271043" lon="105.9340355"><ele>696.94</ele><time>2026-03-28T00:58:20.000Z</time></trkpt>
        <trkpt lat="28.1271111" lon="105.9341552"><ele>696.09</ele><time>2026-03-28T00:58:30.000Z</time></trkpt>
        <trkpt lat="28.1271003" lon="105.9342695"><ele>695.87</ele><time>2026-03-28T00:58:40.000Z</time></trkpt>
        <trkpt lat="28.1270646" lon="105.9343737"><ele>696.4</ele><time>2026-03-28T00:58:50.000Z</time></trkpt>
        <trkpt lat="28.1270101" lon="105.9344722"><ele>697.2</ele><time>2026-03-28T00:59:00.000Z</time></trkpt>
        <trkpt lat="28.1269566" lon="105.9345699"><ele>697.8</ele><time>2026-03-28T00:59:10.000Z</time></trkpt>
        <trkpt lat="28.1268967" lon="105.9346551"><ele>698.37</ele><time>2026-03-28T00:59:22.000Z</time></trkpt>
        <trkpt lat="28.1268328" lon="105.9347368"><ele>698.63</ele><time>2026-03-28T00:59:32.000Z</time></trkpt>
        <trkpt lat="28.1267697" lon="105.9348269"><ele>697.8</ele><time>2026-03-28T00:59:42.000Z</time></trkpt>
        <trkpt lat="28.1266841" lon="105.9348875"><ele>696.44</ele><time>2026-03-28T00:59:54.000Z</time></trkpt>
        <trkpt lat="28.1265913" lon="105.9349091"><ele>696.78</ele><time>2026-03-28T01:00:04.000Z</time></trkpt>
        <trkpt lat="28.1265008" lon="105.9349448"><ele>697.38</ele><time>2026-03-28T01:00:18.000Z</time></trkpt>
        <trkpt lat="28.1264049" lon="105.9349582"><ele>697.12</ele><time>2026-03-28T01:00:30.000Z</time></trkpt>
        <trkpt lat="28.1263074" lon="105.9349744"><ele>696.23</ele><time>2026-03-28T01:00:40.000Z</time></trkpt>
        <trkpt lat="28.1262085" lon="105.9349759"><ele>696.31</ele><time>2026-03-28T01:00:50.000Z</time></trkpt>
        <trkpt lat="28.1261173" lon="105.9349359"><ele>695.61</ele><time>2026-03-28T01:01:00.000Z</time></trkpt>
        <trkpt lat="28.1260732" lon="105.9350097"><ele>695.52</ele><time>2026-03-28T01:03:25.000Z</time></trkpt>
        <trkpt lat="28.1260095" lon="105.9351087"><ele>692.64</ele><time>2026-03-28T01:03:35.000Z</time></trkpt>
        <trkpt lat="28.1260037" lon="105.9352141"><ele>692.01</ele><time>2026-03-28T01:03:50.000Z</time></trkpt>
        <trkpt lat="28.1260332" lon="105.9353201"><ele>690.22</ele><time>2026-03-28T01:04:02.000Z</time></trkpt>
        <trkpt lat="28.1260854" lon="105.9354178"><ele>688.38</ele><time>2026-03-28T01:04:14.000Z</time></trkpt>
        <trkpt lat="28.1261413" lon="105.9355175"><ele>686.76</ele><time>2026-03-28T01:04:26.000Z</time></trkpt>
        <trkpt lat="28.1261864" lon="105.9356257"><ele>684.92</ele><time>2026-03-28T01:04:38.000Z</time></trkpt>
        <trkpt lat="28.1262337" lon="105.9357256"><ele>682.58</ele><time>2026-03-28T01:04:50.000Z</time></trkpt>
        <trkpt lat="28.1262818" lon="105.9358151"><ele>680.53</ele><time>2026-03-28T01:05:02.000Z</time></trkpt>
        <trkpt lat="28.1263366" lon="105.935897"><ele>677.4</ele><time>2026-03-28T01:05:12.000Z</time></trkpt>
        <trkpt lat="28.1263928" lon="105.9359934"><ele>674.34</ele><time>2026-03-28T01:05:22.000Z</time></trkpt>
        <trkpt lat="28.1264322" lon="105.9360926"><ele>672.91</ele><time>2026-03-28T01:05:32.000Z</time></trkpt>
        <trkpt lat="28.1264698" lon="105.9361904"><ele>671.1</ele><time>2026-03-28T01:05:42.000Z</time></trkpt>
        <trkpt lat="28.1264983" lon="105.9363023"><ele>670.2</ele><time>2026-03-28T01:05:52.000Z</time></trkpt>
        <trkpt lat="28.1265155" lon="105.936413"><ele>669.93</ele><time>2026-03-28T01:06:02.000Z</time></trkpt>
        <trkpt lat="28.126531" lon="105.9365266"><ele>669.78</ele><time>2026-03-28T01:06:12.000Z</time></trkpt>
        <trkpt lat="28.1265366" lon="105.9366459"><ele>668.83</ele><time>2026-03-28T01:06:22.000Z</time></trkpt>
        <trkpt lat="28.1265399" lon="105.9367683"><ele>667.45</ele><time>2026-03-28T01:06:32.000Z</time></trkpt>
        <trkpt lat="28.1265582" lon="105.9368895"><ele>665.62</ele><time>2026-03-28T01:06:42.000Z</time></trkpt>
        <trkpt lat="28.1264944" lon="105.9369404"><ele>663.72</ele><time>2026-03-28T01:06:54.000Z</time></trkpt>
        <trkpt lat="28.1264194" lon="105.9368753"><ele>660.94</ele><time>2026-03-28T01:07:04.000Z</time></trkpt>
        <trkpt lat="28.1263517" lon="105.93677"><ele>657.94</ele><time>2026-03-28T01:07:14.000Z</time></trkpt>
        <trkpt lat="28.1262809" lon="105.9366581"><ele>655.07</ele><time>2026-03-28T01:07:24.000Z</time></trkpt>
        <trkpt lat="28.1262074" lon="105.9365623"><ele>652.19</ele><time>2026-03-28T01:07:34.000Z</time></trkpt>
        <trkpt lat="28.1261295" lon="105.9364779"><ele>649.48</ele><time>2026-03-28T01:07:44.000Z</time></trkpt>
        <trkpt lat="28.1260504" lon="105.9363891"><ele>647.14</ele><time>2026-03-28T01:07:54.000Z</time></trkpt>
        <trkpt lat="28.1259757" lon="105.9363037"><ele>644.92</ele><time>2026-03-28T01:08:04.000Z</time></trkpt>
        <trkpt lat="28.1259141" lon="105.9362084"><ele>643.55</ele><time>2026-03-28T01:08:14.000Z</time></trkpt>
        <trkpt lat="28.1258704" lon="105.9362564"><ele>642.2</ele><time>2026-03-28T01:08:36.000Z</time></trkpt>
        <trkpt lat="28.1258745" lon="105.9363642"><ele>639.15</ele><time>2026-03-28T01:08:44.000Z</time></trkpt>
        <trkpt lat="28.1258868" lon="105.9364843"><ele>636.55</ele><time>2026-03-28T01:08:52.000Z</time></trkpt>
        <trkpt lat="28.1259015" lon="105.9366007"><ele>634.03</ele><time>2026-03-28T01:09:00.000Z</time></trkpt>
        <trkpt lat="28.1258805" lon="105.9367057"><ele>631.58</ele><time>2026-03-28T01:09:08.000Z</time></trkpt>
        <trkpt lat="28.1258547" lon="105.9368216"><ele>629.88</ele><time>2026-03-28T01:09:18.000Z</time></trkpt>
        <trkpt lat="28.1258345" lon="105.9368865"><ele>628.38</ele><time>2026-03-28T01:09:24.000Z</time></trkpt>
        <trkpt lat="28.1258268" lon="105.936981"><ele>627.95</ele><time>2026-03-28T01:09:38.000Z</time></trkpt>
        <trkpt lat="28.1258264" lon="105.9370865"><ele>626.38</ele><time>2026-03-28T01:09:46.000Z</time></trkpt>
        <trkpt lat="28.1258348" lon="105.9371999"><ele>624.85</ele><time>2026-03-28T01:09:54.000Z</time></trkpt>
        <trkpt lat="28.1258418" lon="105.9373175"><ele>623.52</ele><time>2026-03-28T01:10:04.000Z</time></trkpt>
        <trkpt lat="28.1258393" lon="105.9374417"><ele>622.69</ele><time>2026-03-28T01:10:14.000Z</time></trkpt>
        <trkpt lat="28.1258134" lon="105.9375579"><ele>621.7</ele><time>2026-03-28T01:10:24.000Z</time></trkpt>
        <trkpt lat="28.1257253" lon="105.9375851"><ele>620.75</ele><time>2026-03-28T01:10:32.000Z</time></trkpt>
        <trkpt lat="28.1256317" lon="105.9375359"><ele>618.17</ele><time>2026-03-28T01:10:40.000Z</time></trkpt>
        <trkpt lat="28.1255343" lon="105.9374807"><ele>616.61</ele><time>2026-03-28T01:10:50.000Z</time></trkpt>
        <trkpt lat="28.1254327" lon="105.9374429"><ele>615.14</ele><time>2026-03-28T01:11:10.000Z</time></trkpt>
        <trkpt lat="28.1253256" lon="105.9374437"><ele>613.35</ele><time>2026-03-28T01:11:24.000Z</time></trkpt>
        <trkpt lat="28.1252304" lon="105.937469"><ele>610.91</ele><time>2026-03-28T01:11:38.000Z</time></trkpt>
        <trkpt lat="28.1251676" lon="105.9374174"><ele>607.53</ele><time>2026-03-28T01:11:50.000Z</time></trkpt>
        <trkpt lat="28.1252079" lon="105.9373398"><ele>605.42</ele><time>2026-03-28T01:12:06.000Z</time></trkpt>
        <trkpt lat="28.1251563" lon="105.9373159"><ele>603.1</ele><time>2026-03-28T01:12:30.000Z</time></trkpt>
        <trkpt lat="28.1250851" lon="105.9373631"><ele>600.21</ele><time>2026-03-28T01:12:52.000Z</time></trkpt>
        <trkpt lat="28.1250577" lon="105.9374074"><ele>598.53</ele><time>2026-03-28T01:13:00.000Z</time></trkpt>
        <trkpt lat="28.1250272" lon="105.9375022"><ele>596.77</ele><time>2026-03-28T01:13:24.000Z</time></trkpt>
        <trkpt lat="28.1249535" lon="105.9375589"><ele>594.85</ele><time>2026-03-28T01:13:45.000Z</time></trkpt>
        <trkpt lat="28.1248683" lon="105.9375345"><ele>592.61</ele><time>2026-03-28T01:13:57.000Z</time></trkpt>
        <trkpt lat="28.1248072" lon="105.9374425"><ele>590.15</ele><time>2026-03-28T01:14:13.000Z</time></trkpt>
        <trkpt lat="28.1247193" lon="105.9374017"><ele>588.26</ele><time>2026-03-28T01:14:25.000Z</time></trkpt>
        <trkpt lat="28.1246334" lon="105.937443"><ele>586.36</ele><time>2026-03-28T01:14:35.000Z</time></trkpt>
        <trkpt lat="28.1245604" lon="105.9375145"><ele>584.83</ele><time>2026-03-28T01:14:45.000Z</time></trkpt>
        <trkpt lat="28.1244853" lon="105.9375847"><ele>582.76</ele><time>2026-03-28T01:14:55.000Z</time></trkpt>
        <trkpt lat="28.1244105" lon="105.9376601"><ele>580.95</ele><time>2026-03-28T01:15:05.000Z</time></trkpt>
        <trkpt lat="28.1243372" lon="105.9377328"><ele>578.73</ele><time>2026-03-28T01:15:15.000Z</time></trkpt>
        <trkpt lat="28.1242578" lon="105.9377896"><ele>576.32</ele><time>2026-03-28T01:15:25.000Z</time></trkpt>
        <trkpt lat="28.1241763" lon="105.9378373"><ele>573.67</ele><time>2026-03-28T01:15:35.000Z</time></trkpt>
        <trkpt lat="28.1240798" lon="105.937878"><ele>571.62</ele><time>2026-03-28T01:15:47.000Z</time></trkpt>
        <trkpt lat="28.1239914" lon="105.937921"><ele>570.17</ele><time>2026-03-28T01:15:57.000Z</time></trkpt>
        <trkpt lat="28.1239001" lon="105.9379722"><ele>567.99</ele><time>2026-03-28T01:16:07.000Z</time></trkpt>
        <trkpt lat="28.123811" lon="105.9380176"><ele>566.41</ele><time>2026-03-28T01:16:17.000Z</time></trkpt>
        <trkpt lat="28.1237194" lon="105.9380364"><ele>564.29</ele><time>2026-03-28T01:16:27.000Z</time></trkpt>
        <trkpt lat="28.1236178" lon="105.9380396"><ele>562.06</ele><time>2026-03-28T01:16:35.000Z</time></trkpt>
        <trkpt lat="28.1235174" lon="105.9380331"><ele>560.31</ele><time>2026-03-28T01:16:41.000Z</time></trkpt>
        <trkpt lat="28.1234797" lon="105.9381102"><ele>561.01</ele><time>2026-03-28T01:16:49.000Z</time></trkpt>
        <trkpt lat="28.1235042" lon="105.9382136"><ele>561.54</ele><time>2026-03-28T01:16:59.000Z</time></trkpt>
        <trkpt lat="28.1235902" lon="105.9382421"><ele>560.32</ele><time>2026-03-28T01:17:09.000Z</time></trkpt>
        <trkpt lat="28.1236987" lon="105.9382684"><ele>557.63</ele><time>2026-03-28T01:17:17.000Z</time></trkpt>
        <trkpt lat="28.1238134" lon="105.938282"><ele>555.58</ele><time>2026-03-28T01:17:27.000Z</time></trkpt>
        <trkpt lat="28.1239286" lon="105.938283"><ele>554.44</ele><time>2026-03-28T01:17:37.000Z</time></trkpt>
        <trkpt lat="28.1240382" lon="105.9382733"><ele>554.54</ele><time>2026-03-28T01:17:47.000Z</time></trkpt>
        <trkpt lat="28.1241378" lon="105.9382946"><ele>552.79</ele><time>2026-03-28T01:17:57.000Z</time></trkpt>
        <trkpt lat="28.1242254" lon="105.9383395"><ele>552.45</ele><time>2026-03-28T01:18:07.000Z</time></trkpt>
        <trkpt lat="28.1242868" lon="105.9384243"><ele>551.5</ele><time>2026-03-28T01:18:17.000Z</time></trkpt>
        <trkpt lat="28.1243194" lon="105.9385435"><ele>547.92</ele><time>2026-03-28T01:18:27.000Z</time></trkpt>
        <trkpt lat="28.1243045" lon="105.9386553"><ele>546.83</ele><time>2026-03-28T01:18:35.000Z</time></trkpt>
        <trkpt lat="28.1242355" lon="105.9387293"><ele>547.63</ele><time>2026-03-28T01:18:45.000Z</time></trkpt>
        <trkpt lat="28.1241566" lon="105.9388163"><ele>548.23</ele><time>2026-03-28T01:18:55.000Z</time></trkpt>
        <trkpt lat="28.1241182" lon="105.9389318"><ele>549.08</ele><time>2026-03-28T01:19:05.000Z</time></trkpt>
        <trkpt lat="28.1241132" lon="105.9390426"><ele>549.04</ele><time>2026-03-28T01:19:13.000Z</time></trkpt>
        <trkpt lat="28.1241628" lon="105.9391337"><ele>549.41</ele><time>2026-03-28T01:19:25.000Z</time></trkpt>
        <trkpt lat="28.1242391" lon="105.9392084"><ele>547.31</ele><time>2026-03-28T01:19:35.000Z</time></trkpt>
        <trkpt lat="28.1243126" lon="105.9393009"><ele>544.16</ele><time>2026-03-28T01:19:45.000Z</time></trkpt>
        <trkpt lat="28.1243821" lon="105.9393927"><ele>540.66</ele><time>2026-03-28T01:19:55.000Z</time></trkpt>
        <trkpt lat="28.1244638" lon="105.9394659"><ele>538.02</ele><time>2026-03-28T01:20:05.000Z</time></trkpt>
        <trkpt lat="28.124535" lon="105.9395525"><ele>536.48</ele><time>2026-03-28T01:20:15.000Z</time></trkpt>
        <trkpt lat="28.1245876" lon="105.9396451"><ele>534.32</ele><time>2026-03-28T01:20:23.000Z</time></trkpt>
        <trkpt lat="28.124605" lon="105.9397471"><ele>532.78</ele><time>2026-03-28T01:20:31.000Z</time></trkpt>
        <trkpt lat="28.1245749" lon="105.9398437"><ele>532.16</ele><time>2026-03-28T01:20:39.000Z</time></trkpt>
        <trkpt lat="28.1245256" lon="105.9399346"><ele>532.74</ele><time>2026-03-28T01:20:47.000Z</time></trkpt>
        <trkpt lat="28.1245067" lon="105.9400349"><ele>534.01</ele><time>2026-03-28T01:20:57.000Z</time></trkpt>
        <trkpt lat="28.1245228" lon="105.9401458"><ele>535.55</ele><time>2026-03-28T01:21:07.000Z</time></trkpt>
        <trkpt lat="28.1245339" lon="105.9402584"><ele>536.58</ele><time>2026-03-28T01:21:15.000Z</time></trkpt>
        <trkpt lat="28.1245376" lon="105.9403662"><ele>536.14</ele><time>2026-03-28T01:21:23.000Z</time></trkpt>
        <trkpt lat="28.1245466" lon="105.9404802"><ele>535.99</ele><time>2026-03-28T01:21:33.000Z</time></trkpt>
        <trkpt lat="28.1245632" lon="105.9405982"><ele>535.64</ele><time>2026-03-28T01:21:43.000Z</time></trkpt>
        <trkpt lat="28.124582" lon="105.9407171"><ele>534.23</ele><time>2026-03-28T01:21:53.000Z</time></trkpt>
        <trkpt lat="28.1245987" lon="105.9408424"><ele>533.12</ele><time>2026-03-28T01:22:03.000Z</time></trkpt>
        <trkpt lat="28.1246077" lon="105.9409578"><ele>531.6</ele><time>2026-03-28T01:22:13.000Z</time></trkpt>
        <trkpt lat="28.124619" lon="105.9410748"><ele>529.76</ele><time>2026-03-28T01:22:23.000Z</time></trkpt>
        <trkpt lat="28.1245808" lon="105.9411687"><ele>527.7</ele><time>2026-03-28T01:22:31.000Z</time></trkpt>
        <trkpt lat="28.1244892" lon="105.9411511"><ele>527.93</ele><time>2026-03-28T01:22:39.000Z</time></trkpt>
        <trkpt lat="28.1243954" lon="105.9410812"><ele>527.03</ele><time>2026-03-28T01:22:47.000Z</time></trkpt>
        <trkpt lat="28.1243118" lon="105.9409994"><ele>526.47</ele><time>2026-03-28T01:22:55.000Z</time></trkpt>
        <trkpt lat="28.1242305" lon="105.9409297"><ele>525.81</ele><time>2026-03-28T01:23:03.000Z</time></trkpt>
        <trkpt lat="28.124137" lon="105.9408921"><ele>526.41</ele><time>2026-03-28T01:23:13.000Z</time></trkpt>
        <trkpt lat="28.1240369" lon="105.9408657"><ele>527.69</ele><time>2026-03-28T01:23:23.000Z</time></trkpt>
        <trkpt lat="28.1239413" lon="105.9408587"><ele>527.86</ele><time>2026-03-28T01:23:33.000Z</time></trkpt>
        <trkpt lat="28.1238459" lon="105.9408753"><ele>526.25</ele><time>2026-03-28T01:23:43.000Z</time></trkpt>
        <trkpt lat="28.1237459" lon="105.9408692"><ele>525.24</ele><time>2026-03-28T01:23:53.000Z</time></trkpt>
        <trkpt lat="28.1236528" lon="105.940827"><ele>524.14</ele><time>2026-03-28T01:24:03.000Z</time></trkpt>
        <trkpt lat="28.1235632" lon="105.9407795"><ele>523.6</ele><time>2026-03-28T01:24:13.000Z</time></trkpt>
        <trkpt lat="28.1234846" lon="105.9407223"><ele>522.48</ele><time>2026-03-28T01:24:23.000Z</time></trkpt>
        <trkpt lat="28.1234096" lon="105.9406415"><ele>521.85</ele><time>2026-03-28T01:24:33.000Z</time></trkpt>
        <trkpt lat="28.1233333" lon="105.9405602"><ele>521.46</ele><time>2026-03-28T01:24:43.000Z</time></trkpt>
        <trkpt lat="28.1232556" lon="105.9404859"><ele>522.16</ele><time>2026-03-28T01:24:53.000Z</time></trkpt>
        <trkpt lat="28.1231852" lon="105.9404136"><ele>522.19</ele><time>2026-03-28T01:25:03.000Z</time></trkpt>
        <trkpt lat="28.1231098" lon="105.9403336"><ele>521.24</ele><time>2026-03-28T01:25:12.000Z</time></trkpt>
        <trkpt lat="28.1230334" lon="105.9402696"><ele>519.6</ele><time>2026-03-28T01:25:22.000Z</time></trkpt>
        <trkpt lat="28.1229446" lon="105.9402575"><ele>518.13</ele><time>2026-03-28T01:25:32.000Z</time></trkpt>
        <trkpt lat="28.1228417" lon="105.940255"><ele>516.77</ele><time>2026-03-28T01:25:42.000Z</time></trkpt>
        <trkpt lat="28.122736" lon="105.9402557"><ele>516.3</ele><time>2026-03-28T01:25:52.000Z</time></trkpt>
        <trkpt lat="28.1226257" lon="105.9402477"><ele>516.04</ele><time>2026-03-28T01:26:01.000Z</time></trkpt>
        <trkpt lat="28.1225131" lon="105.9402546"><ele>516.48</ele><time>2026-03-28T01:26:11.000Z</time></trkpt>
        <trkpt lat="28.1224017" lon="105.9402417"><ele>516.92</ele><time>2026-03-28T01:26:21.000Z</time></trkpt>
        <trkpt lat="28.1222911" lon="105.940226"><ele>516.72</ele><time>2026-03-28T01:26:31.000Z</time></trkpt>
        <trkpt lat="28.1221797" lon="105.9402221"><ele>516.9</ele><time>2026-03-28T01:26:41.000Z</time></trkpt>
        <trkpt lat="28.1220846" lon="105.9402334"><ele>516.7</ele><time>2026-03-28T01:26:49.000Z</time></trkpt>
        <trkpt lat="28.1219884" lon="105.9402452"><ele>516.32</ele><time>2026-03-28T01:26:59.000Z</time></trkpt>
        <trkpt lat="28.1218977" lon="105.9402718"><ele>514.94</ele><time>2026-03-28T01:27:07.000Z</time></trkpt>
        <trkpt lat="28.1218075" lon="105.940256"><ele>513</ele><time>2026-03-28T01:27:15.000Z</time></trkpt>
        <trkpt lat="28.121724" lon="105.9402116"><ele>510.58</ele><time>2026-03-28T01:27:23.000Z</time></trkpt>
        <trkpt lat="28.1216279" lon="105.9401903"><ele>509.08</ele><time>2026-03-28T01:27:33.000Z</time></trkpt>
        <trkpt lat="28.1215305" lon="105.9401688"><ele>508.82</ele><time>2026-03-28T01:27:41.000Z</time></trkpt>
        <trkpt lat="28.1214224" lon="105.9401621"><ele>507</ele><time>2026-03-28T01:27:51.000Z</time></trkpt>
        <trkpt lat="28.1213269" lon="105.9401396"><ele>504.82</ele><time>2026-03-28T01:27:59.000Z</time></trkpt>
        <trkpt lat="28.1212292" lon="105.94014"><ele>502.59</ele><time>2026-03-28T01:28:07.000Z</time></trkpt>
        <trkpt lat="28.1211398" lon="105.9401068"><ele>501.36</ele><time>2026-03-28T01:28:15.000Z</time></trkpt>
        <trkpt lat="28.1210364" lon="105.9401154"><ele>502.15</ele><time>2026-03-28T01:28:25.000Z</time></trkpt>
        <trkpt lat="28.120932" lon="105.9401137"><ele>501.84</ele><time>2026-03-28T01:28:35.000Z</time></trkpt>
        <trkpt lat="28.1208308" lon="105.9400762"><ele>501.03</ele><time>2026-03-28T01:28:45.000Z</time></trkpt>
        <trkpt lat="28.1207429" lon="105.9400152"><ele>500.89</ele><time>2026-03-28T01:28:55.000Z</time></trkpt>
        <trkpt lat="28.1206698" lon="105.9399338"><ele>500.57</ele><time>2026-03-28T01:29:03.000Z</time></trkpt>
        <trkpt lat="28.1206187" lon="105.9398333"><ele>500.43</ele><time>2026-03-28T01:29:11.000Z</time></trkpt>
        <trkpt lat="28.1205527" lon="105.9397471"><ele>498.49</ele><time>2026-03-28T01:29:19.000Z</time></trkpt>
        <trkpt lat="28.1204704" lon="105.9396855"><ele>497.72</ele><time>2026-03-28T01:29:27.000Z</time></trkpt>
        <trkpt lat="28.1203763" lon="105.9396312"><ele>496.28</ele><time>2026-03-28T01:29:37.000Z</time></trkpt>
        <trkpt lat="28.1202771" lon="105.9395717"><ele>497.07</ele><time>2026-03-28T01:29:47.000Z</time></trkpt>
        <trkpt lat="28.1201816" lon="105.9395171"><ele>496.85</ele><time>2026-03-28T01:29:55.000Z</time></trkpt>
        <trkpt lat="28.1200923" lon="105.9394653"><ele>495.81</ele><time>2026-03-28T01:30:03.000Z</time></trkpt>
        <trkpt lat="28.1200026" lon="105.9394225"><ele>494.66</ele><time>2026-03-28T01:30:11.000Z</time></trkpt>
        <trkpt lat="28.1199199" lon="105.9393659"><ele>493.83</ele><time>2026-03-28T01:30:19.000Z</time></trkpt>
        <trkpt lat="28.119839" lon="105.9393101"><ele>492.91</ele><time>2026-03-28T01:30:27.000Z</time></trkpt>
        <trkpt lat="28.1197572" lon="105.9392635"><ele>492.21</ele><time>2026-03-28T01:30:35.000Z</time></trkpt>
        <trkpt lat="28.1196723" lon="105.9392077"><ele>491.45</ele><time>2026-03-28T01:30:45.000Z</time></trkpt>
        <trkpt lat="28.1195854" lon="105.9391423"><ele>490.15</ele><time>2026-03-28T01:30:55.000Z</time></trkpt>
        <trkpt lat="28.1194943" lon="105.9391323"><ele>488.73</ele><time>2026-03-28T01:31:03.000Z</time></trkpt>
        <trkpt lat="28.1193971" lon="105.9391343"><ele>487.43</ele><time>2026-03-28T01:31:11.000Z</time></trkpt>
        <trkpt lat="28.1192911" lon="105.9391516"><ele>486.84</ele><time>2026-03-28T01:31:21.000Z</time></trkpt>
        <trkpt lat="28.1191824" lon="105.9391664"><ele>486.58</ele><time>2026-03-28T01:31:31.000Z</time></trkpt>
        <trkpt lat="28.119084" lon="105.9392193"><ele>486.05</ele><time>2026-03-28T01:31:41.000Z</time></trkpt>
        <trkpt lat="28.119006" lon="105.9392865"><ele>485.75</ele><time>2026-03-28T01:31:49.000Z</time></trkpt>
        <trkpt lat="28.1189996" lon="105.9393874"><ele>485.14</ele><time>2026-03-28T01:31:57.000Z</time></trkpt>
        <trkpt lat="28.1190249" lon="105.9394932"><ele>484.58</ele><time>2026-03-28T01:32:05.000Z</time></trkpt>
        <trkpt lat="28.1190292" lon="105.9396092"><ele>483.71</ele><time>2026-03-28T01:32:15.000Z</time></trkpt>
        <trkpt lat="28.1190472" lon="105.93973"><ele>482.99</ele><time>2026-03-28T01:32:25.000Z</time></trkpt>
        <trkpt lat="28.119047" lon="105.9398395"><ele>482.99</ele><time>2026-03-28T01:32:33.000Z</time></trkpt>
        <trkpt lat="28.1190531" lon="105.9399521"><ele>483.31</ele><time>2026-03-28T01:32:41.000Z</time></trkpt>
        <trkpt lat="28.1190439" lon="105.9400658"><ele>483.24</ele><time>2026-03-28T01:32:51.000Z</time></trkpt>
        <trkpt lat="28.1189912" lon="105.9401677"><ele>482.96</ele><time>2026-03-28T01:33:01.000Z</time></trkpt>
        <trkpt lat="28.118933" lon="105.9402604"><ele>482.68</ele><time>2026-03-28T01:33:09.000Z</time></trkpt>
        <trkpt lat="28.1188899" lon="105.9403629"><ele>482.74</ele><time>2026-03-28T01:33:19.000Z</time></trkpt>
        <trkpt lat="28.1188869" lon="105.9404698"><ele>482.18</ele><time>2026-03-28T01:33:27.000Z</time></trkpt>
        <trkpt lat="28.1189068" lon="105.9405904"><ele>480.86</ele><time>2026-03-28T01:33:35.000Z</time></trkpt>
        <trkpt lat="28.118942" lon="105.9407067"><ele>478.52</ele><time>2026-03-28T01:33:43.000Z</time></trkpt>
        <trkpt lat="28.11898" lon="105.9408152"><ele>476.63</ele><time>2026-03-28T01:33:51.000Z</time></trkpt>
        <trkpt lat="28.1189451" lon="105.940911"><ele>474.78</ele><time>2026-03-28T01:33:59.000Z</time></trkpt>
        <trkpt lat="28.1188566" lon="105.9409223"><ele>473.71</ele><time>2026-03-28T01:34:07.000Z</time></trkpt>
        <trkpt lat="28.1187532" lon="105.9408793"><ele>473.09</ele><time>2026-03-28T01:34:15.000Z</time></trkpt>
        <trkpt lat="28.1186693" lon="105.94079"><ele>472.32</ele><time>2026-03-28T01:34:23.000Z</time></trkpt>
        <trkpt lat="28.1186054" lon="105.9406729"><ele>471.01</ele><time>2026-03-28T01:34:32.000Z</time></trkpt>
        <trkpt lat="28.1185651" lon="105.9405513"><ele>469.29</ele><time>2026-03-28T01:34:41.000Z</time></trkpt>
        <trkpt lat="28.1185244" lon="105.9404284"><ele>467.21</ele><time>2026-03-28T01:34:49.000Z</time></trkpt>
        <trkpt lat="28.1184786" lon="105.9403216"><ele>466.32</ele><time>2026-03-28T01:34:57.000Z</time></trkpt>
        <trkpt lat="28.1184425" lon="105.9402199"><ele>465.44</ele><time>2026-03-28T01:35:07.000Z</time></trkpt>
        <trkpt lat="28.1184229" lon="105.9401183"><ele>464.44</ele><time>2026-03-28T01:35:13.000Z</time></trkpt>
        <trkpt lat="28.1183788" lon="105.9400261"><ele>463.53</ele><time>2026-03-28T01:35:19.000Z</time></trkpt>
        <trkpt lat="28.1183226" lon="105.9399263"><ele>463.8</ele><time>2026-03-28T01:35:27.000Z</time></trkpt>
        <trkpt lat="28.1182454" lon="105.9398478"><ele>464.01</ele><time>2026-03-28T01:35:35.000Z</time></trkpt>
        <trkpt lat="28.118158" lon="105.939788"><ele>464.71</ele><time>2026-03-28T01:35:43.000Z</time></trkpt>
        <trkpt lat="28.1180627" lon="105.9397643"><ele>466.4</ele><time>2026-03-28T01:35:51.000Z</time></trkpt>
        <trkpt lat="28.1179563" lon="105.9397618"><ele>467.31</ele><time>2026-03-28T01:35:59.000Z</time></trkpt>
        <trkpt lat="28.117851" lon="105.9397742"><ele>467.11</ele><time>2026-03-28T01:36:07.000Z</time></trkpt>
        <trkpt lat="28.1177469" lon="105.9397612"><ele>467.56</ele><time>2026-03-28T01:36:15.000Z</time></trkpt>
        <trkpt lat="28.1176413" lon="105.9397221"><ele>467.96</ele><time>2026-03-28T01:36:23.000Z</time></trkpt>
        <trkpt lat="28.1175576" lon="105.9396441"><ele>466.87</ele><time>2026-03-28T01:36:33.000Z</time></trkpt>
        <trkpt lat="28.1175034" lon="105.9395489"><ele>463.36</ele><time>2026-03-28T01:36:41.000Z</time></trkpt>
        <trkpt lat="28.1174599" lon="105.9394537"><ele>460.92</ele><time>2026-03-28T01:36:49.000Z</time></trkpt>
        <trkpt lat="28.117378" lon="105.9394338"><ele>458.39</ele><time>2026-03-28T01:36:59.000Z</time></trkpt>
        <trkpt lat="28.1173134" lon="105.9395062"><ele>456.85</ele><time>2026-03-28T01:37:07.000Z</time></trkpt>
        <trkpt lat="28.1172528" lon="105.9396008"><ele>457.15</ele><time>2026-03-28T01:37:15.000Z</time></trkpt>
        <trkpt lat="28.1171886" lon="105.9396918"><ele>457.24</ele><time>2026-03-28T01:37:23.000Z</time></trkpt>
        <trkpt lat="28.1171157" lon="105.9397697"><ele>456.49</ele><time>2026-03-28T01:37:31.000Z</time></trkpt>
        <trkpt lat="28.1170382" lon="105.9398397"><ele>455.05</ele><time>2026-03-28T01:37:39.000Z</time></trkpt>
        <trkpt lat="28.1169491" lon="105.9399069"><ele>454.03</ele><time>2026-03-28T01:37:49.000Z</time></trkpt>
        <trkpt lat="28.1168656" lon="105.9399709"><ele>453.31</ele><time>2026-03-28T01:37:57.000Z</time></trkpt>
        <trkpt lat="28.1167862" lon="105.9400282"><ele>451.82</ele><time>2026-03-28T01:38:05.000Z</time></trkpt>
        <trkpt lat="28.1167052" lon="105.9400802"><ele>450.38</ele><time>2026-03-28T01:38:13.000Z</time></trkpt>
        <trkpt lat="28.1166314" lon="105.9401412"><ele>450.45</ele><time>2026-03-28T01:38:21.000Z</time></trkpt>
        <trkpt lat="28.1165612" lon="105.9402055"><ele>449.78</ele><time>2026-03-28T01:38:29.000Z</time></trkpt>
        <trkpt lat="28.1165098" lon="105.9402937"><ele>449.31</ele><time>2026-03-28T01:38:37.000Z</time></trkpt>
        <trkpt lat="28.1165181" lon="105.940398"><ele>448.4</ele><time>2026-03-28T01:38:45.000Z</time></trkpt>
        <trkpt lat="28.1165506" lon="105.9405019"><ele>446.53</ele><time>2026-03-28T01:38:53.000Z</time></trkpt>
        <trkpt lat="28.116555" lon="105.9406215"><ele>444.39</ele><time>2026-03-28T01:39:03.000Z</time></trkpt>
        <trkpt lat="28.1165087" lon="105.9407099"><ele>441.63</ele><time>2026-03-28T01:39:11.000Z</time></trkpt>
        <trkpt lat="28.1164116" lon="105.9407464"><ele>440.51</ele><time>2026-03-28T01:39:21.000Z</time></trkpt>
        <trkpt lat="28.116296" lon="105.9407654"><ele>439.88</ele><time>2026-03-28T01:39:31.000Z</time></trkpt>
        <trkpt lat="28.1161933" lon="105.9407916"><ele>438.6</ele><time>2026-03-28T01:39:39.000Z</time></trkpt>
        <trkpt lat="28.116098" lon="105.9408176"><ele>437.79</ele><time>2026-03-28T01:39:47.000Z</time></trkpt>
        <trkpt lat="28.1160054" lon="105.940825"><ele>437.12</ele><time>2026-03-28T01:39:55.000Z</time></trkpt>
        <trkpt lat="28.1159137" lon="105.9408075"><ele>436.45</ele><time>2026-03-28T01:40:03.000Z</time></trkpt>
        <trkpt lat="28.1158175" lon="105.9407749"><ele>435.48</ele><time>2026-03-28T01:40:11.000Z</time></trkpt>
        <trkpt lat="28.1157206" lon="105.9407337"><ele>434.61</ele><time>2026-03-28T01:40:19.000Z</time></trkpt>
        <trkpt lat="28.1156295" lon="105.9406787"><ele>433.89</ele><time>2026-03-28T01:40:27.000Z</time></trkpt>
        <trkpt lat="28.1155429" lon="105.9406265"><ele>432.91</ele><time>2026-03-28T01:40:35.000Z</time></trkpt>
        <trkpt lat="28.1154563" lon="105.9405803"><ele>432.22</ele><time>2026-03-28T01:40:43.000Z</time></trkpt>
        <trkpt lat="28.1153792" lon="105.9405514"><ele>431.82</ele><time>2026-03-28T01:40:53.000Z</time></trkpt>
        <trkpt lat="28.1153448" lon="105.9404649"><ele>433.08</ele><time>2026-03-28T01:41:16.000Z</time></trkpt>
        <trkpt lat="28.1153508" lon="105.9403455"><ele>432.25</ele><time>2026-03-28T01:41:24.000Z</time></trkpt>
        <trkpt lat="28.1154178" lon="105.9402558"><ele>431.3</ele><time>2026-03-28T01:41:32.000Z</time></trkpt>
        <trkpt lat="28.1154837" lon="105.9401616"><ele>429.44</ele><time>2026-03-28T01:41:40.000Z</time></trkpt>
        <trkpt lat="28.115538" lon="105.9400611"><ele>425.76</ele><time>2026-03-28T01:41:48.000Z</time></trkpt>
        <trkpt lat="28.1155573" lon="105.9399511"><ele>423.03</ele><time>2026-03-28T01:41:56.000Z</time></trkpt>
        <trkpt lat="28.1155758" lon="105.9398458"><ele>420.8</ele><time>2026-03-28T01:42:04.000Z</time></trkpt>
        <trkpt lat="28.1155847" lon="105.9397325"><ele>418.73</ele><time>2026-03-28T01:42:12.000Z</time></trkpt>
        <trkpt lat="28.115559" lon="105.9396189"><ele>418.65</ele><time>2026-03-28T01:42:22.000Z</time></trkpt>
        <trkpt lat="28.1154977" lon="105.9395334"><ele>417.46</ele><time>2026-03-28T01:42:30.000Z</time></trkpt>
        <trkpt lat="28.1154135" lon="105.9394684"><ele>417.06</ele><time>2026-03-28T01:42:40.000Z</time></trkpt>
        <trkpt lat="28.1153127" lon="105.9394308"><ele>417.9</ele><time>2026-03-28T01:42:50.000Z</time></trkpt>
        <trkpt lat="28.1152134" lon="105.9394256"><ele>419.11</ele><time>2026-03-28T01:42:58.000Z</time></trkpt>
        <trkpt lat="28.1151014" lon="105.9394556"><ele>419.24</ele><time>2026-03-28T01:43:08.000Z</time></trkpt>
        <trkpt lat="28.1149907" lon="105.9394936"><ele>420.36</ele><time>2026-03-28T01:43:16.000Z</time></trkpt>
        <trkpt lat="28.1148893" lon="105.9395493"><ele>419.83</ele><time>2026-03-28T01:43:24.000Z</time></trkpt>
        <trkpt lat="28.1147989" lon="105.9396098"><ele>420.1</ele><time>2026-03-28T01:43:32.000Z</time></trkpt>
        <trkpt lat="28.1147124" lon="105.9396536"><ele>421</ele><time>2026-03-28T01:43:40.000Z</time></trkpt>
        <trkpt lat="28.114625" lon="105.9396863"><ele>422.44</ele><time>2026-03-28T01:43:48.000Z</time></trkpt>
        <trkpt lat="28.1145549" lon="105.9397509"><ele>422.9</ele><time>2026-03-28T01:43:56.000Z</time></trkpt>
        <trkpt lat="28.1144879" lon="105.9398307"><ele>422.32</ele><time>2026-03-28T01:44:06.000Z</time></trkpt>
        <trkpt lat="28.1144328" lon="105.9399314"><ele>421.35</ele><time>2026-03-28T01:44:16.000Z</time></trkpt>
        <trkpt lat="28.1143865" lon="105.9400285"><ele>420.53</ele><time>2026-03-28T01:44:24.000Z</time></trkpt>
        <trkpt lat="28.1143403" lon="105.9401362"><ele>418.88</ele><time>2026-03-28T01:44:34.000Z</time></trkpt>
        <trkpt lat="28.1142981" lon="105.940252"><ele>417.41</ele><time>2026-03-28T01:44:44.000Z</time></trkpt>
        <trkpt lat="28.1142294" lon="105.9403492"><ele>416.11</ele><time>2026-03-28T01:44:52.000Z</time></trkpt>
        <trkpt lat="28.1141517" lon="105.9404285"><ele>414.45</ele><time>2026-03-28T01:45:00.000Z</time></trkpt>
        <trkpt lat="28.1140874" lon="105.9405283"><ele>414.05</ele><time>2026-03-28T01:45:10.000Z</time></trkpt>
        <trkpt lat="28.114016" lon="105.9406009"><ele>413.44</ele><time>2026-03-28T01:45:18.000Z</time></trkpt>
        <trkpt lat="28.1139319" lon="105.9406548"><ele>412.56</ele><time>2026-03-28T01:45:26.000Z</time></trkpt>
        <trkpt lat="28.1138393" lon="105.9406943"><ele>412.68</ele><time>2026-03-28T01:45:34.000Z</time></trkpt>
        <trkpt lat="28.113749" lon="105.9407511"><ele>411.14</ele><time>2026-03-28T01:45:44.000Z</time></trkpt>
        <trkpt lat="28.1136557" lon="105.9408195"><ele>411.16</ele><time>2026-03-28T01:45:54.000Z</time></trkpt>
        <trkpt lat="28.1135758" lon="105.940883"><ele>410.84</ele><time>2026-03-28T01:46:02.000Z</time></trkpt>
        <trkpt lat="28.113508" lon="105.940979"><ele>410</ele><time>2026-03-28T01:46:12.000Z</time></trkpt>
        <trkpt lat="28.1134935" lon="105.9410937"><ele>409.05</ele><time>2026-03-28T01:46:20.000Z</time></trkpt>
        <trkpt lat="28.113514" lon="105.9412029"><ele>406.22</ele><time>2026-03-28T01:46:28.000Z</time></trkpt>
        <trkpt lat="28.1135352" lon="105.9413093"><ele>404.15</ele><time>2026-03-28T01:46:36.000Z</time></trkpt>
        <trkpt lat="28.1135666" lon="105.9414115"><ele>403.1</ele><time>2026-03-28T01:46:44.000Z</time></trkpt>
        <trkpt lat="28.1136084" lon="105.9415198"><ele>402.03</ele><time>2026-03-28T01:46:54.000Z</time></trkpt>
        <trkpt lat="28.1136397" lon="105.9416404"><ele>400.98</ele><time>2026-03-28T01:47:04.000Z</time></trkpt>
        <trkpt lat="28.1136223" lon="105.9417441"><ele>400.56</ele><time>2026-03-28T01:47:12.000Z</time></trkpt>
        <trkpt lat="28.1135442" lon="105.9418014"><ele>398.95</ele><time>2026-03-28T01:47:20.000Z</time></trkpt>
        <trkpt lat="28.1134417" lon="105.9417774"><ele>398.77</ele><time>2026-03-28T01:47:28.000Z</time></trkpt>
        <trkpt lat="28.1133485" lon="105.9417113"><ele>397.49</ele><time>2026-03-28T01:47:36.000Z</time></trkpt>
        <trkpt lat="28.1132635" lon="105.9416281"><ele>394.99</ele><time>2026-03-28T01:47:44.000Z</time></trkpt>
        <trkpt lat="28.1132009" lon="105.9415325"><ele>391.38</ele><time>2026-03-28T01:47:52.000Z</time></trkpt>
        <trkpt lat="28.1131589" lon="105.9414298"><ele>388.19</ele><time>2026-03-28T01:48:00.000Z</time></trkpt>
        <trkpt lat="28.1131395" lon="105.9413194"><ele>385.89</ele><time>2026-03-28T01:48:08.000Z</time></trkpt>
        <trkpt lat="28.1131164" lon="105.9412144"><ele>384.67</ele><time>2026-03-28T01:48:16.000Z</time></trkpt>
        <trkpt lat="28.1130563" lon="105.9411341"><ele>384.21</ele><time>2026-03-28T01:48:26.000Z</time></trkpt>
        <trkpt lat="28.1129585" lon="105.9410989"><ele>384.32</ele><time>2026-03-28T01:48:36.000Z</time></trkpt>
        <trkpt lat="28.1128604" lon="105.9411049"><ele>384.84</ele><time>2026-03-28T01:48:44.000Z</time></trkpt>
        <trkpt lat="28.1127567" lon="105.941098"><ele>386.24</ele><time>2026-03-28T01:48:52.000Z</time></trkpt>
        <trkpt lat="28.1126601" lon="105.941102"><ele>387.11</ele><time>2026-03-28T01:49:00.000Z</time></trkpt>
        <trkpt lat="28.1125627" lon="105.9411079"><ele>385.99</ele><time>2026-03-28T01:49:08.000Z</time></trkpt>
        <trkpt lat="28.1124692" lon="105.9411387"><ele>383.85</ele><time>2026-03-28T01:49:16.000Z</time></trkpt>
        <trkpt lat="28.112373" lon="105.9411504"><ele>384.51</ele><time>2026-03-28T01:49:24.000Z</time></trkpt>
        <trkpt lat="28.1122705" lon="105.9411556"><ele>386.84</ele><time>2026-03-28T01:49:32.000Z</time></trkpt>
        <trkpt lat="28.1121776" lon="105.9411864"><ele>388.3</ele><time>2026-03-28T01:49:40.000Z</time></trkpt>
        <trkpt lat="28.1120829" lon="105.9411882"><ele>388.09</ele><time>2026-03-28T01:49:48.000Z</time></trkpt>
        <trkpt lat="28.1119927" lon="105.9412145"><ele>385.23</ele><time>2026-03-28T01:49:56.000Z</time></trkpt>
        <trkpt lat="28.111904" lon="105.9412096"><ele>383.16</ele><time>2026-03-28T01:50:04.000Z</time></trkpt>
        <trkpt lat="28.1118142" lon="105.9412158"><ele>383.37</ele><time>2026-03-28T01:50:12.000Z</time></trkpt>
        <trkpt lat="28.1117108" lon="105.941228"><ele>383.57</ele><time>2026-03-28T01:50:22.000Z</time></trkpt>
        <trkpt lat="28.1116059" lon="105.9412277"><ele>382.16</ele><time>2026-03-28T01:50:32.000Z</time></trkpt>
        <trkpt lat="28.111494" lon="105.9412263"><ele>381.07</ele><time>2026-03-28T01:50:42.000Z</time></trkpt>
        <trkpt lat="28.1115349" lon="105.9411867"><ele>381.84</ele><time>2026-03-28T01:50:52.000Z</time></trkpt>
        <trkpt lat="28.1116409" lon="105.9412023"><ele>379.95</ele><time>2026-03-28T01:51:00.000Z</time></trkpt>
        <trkpt lat="28.1117374" lon="105.9412642"><ele>376.84</ele><time>2026-03-28T01:51:08.000Z</time></trkpt>
        <trkpt lat="28.1117914" lon="105.9413672"><ele>375.62</ele><time>2026-03-28T01:51:16.000Z</time></trkpt>
        <trkpt lat="28.1118076" lon="105.9413149"><ele>375.72</ele><time>2026-03-28T01:51:40.000Z</time></trkpt>
        <trkpt lat="28.1117557" lon="105.9412371"><ele>376.11</ele><time>2026-03-28T01:51:50.000Z</time></trkpt>
        <trkpt lat="28.1116598" lon="105.9412275"><ele>375.4</ele><time>2026-03-28T01:51:56.000Z</time></trkpt>
        <trkpt lat="28.1115439" lon="105.9412294"><ele>374.3</ele><time>2026-03-28T01:52:04.000Z</time></trkpt>
        <trkpt lat="28.1114353" lon="105.9412367"><ele>374.11</ele><time>2026-03-28T01:52:12.000Z</time></trkpt>
        <trkpt lat="28.1113307" lon="105.941239"><ele>377.66</ele><time>2026-03-28T01:52:20.000Z</time></trkpt>
        <trkpt lat="28.1112207" lon="105.9412375"><ele>380.77</ele><time>2026-03-28T01:52:28.000Z</time></trkpt>
        <trkpt lat="28.1111226" lon="105.9412038"><ele>383.09</ele><time>2026-03-28T01:52:36.000Z</time></trkpt>
        <trkpt lat="28.1110662" lon="105.9411661"><ele>383.04</ele><time>2026-03-28T01:52:42.000Z</time></trkpt>
        <trkpt lat="28.1110022" lon="105.9411067"><ele>384.67</ele><time>2026-03-28T01:52:52.000Z</time></trkpt>
        <trkpt lat="28.1109003" lon="105.9411162"><ele>385.06</ele><time>2026-03-28T01:53:00.000Z</time></trkpt>
        <trkpt lat="28.1108157" lon="105.9411733"><ele>386.35</ele><time>2026-03-28T01:53:08.000Z</time></trkpt>
        <trkpt lat="28.1107075" lon="105.941202"><ele>388.24</ele><time>2026-03-28T01:53:18.000Z</time></trkpt>
        <trkpt lat="28.1106077" lon="105.9412016"><ele>390.67</ele><time>2026-03-28T01:53:28.000Z</time></trkpt>
        <trkpt lat="28.1105048" lon="105.9412044"><ele>391.21</ele><time>2026-03-28T01:53:36.000Z</time></trkpt>
        <trkpt lat="28.1103979" lon="105.9412203"><ele>391.38</ele><time>2026-03-28T01:53:46.000Z</time></trkpt>
        <trkpt lat="28.1103002" lon="105.9412496"><ele>390.96</ele><time>2026-03-28T01:53:54.000Z</time></trkpt>
        <trkpt lat="28.1102165" lon="105.9413032"><ele>390.16</ele><time>2026-03-28T01:54:02.000Z</time></trkpt>
        <trkpt lat="28.1101494" lon="105.9413803"><ele>388.78</ele><time>2026-03-28T01:54:10.000Z</time></trkpt>
        <trkpt lat="28.110077" lon="105.9414566"><ele>387.94</ele><time>2026-03-28T01:54:18.000Z</time></trkpt>
        <trkpt lat="28.1100082" lon="105.9415466"><ele>386.95</ele><time>2026-03-28T01:54:28.000Z</time></trkpt>
        <trkpt lat="28.1099408" lon="105.9416342"><ele>386.97</ele><time>2026-03-28T01:54:38.000Z</time></trkpt>
        <trkpt lat="28.1098654" lon="105.9417152"><ele>388.33</ele><time>2026-03-28T01:54:48.000Z</time></trkpt>
        <trkpt lat="28.1097932" lon="105.9417881"><ele>389.8</ele><time>2026-03-28T01:54:56.000Z</time></trkpt>
        <trkpt lat="28.1097159" lon="105.9418637"><ele>391.58</ele><time>2026-03-28T01:55:06.000Z</time></trkpt>
        <trkpt lat="28.1096334" lon="105.9419373"><ele>393</ele><time>2026-03-28T01:55:16.000Z</time></trkpt>
        <trkpt lat="28.1095652" lon="105.9420165"><ele>393.38</ele><time>2026-03-28T01:55:24.000Z</time></trkpt>
        <trkpt lat="28.1095085" lon="105.9421105"><ele>395.05</ele><time>2026-03-28T01:55:32.000Z</time></trkpt>
        <trkpt lat="28.1094405" lon="105.9421969"><ele>394.88</ele><time>2026-03-28T01:55:40.000Z</time></trkpt>
        <trkpt lat="28.1093643" lon="105.9422574"><ele>394.64</ele><time>2026-03-28T01:55:48.000Z</time></trkpt>
        <trkpt lat="28.109281" lon="105.9423171"><ele>394.15</ele><time>2026-03-28T01:55:56.000Z</time></trkpt>
        <trkpt lat="28.1091801" lon="105.9423482"><ele>394.15</ele><time>2026-03-28T01:56:04.000Z</time></trkpt>
        <trkpt lat="28.1090835" lon="105.9423904"><ele>393.75</ele><time>2026-03-28T01:56:12.000Z</time></trkpt>
        <trkpt lat="28.109002" lon="105.9424421"><ele>393.01</ele><time>2026-03-28T01:56:20.000Z</time></trkpt>
        <trkpt lat="28.1089263" lon="105.9425021"><ele>392.07</ele><time>2026-03-28T01:56:28.000Z</time></trkpt>
        <trkpt lat="28.1088568" lon="105.9425844"><ele>391.44</ele><time>2026-03-28T01:56:38.000Z</time></trkpt>
        <trkpt lat="28.10882" lon="105.9426832"><ele>391.16</ele><time>2026-03-28T01:56:46.000Z</time></trkpt>
        <trkpt lat="28.1087904" lon="105.9427883"><ele>391.17</ele><time>2026-03-28T01:56:56.000Z</time></trkpt>
        <trkpt lat="28.1087544" lon="105.9428964"><ele>391.44</ele><time>2026-03-28T01:57:04.000Z</time></trkpt>
        <trkpt lat="28.108693" lon="105.942993"><ele>390.64</ele><time>2026-03-28T01:57:12.000Z</time></trkpt>
        <trkpt lat="28.1086263" lon="105.9430822"><ele>389.15</ele><time>2026-03-28T01:57:20.000Z</time></trkpt>
        <trkpt lat="28.1085505" lon="105.9431702"><ele>387.99</ele><time>2026-03-28T01:57:32.000Z</time></trkpt>
        <trkpt lat="28.1084946" lon="105.9432584"><ele>386.44</ele><time>2026-03-28T01:57:40.000Z</time></trkpt>
        <trkpt lat="28.1084476" lon="105.9433485"><ele>385.27</ele><time>2026-03-28T01:57:48.000Z</time></trkpt>
        <trkpt lat="28.1084109" lon="105.9434482"><ele>384.95</ele><time>2026-03-28T01:57:56.000Z</time></trkpt>
        <trkpt lat="28.108369" lon="105.9435419"><ele>385.03</ele><time>2026-03-28T01:58:04.000Z</time></trkpt>
        <trkpt lat="28.108296" lon="105.9435942"><ele>384.75</ele><time>2026-03-28T01:58:16.000Z</time></trkpt>
        <trkpt lat="28.108219" lon="105.9436646"><ele>383.69</ele><time>2026-03-28T01:58:26.000Z</time></trkpt>
        <trkpt lat="28.1081419" lon="105.9437252"><ele>383.72</ele><time>2026-03-28T01:58:34.000Z</time></trkpt>
        <trkpt lat="28.1080667" lon="105.9437877"><ele>382.33</ele><time>2026-03-28T01:58:42.000Z</time></trkpt>
        <trkpt lat="28.1079934" lon="105.9438641"><ele>381.21</ele><time>2026-03-28T01:58:50.000Z</time></trkpt>
        <trkpt lat="28.1079228" lon="105.9439508"><ele>381.25</ele><time>2026-03-28T01:58:58.000Z</time></trkpt>
        <trkpt lat="28.1078664" lon="105.9440535"><ele>381.22</ele><time>2026-03-28T01:59:06.000Z</time></trkpt>
        <trkpt lat="28.1078102" lon="105.9441409"><ele>381.05</ele><time>2026-03-28T01:59:12.000Z</time></trkpt>
        <trkpt lat="28.1077377" lon="105.9442198"><ele>380.66</ele><time>2026-03-28T01:59:20.000Z</time></trkpt>
        <trkpt lat="28.1076595" lon="105.9442865"><ele>380.5</ele><time>2026-03-28T01:59:28.000Z</time></trkpt>
        <trkpt lat="28.1075828" lon="105.9443501"><ele>380.8</ele><time>2026-03-28T01:59:36.000Z</time></trkpt>
        <trkpt lat="28.1075221" lon="105.9444301"><ele>380.86</ele><time>2026-03-28T01:59:44.000Z</time></trkpt>
        <trkpt lat="28.1074661" lon="105.9445291"><ele>381.16</ele><time>2026-03-28T01:59:54.000Z</time></trkpt>
        <trkpt lat="28.1074454" lon="105.9445668"><ele>380.13</ele><time>2026-03-28T02:00:00.000Z</time></trkpt>
        <trkpt lat="28.1073922" lon="105.9446385"><ele>379.92</ele><time>2026-03-28T02:00:12.000Z</time></trkpt>
        <trkpt lat="28.1073289" lon="105.9447275"><ele>378.74</ele><time>2026-03-28T02:00:20.000Z</time></trkpt>
        <trkpt lat="28.1072651" lon="105.9448175"><ele>377.62</ele><time>2026-03-28T02:00:28.000Z</time></trkpt>
        <trkpt lat="28.1071985" lon="105.9449193"><ele>376.48</ele><time>2026-03-28T02:00:36.000Z</time></trkpt>
        <trkpt lat="28.1071406" lon="105.9450185"><ele>376.07</ele><time>2026-03-28T02:00:44.000Z</time></trkpt>
        <trkpt lat="28.1070941" lon="105.945116"><ele>375.95</ele><time>2026-03-28T02:00:52.000Z</time></trkpt>
        <trkpt lat="28.1070569" lon="105.9452213"><ele>375.99</ele><time>2026-03-28T02:01:00.000Z</time></trkpt>
        <trkpt lat="28.1070184" lon="105.9453229"><ele>376.21</ele><time>2026-03-28T02:01:08.000Z</time></trkpt>
        <trkpt lat="28.1069577" lon="105.945409"><ele>376.32</ele><time>2026-03-28T02:01:16.000Z</time></trkpt>
        <trkpt lat="28.1069013" lon="105.9455107"><ele>375.73</ele><time>2026-03-28T02:01:26.000Z</time></trkpt>
        <trkpt lat="28.1068196" lon="105.9455944"><ele>375.39</ele><time>2026-03-28T02:01:36.000Z</time></trkpt>
        <trkpt lat="28.1067169" lon="105.9456286"><ele>375.51</ele><time>2026-03-28T02:01:46.000Z</time></trkpt>
        <trkpt lat="28.1066051" lon="105.9456458"><ele>376.82</ele><time>2026-03-28T02:01:56.000Z</time></trkpt>
        <trkpt lat="28.106504" lon="105.9456361"><ele>378.3</ele><time>2026-03-28T02:02:04.000Z</time></trkpt>
        <trkpt lat="28.1064103" lon="105.9455967"><ele>379.5</ele><time>2026-03-28T02:02:11.000Z</time></trkpt>
        <trkpt lat="28.1063145" lon="105.9455601"><ele>380.8</ele><time>2026-03-28T02:02:19.000Z</time></trkpt>
        <trkpt lat="28.1062218" lon="105.9455331"><ele>382.37</ele><time>2026-03-28T02:02:27.000Z</time></trkpt>
        <trkpt lat="28.1061261" lon="105.9455152"><ele>383.06</ele><time>2026-03-28T02:02:35.000Z</time></trkpt>
        <trkpt lat="28.1060298" lon="105.9455155"><ele>383.1</ele><time>2026-03-28T02:02:43.000Z</time></trkpt>
        <trkpt lat="28.1059192" lon="105.9455212"><ele>382.1</ele><time>2026-03-28T02:02:53.000Z</time></trkpt>
        <trkpt lat="28.1058195" lon="105.9455219"><ele>381.19</ele><time>2026-03-28T02:03:01.000Z</time></trkpt>
        <trkpt lat="28.1057163" lon="105.9455005"><ele>380.38</ele><time>2026-03-28T02:03:11.000Z</time></trkpt>
        <trkpt lat="28.105615" lon="105.9455164"><ele>379.29</ele><time>2026-03-28T02:03:19.000Z</time></trkpt>
        <trkpt lat="28.105524" lon="105.9455604"><ele>378.03</ele><time>2026-03-28T02:03:27.000Z</time></trkpt>
        <trkpt lat="28.1054333" lon="105.9456144"><ele>376.77</ele><time>2026-03-28T02:03:35.000Z</time></trkpt>
        <trkpt lat="28.1053504" lon="105.9456789"><ele>375.38</ele><time>2026-03-28T02:03:43.000Z</time></trkpt>
        <trkpt lat="28.1052776" lon="105.9457514"><ele>374.63</ele><time>2026-03-28T02:03:51.000Z</time></trkpt>
        <trkpt lat="28.1052135" lon="105.9458289"><ele>374.01</ele><time>2026-03-28T02:03:59.000Z</time></trkpt>
        <trkpt lat="28.1051576" lon="105.9459139"><ele>373.4</ele><time>2026-03-28T02:04:07.000Z</time></trkpt>
        <trkpt lat="28.105098" lon="105.9460103"><ele>373.61</ele><time>2026-03-28T02:04:17.000Z</time></trkpt>
        <trkpt lat="28.1050512" lon="105.9461051"><ele>374.09</ele><time>2026-03-28T02:04:25.000Z</time></trkpt>
        <trkpt lat="28.105019" lon="105.9462027"><ele>374.31</ele><time>2026-03-28T02:04:33.000Z</time></trkpt>
        <trkpt lat="28.1049507" lon="105.9462751"><ele>374.59</ele><time>2026-03-28T02:04:41.000Z</time></trkpt>
        <trkpt lat="28.1049315" lon="105.9463747"><ele>375.5</ele><time>2026-03-28T02:04:49.000Z</time></trkpt>
        <trkpt lat="28.1049361" lon="105.9464939"><ele>375.38</ele><time>2026-03-28T02:04:57.000Z</time></trkpt>
        <trkpt lat="28.1049215" lon="105.9466099"><ele>374.24</ele><time>2026-03-28T02:05:05.000Z</time></trkpt>
        <trkpt lat="28.1049201" lon="105.9467169"><ele>373.54</ele><time>2026-03-28T02:05:13.000Z</time></trkpt>
        <trkpt lat="28.1048948" lon="105.9468283"><ele>374.25</ele><time>2026-03-28T02:05:21.000Z</time></trkpt>
        <trkpt lat="28.1048381" lon="105.946927"><ele>375.61</ele><time>2026-03-28T02:05:29.000Z</time></trkpt>
        <trkpt lat="28.104749" lon="105.9470089"><ele>375.09</ele><time>2026-03-28T02:05:37.000Z</time></trkpt>
        <trkpt lat="28.1046453" lon="105.9470552"><ele>375.17</ele><time>2026-03-28T02:05:45.000Z</time></trkpt>
        <trkpt lat="28.1045503" lon="105.9471017"><ele>373.83</ele><time>2026-03-28T02:05:53.000Z</time></trkpt>
        <trkpt lat="28.1044741" lon="105.947192"><ele>374.21</ele><time>2026-03-28T02:06:03.000Z</time></trkpt>
        <trkpt lat="28.1044136" lon="105.9472838"><ele>376.16</ele><time>2026-03-28T02:06:11.000Z</time></trkpt>
        <trkpt lat="28.1043258" lon="105.9473338"><ele>376.17</ele><time>2026-03-28T02:06:21.000Z</time></trkpt>
        <trkpt lat="28.1042288" lon="105.947381"><ele>375.2</ele><time>2026-03-28T02:06:31.000Z</time></trkpt>
        <trkpt lat="28.1041474" lon="105.9474537"><ele>373.49</ele><time>2026-03-28T02:06:39.000Z</time></trkpt>
        <trkpt lat="28.1040666" lon="105.9475205"><ele>372.84</ele><time>2026-03-28T02:06:47.000Z</time></trkpt>
        <trkpt lat="28.1039852" lon="105.9475818"><ele>372.94</ele><time>2026-03-28T02:06:55.000Z</time></trkpt>
        <trkpt lat="28.1039048" lon="105.9476334"><ele>372.94</ele><time>2026-03-28T02:07:03.000Z</time></trkpt>
        <trkpt lat="28.1038201" lon="105.9476902"><ele>372.9</ele><time>2026-03-28T02:07:11.000Z</time></trkpt>
        <trkpt lat="28.1037268" lon="105.9477407"><ele>373.93</ele><time>2026-03-28T02:07:19.000Z</time></trkpt>
        <trkpt lat="28.1036385" lon="105.9477881"><ele>373.66</ele><time>2026-03-28T02:07:27.000Z</time></trkpt>
        <trkpt lat="28.1035542" lon="105.9478403"><ele>373.28</ele><time>2026-03-28T02:07:35.000Z</time></trkpt>
        <trkpt lat="28.1034757" lon="105.9479093"><ele>372.45</ele><time>2026-03-28T02:07:43.000Z</time></trkpt>
        <trkpt lat="28.1033756" lon="105.9479272"><ele>371.49</ele><time>2026-03-28T02:07:53.000Z</time></trkpt>
        <trkpt lat="28.1032803" lon="105.9478853"><ele>369.33</ele><time>2026-03-28T02:08:01.000Z</time></trkpt>
        <trkpt lat="28.103181" lon="105.947844"><ele>366.05</ele><time>2026-03-28T02:08:09.000Z</time></trkpt>
        <trkpt lat="28.1031423" lon="105.9477435"><ele>364.24</ele><time>2026-03-28T02:08:15.000Z</time></trkpt>
        <trkpt lat="28.1031213" lon="105.9476188"><ele>362.08</ele><time>2026-03-28T02:08:23.000Z</time></trkpt>
        <trkpt lat="28.103083" lon="105.947515"><ele>361.5</ele><time>2026-03-28T02:08:31.000Z</time></trkpt>
        <trkpt lat="28.1030193" lon="105.9474229"><ele>361.46</ele><time>2026-03-28T02:08:41.000Z</time></trkpt>
        <trkpt lat="28.1029219" lon="105.9473771"><ele>361.09</ele><time>2026-03-28T02:08:49.000Z</time></trkpt>
        <trkpt lat="28.1028271" lon="105.9473226"><ele>362.36</ele><time>2026-03-28T02:08:57.000Z</time></trkpt>
        <trkpt lat="28.1027477" lon="105.9472512"><ele>363.26</ele><time>2026-03-28T02:09:05.000Z</time></trkpt>
        <trkpt lat="28.1027022" lon="105.9471518"><ele>363.89</ele><time>2026-03-28T02:09:13.000Z</time></trkpt>
        <trkpt lat="28.1026812" lon="105.9470448"><ele>361.69</ele><time>2026-03-28T02:09:21.000Z</time></trkpt>
        <trkpt lat="28.1026098" lon="105.9469608"><ele>360.37</ele><time>2026-03-28T02:09:29.000Z</time></trkpt>
        <trkpt lat="28.1025143" lon="105.9469176"><ele>359.18</ele><time>2026-03-28T02:09:37.000Z</time></trkpt>
        <trkpt lat="28.1024074" lon="105.9469394"><ele>360.14</ele><time>2026-03-28T02:09:45.000Z</time></trkpt>
        <trkpt lat="28.1023065" lon="105.9469903"><ele>360</ele><time>2026-03-28T02:09:53.000Z</time></trkpt>
        <trkpt lat="28.1022119" lon="105.9470285"><ele>359.29</ele><time>2026-03-28T02:10:01.000Z</time></trkpt>
        <trkpt lat="28.1021203" lon="105.947062"><ele>358.28</ele><time>2026-03-28T02:10:09.000Z</time></trkpt>
        <trkpt lat="28.1020298" lon="105.9470877"><ele>357.14</ele><time>2026-03-28T02:10:17.000Z</time></trkpt>
        <trkpt lat="28.1019385" lon="105.9471136"><ele>356.29</ele><time>2026-03-28T02:10:25.000Z</time></trkpt>
        <trkpt lat="28.1018461" lon="105.9471413"><ele>355.61</ele><time>2026-03-28T02:10:33.000Z</time></trkpt>
        <trkpt lat="28.1017521" lon="105.9471653"><ele>354.84</ele><time>2026-03-28T02:10:41.000Z</time></trkpt>
        <trkpt lat="28.1016569" lon="105.9471864"><ele>354.26</ele><time>2026-03-28T02:10:49.000Z</time></trkpt>
        <trkpt lat="28.1015643" lon="105.947216"><ele>354.12</ele><time>2026-03-28T02:10:57.000Z</time></trkpt>
        <trkpt lat="28.1014727" lon="105.9472533"><ele>353.52</ele><time>2026-03-28T02:11:05.000Z</time></trkpt>
        <trkpt lat="28.1013832" lon="105.9472998"><ele>352.44</ele><time>2026-03-28T02:11:13.000Z</time></trkpt>
        <trkpt lat="28.1012966" lon="105.9473431"><ele>352.28</ele><time>2026-03-28T02:11:21.000Z</time></trkpt>
        <trkpt lat="28.1012" lon="105.9473893"><ele>351.22</ele><time>2026-03-28T02:11:29.000Z</time></trkpt>
        <trkpt lat="28.1011136" lon="105.9474378"><ele>351.99</ele><time>2026-03-28T02:11:37.000Z</time></trkpt>
        <trkpt lat="28.1010338" lon="105.9474894"><ele>352.82</ele><time>2026-03-28T02:11:45.000Z</time></trkpt>
        <trkpt lat="28.1009652" lon="105.9475553"><ele>352.9</ele><time>2026-03-28T02:11:53.000Z</time></trkpt>
        <trkpt lat="28.100895" lon="105.9476251"><ele>352.53</ele><time>2026-03-28T02:12:01.000Z</time></trkpt>
        <trkpt lat="28.1008318" lon="105.9477145"><ele>355.07</ele><time>2026-03-28T02:12:09.000Z</time></trkpt>
        <trkpt lat="28.1007748" lon="105.9478051"><ele>356.9</ele><time>2026-03-28T02:12:17.000Z</time></trkpt>
        <trkpt lat="28.1006913" lon="105.9478667"><ele>355.9</ele><time>2026-03-28T02:12:25.000Z</time></trkpt>
        <trkpt lat="28.1005971" lon="105.9479237"><ele>356.31</ele><time>2026-03-28T02:12:35.000Z</time></trkpt>
        <trkpt lat="28.1005118" lon="105.9479877"><ele>353.99</ele><time>2026-03-28T02:12:43.000Z</time></trkpt>
        <trkpt lat="28.1004286" lon="105.9480549"><ele>353.53</ele><time>2026-03-28T02:12:51.000Z</time></trkpt>
        <trkpt lat="28.1003351" lon="105.9481145"><ele>353.61</ele><time>2026-03-28T02:12:59.000Z</time></trkpt>
        <trkpt lat="28.1002417" lon="105.948178"><ele>354.89</ele><time>2026-03-28T02:13:07.000Z</time></trkpt>
        <trkpt lat="28.1001776" lon="105.9482638"><ele>359.08</ele><time>2026-03-28T02:13:15.000Z</time></trkpt>
        <trkpt lat="28.1001337" lon="105.9483767"><ele>361.99</ele><time>2026-03-28T02:13:25.000Z</time></trkpt>
        <trkpt lat="28.1000801" lon="105.9484876"><ele>362.61</ele><time>2026-03-28T02:13:38.000Z</time></trkpt>
        <trkpt lat="28.1000505" lon="105.9486013"><ele>361.77</ele><time>2026-03-28T02:13:44.000Z</time></trkpt>
        <trkpt lat="28.0999985" lon="105.9487125"><ele>363.09</ele><time>2026-03-28T02:13:52.000Z</time></trkpt>
        <trkpt lat="28.0999535" lon="105.9488159"><ele>364.88</ele><time>2026-03-28T02:14:00.000Z</time></trkpt>
        <trkpt lat="28.0998953" lon="105.9489212"><ele>366.09</ele><time>2026-03-28T02:14:12.000Z</time></trkpt>
        <trkpt lat="28.0998367" lon="105.9490283"><ele>363.67</ele><time>2026-03-28T02:14:22.000Z</time></trkpt>
        <trkpt lat="28.0997829" lon="105.949123"><ele>361.07</ele><time>2026-03-28T02:14:28.000Z</time></trkpt>
        <trkpt lat="28.0997357" lon="105.9491888"><ele>357.17</ele><time>2026-03-28T02:14:36.000Z</time></trkpt>
        <trkpt lat="28.0997277" lon="105.9491229"><ele>354.24</ele><time>2026-03-28T02:14:46.000Z</time></trkpt>
        <trkpt lat="28.0997277" lon="105.9491229"><ele>354.24</ele><time>2026-03-28T02:14:47.000Z</time></trkpt>
      </trkseg>
  </trk>
</gpx>